Date StartTime U_cm/s V_cm/s W_cm/s Ustd_cm/s Vstd_cm/s Wstd_cm/s Uvar_(cm/s)^2 Vvar_(cm/s)^2 Wvar_(cm/s)^2 KE_(m/s)^2 TurbulentKE_(m/s)^2 HorizWindSpeed_cm/s FrictionSpeec_cm/s DragCoef SpeedOfSound_m/s SonicTemperature_C Pressure_mb 
12/15/2013  00:00:00     -108.379      -35.307      -10.267       16.055       22.855       15.816      257.761      522.351      250.134        0.706        0.052      113.985        7.413        0.004      329.328       -4.007      875.530
12/15/2013  00:01:00     -105.719      -31.550      -11.662       19.946       23.006       19.420      397.844      529.257      377.121        0.681        0.065      110.327       14.707        0.018      329.321       -4.020      875.533
12/15/2013  00:02:00     -102.373      -33.514      -10.263       25.489       26.782       19.579      649.667      717.281      383.353        0.673        0.088      107.719       15.388        0.020      329.308       -4.039      875.539
12/15/2013  00:03:00      -86.651      -20.047      -11.546       23.828       17.842       14.967      567.761      318.341      224.009        0.458        0.056       88.939       10.287        0.013      329.293       -4.065      875.554
12/15/2013  00:04:00      -86.810      -10.610       -8.413       25.307       22.412       14.197      640.461      502.294      201.568        0.453        0.067       87.456       11.518        0.017      329.295       -4.060      875.564
12/15/2013  00:05:00     -100.667        0.302      -14.983       12.824       15.161       11.162      164.446      229.869      124.588        0.544        0.026      100.667        7.808        0.006      329.280       -4.085      875.572
12/15/2013  00:06:00      -97.189        0.138      -10.185       19.208       15.722       14.358      368.958      247.194      206.149        0.519        0.041       97.189       10.605        0.012      329.224       -4.175      875.583
12/15/2013  00:07:00     -131.216       -3.389      -12.083       20.005       18.856       18.080      400.200      355.549      326.885        0.923        0.054      131.260       12.219        0.009      329.184       -4.242      875.593
12/15/2013  00:08:00     -123.566      -11.255      -11.429       19.532       18.788       14.399      381.514      352.978      207.344        0.823        0.047      124.078       11.841        0.009      329.133       -4.327      875.595
12/15/2013  00:09:00     -102.182      -22.981      -12.349       22.725       18.851       13.179      516.407      355.376      173.679        0.608        0.052      104.735        5.255        0.003      329.168       -4.268      875.585
12/15/2013  00:10:00      -68.298       -4.031       -5.459       17.368       18.582       13.412      301.647      345.284      179.893        0.277        0.041       68.417        8.819        0.017      329.146       -4.304      875.577
12/15/2013  00:11:00      -98.253       -2.232      -15.391       16.752       13.576       10.186      280.614      184.313      103.752        0.523        0.028       98.279        0.822        0.000      329.124       -4.339      875.567
12/15/2013  00:12:00      -70.662       -3.456       -6.210       19.109       11.641       12.865      365.143      135.516      165.501        0.285        0.033       70.746       10.586        0.022      329.154       -4.291      875.565
12/15/2013  00:13:00      -62.932       -1.740       -8.592        9.549        8.020        8.927       91.187       64.316       79.696        0.214        0.012       62.956        3.881        0.004      329.145       -4.305      875.565
12/15/2013  00:14:00      -59.188       -5.868      -13.121        9.008        7.661        7.199       81.136       58.687       51.833        0.195        0.010       59.478        3.843        0.004      329.203       -4.211      875.559
12/15/2013  00:15:00      -43.545      -13.576       -9.701        5.719        8.263        6.224       32.703       68.278       38.733        0.116        0.007       45.612        4.328        0.009      329.269       -4.102      875.551
12/15/2013  00:16:00      -30.701      -16.606       -7.813       10.953        8.365        7.103      119.967       69.975       50.453        0.076        0.012       34.904        5.868        0.028      329.291       -4.067      875.540
12/15/2013  00:17:00      -22.737      -16.943      -11.679       13.639       10.436        7.173      186.031      108.905       51.451        0.064        0.017       28.356        2.018        0.005      329.315       -4.028      875.530
12/15/2013  00:18:00      -13.049      -11.687       -3.111       12.182       11.079        7.618      148.402      122.742       58.028        0.032        0.016       17.517        7.263        0.172      329.240       -4.150      875.511
12/15/2013  00:19:00      -51.248      -22.156       -9.071       13.674       10.778        7.546      186.974      116.161       56.948        0.178        0.018       55.832        4.844        0.008      329.207       -4.204      875.493
12/15/2013  00:20:00      -83.345      -10.783      -11.980       14.675       10.632       10.677      215.355      113.041      113.996        0.382        0.022       84.039        8.678        0.011      329.088       -4.400      875.481
12/15/2013  00:21:00      -99.373       -4.407      -11.006       17.432       12.513       13.515      303.860      156.587      182.651        0.533        0.032       99.471        9.731        0.010      329.034       -4.486      875.462
12/15/2013  00:22:00      -95.644      -18.681      -12.778       16.116       15.340       12.426      259.725      235.301      154.394        0.515        0.032       97.451        8.116        0.007      329.030       -4.492      875.439
12/15/2013  00:23:00      -88.931       -6.495      -10.097       28.419       14.179       14.440      807.650      201.046      208.517        0.463        0.061       89.168       14.721        0.027      328.971       -4.590      875.433
12/15/2013  00:24:00      -78.142      -13.427      -11.775       16.276       16.239       13.480      264.918      263.711      181.701        0.357        0.036       79.287       11.738        0.022      328.991       -4.559      875.429
12/15/2013  00:25:00      -87.008      -23.998      -12.532       21.070       19.599       12.627      443.928      384.133      159.453        0.465        0.049       90.257        9.426        0.011      328.991       -4.559      875.433
12/15/2013  00:26:00      -87.365      -10.987      -14.447       19.115       14.339        9.792      365.388      205.593       95.888        0.431        0.033       88.053        7.302        0.007      328.970       -4.592      875.436
12/15/2013  00:27:00      -93.200      -18.379      -11.350       19.683       15.036       14.155      387.427      226.086      200.377        0.498        0.041       94.995       11.590        0.015      328.995       -4.550      875.432
12/15/2013  00:28:00      -96.640       -9.543       -8.647       36.349       20.607       15.797     1321.214      424.645      249.531        0.575        0.100       97.110        8.678        0.008      329.062       -4.441      875.422
12/15/2013  00:29:00      -98.202      -13.081      -11.981       29.111       23.790       16.777      847.446      565.957      281.478        0.583        0.085       99.069       16.523        0.028      329.060       -4.444      875.407
12/15/2013  00:30:00     -118.621      -18.930      -17.893       13.867       12.869       12.158      192.288      165.608      147.807        0.763        0.025      120.122        7.740        0.004      329.055       -4.453      875.405
12/15/2013  00:31:00     -118.133      -24.657       -8.223       30.774       24.649       15.514      947.034      607.593      240.682        0.821        0.090      120.678        9.613        0.006      328.947       -4.630      875.408
12/15/2013  00:32:00     -122.370       -8.501       -7.732       44.308       34.389       24.384     1963.240     1182.632      594.584        0.942        0.187      122.665       20.483        0.028      328.929       -4.659      875.422
12/15/2013  00:33:00     -106.973       -7.287       -7.254       35.451       24.611       18.699     1256.783      605.708      349.662        0.688        0.111      107.221       17.672        0.027      328.916       -4.680      875.431
12/15/2013  00:34:00     -114.745       -5.558       -7.882       33.500       20.577       20.602     1122.225      423.419      424.438        0.761        0.099      114.879       19.992        0.030      328.949       -4.626      875.432
12/15/2013  00:35:00      -96.117       -7.047       -6.103       31.321       20.140       21.560      980.983      405.639      464.843        0.559        0.093       96.375       17.720        0.034      328.969       -4.592      875.424
12/15/2013  00:36:00     -102.079      -11.858       -9.423       35.847       24.189       15.702     1285.023      585.088      246.554        0.638        0.106      102.765       14.990        0.021      328.979       -4.577      875.416
12/15/2013  00:37:00     -106.758        4.139      -11.811       34.549       21.741       18.731     1193.601      472.665      350.855        0.679        0.101      106.838       17.713        0.027      328.995       -4.552      875.403
12/15/2013  00:38:00     -123.940        3.957      -16.107       36.662       27.025       17.315     1344.130      730.324      299.796        0.900        0.119      124.004       16.782        0.018      328.969       -4.594      875.387
12/15/2013  00:39:00     -110.322       -1.028      -12.244       38.172       24.833       20.210     1457.077      616.694      408.456        0.740        0.124      110.327       17.309        0.025      328.968       -4.594      875.381
12/15/2013  00:40:00     -116.186      -14.062      -12.415       37.882       19.080       20.501     1435.062      364.045      420.287        0.803        0.111      117.034       20.206        0.030      328.965       -4.599      875.373
12/15/2013  00:41:00     -108.976       -6.719       -6.587       35.545       20.143       18.192     1263.421      405.751      330.961        0.698        0.100      109.182       20.025        0.034      328.990       -4.558      875.362
12/15/2013  00:42:00     -108.998      -23.192      -14.145       20.632       21.578       13.723      425.688      465.617      188.317        0.685        0.054      111.438        9.437        0.007      329.018       -4.513      875.346
12/15/2013  00:43:00      -86.208      -31.268       -9.549       22.441       25.831       13.256      503.604      667.259      175.725        0.492        0.067       91.703        9.421        0.011      329.032       -4.490      875.328
12/15/2013  00:44:00      -89.055      -15.035       -7.471       19.989       15.971       10.351      399.555      255.061      107.149        0.449        0.038       90.315        9.460        0.011      329.077       -4.416      875.314
12/15/2013  00:45:00      -91.694      -13.239      -11.774       23.973       17.934       12.375      574.691      321.619      153.136        0.489        0.052       92.645       13.223        0.020      329.067       -4.432      875.309
12/15/2013  00:46:00      -87.469      -13.435      -12.433       22.177       13.292       14.094      491.827      176.684      198.638        0.443        0.043       88.495       13.255        0.022      329.029       -4.495      875.297
12/15/2013  00:47:00      -97.533       -3.893      -12.514       18.738       12.423       12.155      351.098      154.326      147.732        0.517        0.033       97.610        7.752        0.006      329.038       -4.480      875.290
12/15/2013  00:48:00      -96.692       -0.843      -12.749       19.040       14.011       14.716      362.518      196.319      216.571        0.514        0.039       96.696       11.126        0.013      328.989       -4.561      875.273
12/15/2013  00:49:00      -93.280      -17.144      -13.285       19.722       15.534       11.731      388.943      241.295      137.609        0.497        0.038       94.842       10.321        0.012      328.993       -4.553      875.257
12/15/2013  00:50:00      -93.983      -27.676      -12.202       21.546       19.185       14.335      464.230      368.080      205.501        0.539        0.052       97.973       10.433        0.011      329.019       -4.511      875.240
12/15/2013  00:51:00      -92.713      -28.686       -9.815       18.343       21.384       14.494      336.461      457.271      210.080        0.526        0.050       97.050        8.846        0.008      328.984       -4.569      875.223
12/15/2013  00:52:00      -92.631      -13.792      -15.186       20.740       12.428       12.315      430.150      154.457      151.657        0.487        0.037       93.652        9.359        0.010      328.981       -4.573      875.210
12/15/2013  00:53:00      -98.851      -15.936      -12.853       15.815       15.683       12.098      250.104      245.959      146.372        0.542        0.032      100.127        9.958        0.010      329.003       -4.538      875.203
12/15/2013  00:54:00      -84.954      -15.735      -11.798       20.962       15.188       12.131      439.419      230.662      147.171        0.421        0.041       86.399       12.086        0.020      328.989       -4.559      875.192
12/15/2013  00:55:00      -72.065      -21.332       -4.064       19.653       19.561       13.382      386.230      382.644      179.071        0.331        0.047       75.156        9.661        0.017      328.980       -4.575      875.186
12/15/2013  00:56:00      -87.933       -7.566       -8.228       16.738       15.485       11.425      280.151      239.793      130.532        0.425        0.033       88.258        7.548        0.007      328.980       -4.575      875.185
12/15/2013  00:57:00      -78.241      -14.909      -10.276       19.864       10.513        9.062      394.597      110.514       82.125        0.352        0.029       79.649        5.599        0.005      329.019       -4.510      875.183
12/15/2013  00:58:00      -75.867      -17.812      -13.131       14.080       14.161        9.886      198.256      200.528       97.725        0.337        0.025       77.929        7.939        0.010      329.042       -4.474      875.181
12/15/2013  00:59:00      -52.691      -16.440       -4.992       13.913       14.128       12.056      193.567      199.598      145.343        0.180        0.027       55.196        6.593        0.014      329.020       -4.509      875.176
12/15/2013  01:00:00      -46.245      -14.794       -6.923       13.961       13.804        9.364      194.902      190.562       87.687        0.144        0.024       48.554        4.481        0.009      329.048       -4.463      875.165
12/15/2013  01:01:00      -37.206      -18.198       -8.682       11.807       12.362       10.400      139.402      152.825      108.162        0.110        0.020       41.418        7.452        0.032      329.075       -4.419      875.151
12/15/2013  01:02:00      -40.450      -17.769      -12.265       11.991       10.049        8.643      143.787      100.989       74.703        0.121        0.016       44.181        4.867        0.012      329.141       -4.312      875.146
12/15/2013  01:03:00      -49.978      -16.913       -6.553       15.043       13.205        8.448      226.278      174.362       71.377        0.165        0.024       52.762        4.995        0.009      329.051       -4.457      875.141
12/15/2013  01:04:00      -60.577      -26.024      -13.233       11.877       11.870        9.750      141.074      140.908       95.056        0.245        0.019       65.930        5.898        0.008      328.988       -4.562      875.147
12/15/2013  01:05:00      -71.581      -13.392      -11.249       10.015       12.904        7.643      100.307      166.512       58.413        0.288        0.016       72.823        3.329        0.002      328.899       -4.707      875.159
12/15/2013  01:06:00      -55.917       -5.814       -6.364        9.711       14.793        8.651       94.312      218.830       74.834        0.179        0.019       56.218        7.729        0.019      328.804       -4.862      875.175
12/15/2013  01:07:00      -60.318       -7.961      -12.993        7.186        7.535        5.741       51.636       56.772       32.963        0.201        0.007       60.842        4.019        0.004      329.039       -4.477      875.187
12/15/2013  01:08:00      -52.856      -11.449      -11.908        8.756       10.048        8.167       76.660      100.963       66.700        0.166        0.012       54.082        4.106        0.006      328.883       -4.734      875.195
12/15/2013  01:09:00      -41.676      -10.087      -14.796        9.209        9.984       10.296       84.799       99.687      106.004        0.117        0.015       42.879        6.640        0.024      328.854       -4.780      875.200
12/15/2013  01:10:00      -51.362      -15.532      -13.372        8.913        6.743        9.017       79.437       45.466       81.307        0.163        0.010       53.659        2.756        0.003      328.802       -4.866      875.197
12/15/2013  01:11:00      -50.888       -2.105      -13.784       20.222       10.237        7.364      408.945      104.789       54.226        0.168        0.028       50.932        5.160        0.010      328.933       -4.651      875.196
12/15/2013  01:12:00      -48.899       -6.433      -14.701        9.435        7.670        6.542       89.023       58.826       42.793        0.142        0.010       49.321        2.647        0.003      328.752       -4.948      875.190
12/15/2013  01:13:00      -28.152       -4.347       -2.707       18.825       17.022        9.195      354.397      289.760       84.546        0.077        0.036       28.486        7.078        0.062      328.971       -4.590      875.189
12/15/2013  01:14:00      -11.622        9.819        1.993       24.182       28.065       13.947      584.746      787.664      194.529        0.090        0.078       15.215        6.346        0.174      329.190       -4.231      875.186
12/15/2013  01:15:00      -26.976       -3.365       -4.321       14.783        9.169        8.010      218.549       84.070       64.160        0.056        0.018       27.185        5.008        0.034      328.929       -4.657      875.190
12/15/2013  01:16:00       -8.115        3.781       -0.558       26.053       27.863       16.811      678.784      776.372      282.624        0.091        0.087        8.952       10.025        1.254      329.136       -4.319      875.190
12/15/2013  01:17:00      -21.913        8.473       -2.042       26.670       29.768       13.847      711.273      886.144      191.734        0.117        0.089       23.494        7.684        0.107      329.274       -4.094      875.197
12/15/2013  01:18:00       -8.624       21.787       -4.577       19.299       31.911       11.320      372.449     1018.340      128.147        0.104        0.076       23.432       16.784        0.513      329.232       -4.162      875.198
12/15/2013  01:19:00       13.894       26.120        3.307       19.866       25.895       16.633      394.658      670.549      276.648        0.111        0.067       29.585       16.675        0.318      329.469       -3.775      875.203
12/15/2013  01:20:00       -1.286       22.782       -3.910       37.244       19.098       16.248     1387.143      364.751      263.994        0.128        0.101       22.819       12.169        0.284      329.211       -4.198      875.214
12/15/2013  01:21:00      -38.610       -1.583       -4.697       14.781       10.088       11.144      218.471      101.777      124.194        0.098        0.022       38.643        7.110        0.034      329.084       -4.405      875.220
12/15/2013  01:22:00      -20.248       -4.463        9.108       34.168       18.429       18.348     1167.479      339.622      336.637        0.118        0.092       20.734       13.163        0.403      329.199       -4.216      875.232
12/15/2013  01:23:00      -35.139        1.354       -6.126       12.906       17.638       14.547      166.574      311.085      211.621        0.098        0.034       35.165       11.390        0.105      329.068       -4.432      875.229
12/15/2013  01:24:00        8.273       19.446        2.485       16.953       14.719       10.554      287.398      216.636      111.395        0.053        0.031       21.133        9.927        0.221      329.427       -3.846      875.222
12/15/2013  01:25:00        8.854       28.108       -2.802        6.717       10.963        7.899       45.114      120.183       62.401        0.055        0.011       29.470        5.662        0.037      329.503       -3.719      875.210
12/15/2013  01:26:00       -2.607       -0.906        8.040        7.705        7.700        7.926       59.363       59.287       62.815        0.013        0.009        2.760        4.359        2.495      329.453       -3.803      875.198
12/15/2013  01:27:00       12.962        2.684       -0.665       13.088       10.087        8.915      171.299      101.740       79.486        0.026        0.018       13.237        4.052        0.094      329.469       -3.776      875.183
12/15/2013  01:28:00       12.684       15.757       -0.385       11.755        8.433        8.402      138.175       71.122       70.587        0.034        0.014       20.228        4.950        0.060      329.465       -3.781      875.177
12/15/2013  01:29:00      -12.435        9.312       -0.260       14.326        7.921        6.347      205.236       62.746       40.283        0.027        0.015       15.535        4.156        0.072      329.223       -4.179      875.168
12/15/2013  01:30:00      -17.171       10.300        4.164        9.142        9.660        7.062       83.568       93.311       49.877        0.032        0.011       20.023        4.982        0.062      329.095       -4.385      875.149
12/15/2013  01:31:00       14.608       15.930       -1.705       12.440        7.921        6.145      154.753       62.749       37.764        0.036        0.013       21.614        5.578        0.067      329.380       -3.922      875.147
12/15/2013  01:32:00       10.248       11.849        8.853        6.766        6.629        5.554       45.773       43.948       30.848        0.022        0.006       15.666        3.048        0.038      329.374       -3.933      875.146
12/15/2013  01:33:00       10.813       10.504        7.123       10.712        8.817        4.878      114.744       77.734       23.790        0.025        0.011       15.075        2.796        0.034      329.372       -3.935      875.148
12/15/2013  01:34:00      -18.206       -2.482        1.284       10.321        4.493        6.035      106.529       20.189       36.425        0.025        0.008       18.375        3.053        0.028      329.170       -4.265      875.144
12/15/2013  01:35:00      -14.002       -8.149       -3.448        7.829        4.204        3.360       61.289       17.675       11.291        0.018        0.005       16.201        2.479        0.023      329.082       -4.409      875.142
12/15/2013  01:36:00      -24.614       -6.585       -3.898        9.275        7.089        7.695       86.019       50.252       59.207        0.043        0.010       25.480        5.700        0.050      329.035       -4.487      875.142
12/15/2013  01:37:00      -38.987        7.635        9.958       11.587        9.993        7.278      134.262       99.855       52.967        0.098        0.014       39.728        6.368        0.026      328.906       -4.695      875.140
12/15/2013  01:38:00      -41.659       -2.826        0.517        8.777        7.827        8.965       77.031       61.265       80.368        0.098        0.011       41.755        4.704        0.013      328.941       -4.639      875.131
12/15/2013  01:39:00      -42.994       -4.390       -0.611       11.035        9.266        9.861      121.760       85.856       97.243        0.109        0.015       43.217        6.509        0.023      328.872       -4.751      875.130
12/15/2013  01:40:00      -55.664       -1.089       -8.151       15.159        6.307        8.357      229.794       39.777       69.842        0.175        0.017       55.675        3.784        0.005      328.901       -4.705      875.125
12/15/2013  01:41:00      -63.923      -11.520       -4.840       11.062       14.019        9.347      122.374      196.524       87.366        0.232        0.020       64.953        5.165        0.006      328.832       -4.815      875.130
12/15/2013  01:42:00      -79.042      -11.788      -10.729       14.800       11.616        9.093      219.036      134.931       82.683        0.347        0.022       79.917        6.182        0.006      328.837       -4.808      875.134
12/15/2013  01:43:00      -74.196      -12.244       -6.091       12.765       16.325       11.406      162.956      266.521      130.099        0.313        0.028       75.199        6.085        0.007      328.794       -4.877      875.135
12/15/2013  01:44:00      -84.114       -6.932       -6.955       19.155       13.604       13.281      366.912      185.062      176.380        0.395        0.036       84.399        7.710        0.008      328.731       -4.981      875.139
12/15/2013  01:45:00      -66.370       -4.626       -7.405       15.982       16.464        8.873      255.431      271.051       78.734        0.254        0.030       66.531        5.577        0.007      328.733       -4.980      875.138
12/15/2013  01:46:00      -67.453       -0.885       -8.733       17.600       13.808        9.691      309.753      190.672       93.924        0.261        0.030       67.458        8.085        0.014      328.730       -4.984      875.133
12/15/2013  01:47:00      -48.238      -14.105       -2.262       14.134       11.407       12.451      199.774      130.120      155.039        0.151        0.024       50.258        8.665        0.030      328.749       -4.951      875.135
12/15/2013  01:48:00      -58.040       -9.227       -9.140       11.411        9.432       11.209      130.207       88.970      125.646        0.194        0.017       58.768        3.696        0.004      328.848       -4.791      875.134
12/15/2013  01:49:00      -50.689      -15.629       -3.639       10.053       12.244        8.024      101.073      149.916       64.380        0.157        0.016       53.044        4.139        0.006      328.897       -4.710      875.130
12/15/2013  01:50:00      -56.516      -22.188      -12.774       11.857        9.463        8.192      140.585       89.555       67.112        0.207        0.015       60.715        2.241        0.001      328.915       -4.681      875.114
12/15/2013  01:51:00      -69.755      -30.482       -3.721       10.953       14.178        7.848      119.974      201.026       61.592        0.310        0.019       76.125        6.399        0.007      328.842       -4.800      875.101
12/15/2013  01:52:00      -82.213      -27.424       -7.221       11.878       20.220        9.928      141.087      408.860       98.561        0.411        0.032       86.667        3.893        0.002      328.849       -4.789      875.093
12/15/2013  01:53:00      -67.939      -24.949       -0.343       14.605       16.148       10.771      213.303      260.760      116.010        0.291        0.030       72.375        8.820        0.015      328.848       -4.790      875.093
12/15/2013  01:54:00      -56.179      -32.037        0.360       23.101       14.616       10.521      533.666      213.641      110.697        0.252        0.043       64.671        8.076        0.016      328.795       -4.876      875.101
12/15/2013  01:55:00      -39.904      -26.088        1.667       22.524       16.219       11.426      507.343      263.041      130.543        0.159        0.045       47.676       10.220        0.046      328.672       -5.077      875.110
12/15/2013  01:56:00      -53.878      -33.131       -3.418       25.528       16.952       12.214      651.664      287.366      149.185        0.255        0.054       63.249        9.896        0.024      328.755       -4.943      875.112
12/15/2013  01:57:00      -70.133      -24.420       -8.945       10.164        7.615        6.950      103.299       57.983       48.307        0.290        0.010       74.263        4.843        0.004      328.748       -4.954      875.110
12/15/2013  01:58:00      -61.124      -22.506       -7.889       11.563        7.947        7.568      133.711       63.147       57.279        0.228        0.013       65.135        4.549        0.005      328.777       -4.906      875.107
12/15/2013  01:59:00      -61.787      -31.219       -7.271        9.021        8.597        7.032       81.374       73.917       49.446        0.252        0.010       69.227        3.250        0.002      328.825       -4.826      875.100
12/15/2013  02:00:00      -46.744      -27.978       -5.295       22.934       10.692       11.208      525.950      114.324      125.619        0.188        0.038       54.477       10.402        0.036      328.852       -4.784      875.096
12/15/2013  02:01:00      -37.448      -19.250        1.752       16.278        7.712        9.351      264.962       59.468       87.442        0.109        0.021       42.106        3.670        0.008      328.820       -4.835      875.097
12/15/2013  02:02:00      -40.958      -29.978       -4.553        7.411       10.456        6.173       54.922      109.327       38.103        0.140        0.010       50.757        4.388        0.007      328.860       -4.769      875.101
12/15/2013  02:03:00      -45.584      -29.304       -7.716       13.854        9.565        7.507      191.932       91.486       56.354        0.167        0.017       54.191        1.882        0.001      328.906       -4.698      875.104
12/15/2013  02:04:00      -54.547      -37.688       -5.706       10.331       18.882        9.020      106.724      356.547       81.367        0.249        0.027       66.301        7.876        0.014      329.025       -4.501      875.109
12/15/2013  02:05:00      -57.880      -32.954       -4.808       11.474       11.056       10.164      131.650      122.237      103.303        0.241        0.018       66.604        5.248        0.006      328.993       -4.553      875.112
12/15/2013  02:06:00      -48.403      -28.766       -0.279       12.253        7.831        8.953      150.134       61.329       80.150        0.173        0.015       56.306        7.838        0.019      328.826       -4.827      875.116
12/15/2013  02:07:00      -50.815      -35.452       -4.972       17.518       14.856       10.462      306.884      220.711      109.462        0.225        0.032       61.960        5.974        0.009      328.766       -4.923      875.119
12/15/2013  02:08:00      -49.800      -27.795       -0.580       22.816       13.694       13.996      520.588      187.539      195.890        0.208        0.045       57.032       12.975        0.052      328.743       -4.963      875.123
12/15/2013  02:09:00      -61.049      -35.905       -6.129       10.709       15.586        9.627      114.674      242.915       92.674        0.275        0.023       70.825        5.468        0.006      328.783       -4.895      875.128
12/15/2013  02:10:00      -65.029      -20.835      -10.675        8.190       10.639       10.093       67.080      113.190      101.868        0.253        0.014       68.285        7.025        0.011      328.669       -5.082      875.130
12/15/2013  02:11:00      -64.875       -7.169      -10.388       12.437       11.155        9.797      154.678      124.441       95.987        0.237        0.019       65.270        6.609        0.010      328.634       -5.139      875.143
12/15/2013  02:12:00      -66.578       -1.610       -1.986       26.487       13.987       13.488      701.546      195.625      181.924        0.276        0.054       66.597       13.038        0.038      328.578       -5.230      875.154
12/15/2013  02:13:00      -95.102        0.689       -7.966       16.669       12.521       10.563      277.872      156.783      111.586        0.483        0.027       95.105        9.728        0.010      328.567       -5.247      875.164
12/15/2013  02:14:00      -89.588       -5.710      -10.578       18.770       14.342       14.289      352.324      205.680      204.178        0.447        0.038       89.770       13.170        0.022      328.550       -5.276      875.167
12/15/2013  02:15:00      -84.276       -6.203       -7.354       19.443       14.658        9.649      378.030      214.855       93.106        0.394        0.034       84.504        6.230        0.005      328.594       -5.205      875.166
12/15/2013  02:16:00      -76.711      -10.305       -4.953       20.430       16.244       11.143      417.394      263.873      124.173        0.341        0.040       77.400        7.491        0.009      328.554       -5.270      875.168
12/15/2013  02:17:00      -95.996      -11.907      -10.057       19.046       12.510       11.754      362.750      156.490      138.161        0.506        0.033       96.732        6.913        0.005      328.522       -5.321      875.176
12/15/2013  02:18:00      -97.788      -16.556       -8.688       20.410       21.463       15.196      416.575      460.641      230.928        0.551        0.055       99.180       10.516        0.011      328.477       -5.397      875.186
12/15/2013  02:19:00     -102.655      -14.436       -7.005       19.230       17.633       11.666      369.787      310.936      136.100        0.581        0.041      103.665       11.167        0.012      328.444       -5.450      875.193
12/15/2013  02:20:00      -93.141      -13.309       -9.960       21.676       16.655       12.066      469.847      277.395      145.600        0.492        0.045       94.087        5.028        0.003      328.409       -5.506      875.202
12/15/2013  02:21:00      -95.013      -11.114      -11.150       36.665       24.112       18.075     1344.343      581.366      326.696        0.576        0.113       95.661       19.175        0.040      328.365       -5.578      875.204
12/15/2013  02:22:00     -105.883       -7.361      -12.107       18.226       14.703       11.029      332.196      216.168      121.629        0.604        0.033      106.139        5.940        0.003      328.377       -5.559      875.201
12/15/2013  02:23:00      -90.174       -3.129       -5.877       16.233       17.613       16.532      263.500      310.235      273.292        0.451        0.042       90.228       10.121        0.013      328.359       -5.589      875.193
12/15/2013  02:24:00      -95.085      -23.152      -14.303       19.068       18.956       12.448      363.574      359.323      154.942        0.533        0.044       97.863        5.580        0.003      328.384       -5.547      875.189
12/15/2013  02:25:00      -78.058      -18.040       -7.984       16.583       17.255        9.739      275.001      297.736       94.849        0.357        0.033       80.115        6.247        0.006      328.471       -5.406      875.186
12/15/2013  02:26:00      -94.952       -7.182      -12.505       12.269       10.633       11.151      150.526      113.051      124.348        0.481        0.019       95.223        9.328        0.010      328.445       -5.447      875.177
12/15/2013  02:27:00      -91.019      -13.227       -5.990       23.851       21.706       14.520      568.891      471.149      210.821        0.487        0.063       91.975       13.705        0.022      328.502       -5.354      875.170
12/15/2013  02:28:00     -101.016      -13.524       -6.118       17.518       15.210       14.230      306.885      231.335      202.480        0.558        0.037      101.918       11.772        0.013      328.498       -5.360      875.160
12/15/2013  02:29:00     -112.776      -11.384       -7.246       21.480       11.789       13.484      461.396      138.987      181.811        0.684        0.039      113.349       11.838        0.011      328.510       -5.342      875.143
12/15/2013  02:30:00      -92.441      -12.724       -8.159       21.239       13.547       12.900      451.086      183.525      166.407        0.479        0.040       93.313       10.266        0.012      328.505       -5.350      875.119
12/15/2013  02:31:00      -92.137      -14.475       -7.754       22.396       18.908       14.140      501.590      357.500      199.943        0.491        0.053       93.267        8.779        0.009      328.513       -5.338      875.101
12/15/2013  02:32:00      -84.457      -28.383       -9.505       24.527       18.843       13.822      601.583      355.063      191.055        0.459        0.057       89.099       10.506        0.014      328.504       -5.352      875.087
12/15/2013  02:33:00     -102.596      -23.791       -8.486       21.086       20.499       13.285      444.631      420.215      176.494        0.610        0.052      105.318        8.590        0.007      328.445       -5.449      875.092
12/15/2013  02:34:00     -116.528      -13.888      -13.170       23.211       18.185       14.388      538.770      330.706      207.011        0.751        0.054      117.353        6.847        0.003      328.400       -5.520      875.098
12/15/2013  02:35:00      -98.550      -34.330      -10.448       27.663       21.060       15.650      765.257      443.534      244.915        0.623        0.073      104.359        7.632        0.005      328.370       -5.569      875.099
12/15/2013  02:36:00     -124.842      -27.901       -5.522       29.763       24.925       15.878      885.831      621.250      252.096        0.908        0.088      127.921       17.585        0.019      328.357       -5.591      875.092
12/15/2013  02:37:00     -103.441      -30.983       -3.609       32.170       30.724       18.568     1034.908      943.954      344.781        0.700        0.116      107.981       16.474        0.023      328.357       -5.590      875.082
12/15/2013  02:38:00      -96.824      -24.981       -3.193       35.689       26.527       21.242     1273.707      703.668      451.217        0.622        0.121       99.995       18.588        0.035      328.282       -5.713      875.074
12/15/2013  02:39:00      -79.006      -20.891       -2.844       38.765       27.348       18.029     1502.717      747.894      325.060        0.463        0.129       81.721       16.166        0.039      328.258       -5.751      875.067
12/15/2013  02:40:00      -67.513      -38.316       -2.758       24.219       29.541       17.450      586.544      872.650      304.487        0.390        0.088       77.628        7.153        0.008      328.223       -5.811      875.072
12/15/2013  02:41:00      -81.322      -29.695       -0.137       27.059       27.538       17.393      732.216      758.325      302.524        0.464        0.090       86.574       13.948        0.026      328.279       -5.718      875.079
12/15/2013  02:42:00      -79.621      -35.644       -7.571       29.575       34.592       20.344      874.696     1196.602      413.884        0.508        0.124       87.235       17.327        0.039      328.324       -5.645      875.087
12/15/2013  02:43:00      -87.943      -34.237       -5.838       28.637       32.639       18.290      820.086     1065.309      334.541        0.558        0.111       94.373       14.859        0.025      328.336       -5.625      875.088
12/15/2013  02:44:00      -99.318      -48.299       -2.161       34.248       23.151       23.878     1172.900      535.991      570.149        0.724        0.114      110.440       12.453        0.013      328.305       -5.676      875.090
12/15/2013  02:45:00      -96.679      -48.274      -10.326       39.191       32.432       21.947     1535.950     1051.847      481.678        0.743        0.153      108.061       11.825        0.012      328.347       -5.607      875.089
12/15/2013  02:46:00     -117.878      -48.762       -2.644       26.813       27.838       22.960      718.955      774.979      527.177        0.915        0.101      127.565       16.216        0.016      328.295       -5.691      875.088
12/15/2013  02:47:00      -66.477      -56.683       -1.144       35.269       20.247       20.449     1243.928      409.952      418.158        0.485        0.104       87.362       18.168        0.043      328.325       -5.643      875.086
12/15/2013  02:48:00      -91.272      -54.488       -6.048       34.123       26.617       16.832     1164.372      708.451      283.308        0.675        0.108      106.299       13.010        0.015      328.220       -5.816      875.093
12/15/2013  02:49:00      -97.959      -51.931       -4.919       21.027       22.058       13.719      442.141      486.545      188.199        0.672        0.056      110.873        6.345        0.003      328.247       -5.770      875.105
12/15/2013  02:50:00      -80.938      -27.768       -9.604       30.866       17.978       14.628      952.738      323.223      213.971        0.445        0.074       85.569       13.954        0.027      328.259       -5.751      875.117
12/15/2013  02:51:00      -44.770      -15.695        0.104       25.771       17.514       15.787      664.163      306.739      249.229        0.174        0.061       47.442        5.881        0.015      328.369       -5.570      875.130
12/15/2013  02:52:00      -66.232       -9.634      -16.249       13.235       12.855       13.974      175.172      165.260      195.279        0.264        0.027       66.929        3.825        0.003      328.338       -5.621      875.125
12/15/2013  02:53:00      -64.920       -6.650      -12.184        9.191       12.787       11.148       84.479      163.503      124.284        0.239        0.019       65.259        4.518        0.005      328.318       -5.655      875.110
12/15/2013  02:54:00      -68.468      -18.815       -7.185       10.320       12.715        8.675      106.502      161.674       75.253        0.272        0.017       71.006        4.258        0.004      328.263       -5.744      875.097
12/15/2013  02:55:00      -62.965      -37.047      -12.378       14.021       20.498       14.343      196.574      420.163      205.712        0.316        0.041       73.056        9.559        0.017      328.256       -5.755      875.092
12/15/2013  02:56:00      -84.591      -17.535       -7.067       19.813       14.482       15.214      392.559      209.736      231.462        0.417        0.042       86.389       11.562        0.018      328.230       -5.798      875.082
12/15/2013  02:57:00      -70.689      -13.907      -10.683       14.116       10.111        6.798      199.262      102.234       46.217        0.283        0.017       72.044        4.106        0.003      328.178       -5.884      875.071
12/15/2013  02:58:00      -74.797      -19.717      -11.929        9.451       12.853       10.732       89.315      165.196      115.174        0.325        0.018       77.352        7.692        0.010      328.135       -5.953      875.050
12/15/2013  02:59:00      -82.611       -5.098      -10.564       17.729       14.311        9.568      314.306      204.791       91.537        0.379        0.031       82.768        5.837        0.005      328.125       -5.968      875.032
12/15/2013  03:00:00      -90.119       -6.347      -10.493       13.839       12.314       11.856      191.518      151.636      140.560        0.438        0.024       90.343        6.928        0.006      328.077       -6.047      875.031
12/15/2013  03:01:00      -90.140      -12.688      -10.241       13.940       14.240       12.585      194.321      202.783      158.378        0.447        0.028       91.028        5.642        0.004      328.113       -5.989      875.027
12/15/2013  03:02:00      -53.850      -24.032      -10.757       16.941       18.432       12.880      286.983      339.739      165.895        0.219        0.040       58.969        6.886        0.014      328.082       -6.040      875.015
12/15/2013  03:03:00      -79.278      -27.235       -7.873       26.609       25.301       18.509      708.064      640.116      342.601        0.439        0.085       83.826       16.179        0.037      328.093       -6.021      875.011
12/15/2013  03:04:00      -85.819      -25.131       -4.521       38.504       29.074       20.976     1482.551      845.296      439.975        0.539        0.138       89.423       18.380        0.042      328.040       -6.109      875.013
12/15/2013  03:05:00      -81.271      -26.011        2.174       36.479       35.285       21.652     1330.748     1245.046      468.794        0.516        0.152       85.332       17.658        0.043      328.074       -6.051      875.001
12/15/2013  03:06:00      -54.066      -20.350        1.152       37.136       22.667       25.740     1379.068      513.804      662.568        0.295        0.128       57.769       14.162        0.060      328.052       -6.088      874.991
12/15/2013  03:07:00      -16.460       -7.090       -2.718       39.181       34.080       22.955     1535.135     1161.426      526.930        0.178        0.161       17.922       20.327        1.286      328.069       -6.060      874.993
12/15/2013  03:08:00      -27.559      -26.643       -0.034       35.933       32.829       25.304     1291.216     1077.757      640.283        0.224        0.150       38.332       23.621        0.380      328.108       -5.997      874.997
12/15/2013  03:09:00      -90.326      -42.485       -0.833       41.347       41.846       23.475     1709.544     1751.087      551.077        0.699        0.201       99.819       17.659        0.031      328.102       -6.005      874.996
12/15/2013  03:10:00      -85.894      -46.547       -4.297       36.458       39.178       26.634     1329.186     1534.938      709.382        0.657        0.179       97.696       14.735        0.023      328.035       -6.115      874.990
12/15/2013  03:11:00      -86.780      -36.156        0.590       30.120       42.603       21.988      907.215     1814.991      483.475        0.602        0.160       94.010       17.921        0.036      328.023       -6.136      874.989
12/15/2013  03:12:00      -78.303      -42.842        3.028       29.616       42.060       20.034      877.080     1769.034      401.364        0.551        0.152       89.257       12.819        0.021      328.054       -6.084      874.993
12/15/2013  03:13:00      -85.863      -24.542       -0.511       49.973       44.043       27.172     2497.262     1939.783      738.311        0.657        0.259       89.302       21.515        0.058      328.076       -6.048      874.995
12/15/2013  03:14:00     -114.778      -22.464       -2.174       39.006       34.097       26.011     1521.431     1162.629      676.559        0.852        0.168      116.956       22.006        0.035      327.996       -6.178      874.997
12/15/2013  03:15:00     -109.260      -11.456       -3.556       40.674       30.521       22.216     1654.392      931.516      493.562        0.758        0.154      109.859       16.381        0.022      328.019       -6.141      875.001
12/15/2013  03:16:00     -107.046      -13.817       -0.407       50.561       34.407       21.440     2556.449     1183.812      459.672        0.792        0.210      107.934       22.717        0.044      328.057       -6.080      874.989
12/15/2013  03:17:00     -119.624      -19.408       -6.059       32.032       18.053       14.573     1026.026      325.895      212.384        0.814        0.078      121.188       17.287        0.020      328.091       -6.026      874.972
12/15/2013  03:18:00     -102.640      -26.618       -4.718       27.709       21.372       15.403      767.783      456.760      237.244        0.636        0.073      106.035       12.597        0.014      328.090       -6.025      874.955
12/15/2013  03:19:00      -77.045      -27.595       -4.153       29.425       35.664       16.928      865.805     1271.910      286.553        0.457        0.121       81.838       11.983        0.021      328.216       -5.822      874.946
12/15/2013  03:20:00      -52.971      -23.030        3.111       24.456       22.839       19.386      598.074      521.607      375.835        0.242        0.075       57.761       13.165        0.052      328.229       -5.799      874.932
12/15/2013  03:21:00      -14.439      -15.080       10.279       27.625       24.574       20.113      763.125      603.873      404.525        0.116        0.089       20.878       14.826        0.504      328.237       -5.787      874.912
12/15/2013  03:22:00      -35.929       -6.495      -13.796       18.977       15.613       13.758      360.132      243.772      189.283        0.116        0.040       36.512       12.560        0.118      328.177       -5.884      874.892
12/15/2013  03:23:00      -24.190      -11.659      -13.875       13.555        9.556       13.893      183.731       91.323      193.005        0.069        0.023       26.854        8.986        0.112      328.211       -5.830      874.882
12/15/2013  03:24:00       -7.859      -12.541       -0.696       13.725        6.733        6.071      188.387       45.334       36.860        0.025        0.014       14.801        5.013        0.115      328.443       -5.450      874.880
12/15/2013  03:25:00       23.836       11.054       -1.575       10.151       15.257        9.572      103.049      232.776       91.626        0.056        0.021       26.274        5.338        0.041      328.692       -5.045      874.892
12/15/2013  03:26:00       17.499        7.274       -0.102        7.784       11.285       10.129       60.595      127.346      102.596        0.032        0.015       18.951        5.871        0.096      328.635       -5.139      874.896
12/15/2013  03:27:00        1.753        0.356        9.777        6.923        5.433        4.041       47.925       29.522       16.332        0.010        0.005        1.789        1.742        0.948      328.613       -5.175      874.883
12/15/2013  03:28:00      -15.383       -6.961       -3.470        8.275        5.689        8.558       68.483       32.360       73.239        0.024        0.009       16.885        5.961        0.125      328.376       -5.560      874.870
12/15/2013  03:29:00      -32.054      -23.688       -8.838       12.567       13.889        7.188      157.920      192.894       51.662        0.103        0.020       39.857        2.605        0.004      328.407       -5.510      874.859
12/15/2013  03:30:00      -30.337      -22.782       -4.808       11.262       11.906        7.905      126.833      141.759       62.494        0.090        0.017       37.939        7.889        0.043      328.398       -5.525      874.866
12/15/2013  03:31:00      -18.700       -5.282        0.773       12.085        6.823        8.397      146.039       46.551       70.504        0.032        0.013       19.432        4.886        0.063      328.284       -5.708      874.858
12/15/2013  03:32:00      -16.439       -4.047        0.902        9.006        4.898        3.393       81.101       23.991       11.510        0.020        0.006       16.930        2.085        0.015      328.272       -5.730      874.849
12/15/2013  03:33:00      -11.585       -1.219       -3.639        4.236        3.975        4.181       17.940       15.798       17.483        0.010        0.003       11.649        1.839        0.025      328.309       -5.669      874.837
12/15/2013  03:34:00      -12.881       -5.277        0.219        8.076        5.960        5.484       65.221       35.523       30.070        0.016        0.007       13.920        3.635        0.068      328.418       -5.493      874.827
12/15/2013  03:35:00      -10.745       -6.272       -1.548        4.899        5.046        3.048       23.996       25.461        9.288        0.011        0.003       12.441        2.331        0.035      328.396       -5.527      874.811
12/15/2013  03:36:00       -2.053        2.651        8.533        7.573       11.468        7.533       57.343      131.514       56.751        0.016        0.012        3.352        7.032        4.400      328.518       -5.330      874.803
12/15/2013  03:37:00      -13.004       -0.841        5.962        5.875        4.308        5.652       34.514       18.562       31.939        0.015        0.004       13.032        3.564        0.075      328.363       -5.580      874.797
12/15/2013  03:38:00       -8.325       -6.299        5.945        6.108        5.691        4.516       37.311       32.393       20.396        0.012        0.005       10.440        2.719        0.068      328.368       -5.572      874.793
12/15/2013  03:39:00      -25.576      -16.237       -4.268       16.425        8.389        6.738      269.797       70.367       45.406        0.066        0.019       30.295        6.617        0.048      328.348       -5.606      874.793
12/15/2013  03:40:00      -15.903      -10.453        7.120       16.729        8.504        9.290      279.857       72.310       86.305        0.043        0.022       19.030        9.233        0.235      328.187       -5.869      874.795
12/15/2013  03:41:00      -30.056       -9.115       -3.143       13.517        9.777       10.081      182.711       95.588      101.629        0.069        0.019       31.408        8.119        0.067      328.202       -5.844      874.788
12/15/2013  03:42:00      -37.810       -5.196       -2.103       10.065        9.969        5.528      101.306       99.389       30.562        0.085        0.012       38.165        4.889        0.016      328.270       -5.732      874.781
12/15/2013  03:43:00      -29.230      -15.224        0.371       16.264       14.811        8.576      264.529      219.352       73.551        0.082        0.028       32.957        6.723        0.042      328.336       -5.625      874.779
12/15/2013  03:44:00      -34.551       -3.911       -1.459       14.272       11.721        8.878      203.696      137.380       78.812        0.082        0.021       34.772        6.849        0.039      328.233       -5.793      874.781
12/15/2013  03:45:00      -48.288        2.609       -6.111       10.765        6.921        8.856      115.877       47.894       78.424        0.131        0.012       48.358        6.522        0.018      328.230       -5.798      874.772
12/15/2013  03:46:00      -30.843        5.144        1.607        9.563        7.428        6.679       91.454       55.173       44.614        0.059        0.010       31.269        4.941        0.025      328.254       -5.758      874.770
12/15/2013  03:47:00        3.806       17.059        4.696       13.998        9.422        8.258      195.937       88.767       68.203        0.034        0.018       17.479        4.303        0.061      328.327       -5.639      874.753
12/15/2013  03:48:00       29.285       18.129        6.901       12.427       16.739       11.496      154.432      280.182      132.166        0.090        0.028       34.443        8.949        0.068      328.473       -5.401      874.733
12/15/2013  03:49:00       29.720        5.478       10.096       15.172       10.887       11.157      230.194      118.527      124.488        0.074        0.024       30.221        7.876        0.068      328.467       -5.412      874.714
12/15/2013  03:50:00       37.109       14.642       10.141       14.759       10.426       10.242      217.819      108.702      104.902        0.106        0.022       39.893        5.250        0.017      328.522       -5.322      874.696
12/15/2013  03:51:00       22.828        0.688        8.138       21.355        9.843       12.903      456.044       96.882      166.490        0.065        0.036       22.838        9.041        0.157      328.554       -5.271      874.685
12/15/2013  03:52:00       23.523        4.165       12.459       18.274       10.158       12.122      333.943      103.186      146.949        0.065        0.029       23.889       12.701        0.283      328.523       -5.322      874.680
12/15/2013  03:53:00       35.103        9.847       12.097       15.591       14.970       10.342      243.075      224.091      106.966        0.102        0.029       36.458        8.232        0.051      328.508       -5.344      874.672
12/15/2013  03:54:00       27.484       22.808       22.246       12.766        8.264        7.982      162.978       68.289       63.708        0.103        0.015       35.715        4.243        0.014      328.462       -5.420      874.654
12/15/2013  03:55:00       35.720        6.261       12.135       19.456       12.917       12.319      378.534      166.860      151.755        0.108        0.035       36.264        9.734        0.072      328.498       -5.362      874.647
12/15/2013  03:56:00       23.449        6.837       10.646       14.155       11.493        7.941      200.364      132.099       63.065        0.055        0.020       24.425        5.491        0.051      328.525       -5.318      874.642
12/15/2013  03:57:00       17.076       14.045        2.514       10.962       12.004       10.603      120.168      144.088      112.415        0.044        0.019       22.110        8.256        0.139      328.529       -5.312      874.636
12/15/2013  03:58:00       24.412       19.011       10.632       10.912       10.540        7.457      119.073      111.082       55.609        0.068        0.014       30.941        8.144        0.069      328.443       -5.449      874.627
12/15/2013  03:59:00       34.227       18.402        4.680        8.368       10.113        6.450       70.029      102.264       41.599        0.087        0.011       38.860        4.339        0.012      328.457       -5.428      874.607
12/15/2013  04:00:00       19.072       14.021        1.727       11.324       11.265       11.202      128.235      126.897      125.479        0.047        0.019       23.672        7.259        0.094      328.410       -5.504      874.582
12/15/2013  04:01:00       11.798        7.441        3.053       11.893       14.060        8.378      141.453      197.694       70.195        0.031        0.020       13.949        5.961        0.183      328.391       -5.537      874.561
12/15/2013  04:02:00       13.258       14.789       -3.323       13.393       10.288       10.121      179.368      105.839      102.442        0.040        0.019       19.862        5.436        0.075      328.359       -5.587      874.549
12/15/2013  04:03:00        2.832       18.519        3.505        7.345       17.480        7.000       53.947      305.540       48.993        0.039        0.020       18.734        7.110        0.144      328.341       -5.618      874.534
12/15/2013  04:04:00        1.653       20.381       -2.717        8.273       10.553        5.759       68.448      111.361       33.167        0.032        0.011       20.448        2.196        0.012      328.339       -5.622      874.534
12/15/2013  04:05:00      -16.669        9.840        1.323       18.111       10.974        5.699      327.998      120.431       32.475        0.043        0.024       19.357        6.532        0.114      328.197       -5.855      874.533
12/15/2013  04:06:00      -33.957       -9.569       -6.144        7.528       10.155        5.555       56.667      103.134       30.860        0.074        0.010       35.280        4.431        0.016      327.916       -6.307      874.538
12/15/2013  04:07:00      -45.167      -17.723       -7.748       10.295        7.786        8.096      105.997       60.615       65.551        0.132        0.012       48.520        4.178        0.007      327.937       -6.275      874.522
12/15/2013  04:08:00      -47.290      -16.604       -6.494       11.147       10.859        7.962      124.254      117.918       63.392        0.143        0.015       50.120        3.532        0.005      327.906       -6.326      874.504
12/15/2013  04:09:00      -54.346       -9.085       -7.005        9.341        7.099        8.354       87.251       50.389       69.784        0.165        0.010       55.100        3.456        0.004      327.841       -6.433      874.483
12/15/2013  04:10:00      -80.569      -16.032      -11.874       11.873       10.749        8.654      140.975      115.539       74.892        0.361        0.017       82.149        3.816        0.002      327.753       -6.575      874.470
12/15/2013  04:11:00     -102.975        1.365      -12.140       29.145       15.019       15.469      849.434      225.583      239.303        0.603        0.066      102.984       14.468        0.020      327.673       -6.705      874.472
12/15/2013  04:12:00     -102.815      -10.051      -11.648       27.324       21.649       16.157      746.579      468.686      261.041        0.614        0.074      103.305       13.113        0.016      327.661       -6.725      874.469
12/15/2013  04:13:00      -85.002      -19.620      -10.481       20.254       20.251       14.289      410.234      410.096      204.169        0.437        0.051       87.237        9.966        0.013      327.684       -6.688      874.469
12/15/2013  04:14:00      -88.220      -21.572       -9.722       25.809       22.598       11.352      666.109      510.666      128.874        0.482        0.065       90.819        8.032        0.008      327.693       -6.671      874.461
12/15/2013  04:15:00      -87.765      -42.266      -12.243       21.450       21.412       12.502      460.120      458.489      156.295        0.536        0.054       97.413        7.730        0.006      327.710       -6.644      874.448
12/15/2013  04:16:00      -83.838       -9.422       -5.631       38.315       28.928       17.529     1468.060      836.818      307.281        0.488        0.131       84.366       14.698        0.030      327.801       -6.497      874.442
12/15/2013  04:17:00      -30.232      -11.103       11.132       24.498       20.743       18.064      600.147      430.281      326.306        0.126        0.068       32.207       13.861        0.185      327.870       -6.383      874.447
12/15/2013  04:18:00      -31.710        5.157        0.391       26.033       28.001       14.343      677.706      784.078      205.717        0.135        0.083       32.126       11.075        0.119      327.912       -6.315      874.445
12/15/2013  04:19:00      -47.907      -12.545       -7.208       18.375       18.323        8.270      337.657      335.721       68.395        0.162        0.037       49.522        8.265        0.028      327.890       -6.350      874.439
12/15/2013  04:20:00      -85.921      -20.714       -6.078       26.548       22.078       10.948      704.793      487.446      119.850        0.458        0.066       88.383        8.667        0.010      327.871       -6.383      874.437
12/15/2013  04:21:00      -77.757      -25.130       -6.656       22.951       20.575       16.409      526.750      423.322      269.250        0.397        0.061       81.717       13.896        0.029      327.792       -6.511      874.429
12/15/2013  04:22:00      -77.934      -11.139       -1.618       28.735       29.763       22.511      825.685      885.849      506.751        0.421        0.111       78.726       21.229        0.073      327.816       -6.473      874.417
12/15/2013  04:23:00      -66.560      -16.787        0.465       27.819       29.256       18.331      773.880      855.940      336.016        0.334        0.098       68.644       16.063        0.055      327.838       -6.436      874.399
12/15/2013  04:24:00      -48.414      -11.427        3.589       36.172       31.364       17.336     1308.397      983.701      300.523        0.254        0.130       49.744       14.913        0.090      327.838       -6.437      874.395
12/15/2013  04:25:00      -39.295        9.681       -5.151       42.224       28.650       21.751     1782.876      820.812      473.118        0.237        0.154       40.470       23.420        0.335      327.808       -6.486      874.402
12/15/2013  04:26:00      -51.520       -8.782        0.701       48.112       26.516       22.139     2314.741      703.120      490.145        0.312        0.175       52.263       26.547        0.258      327.835       -6.443      874.411
12/15/2013  04:27:00      -56.896       -1.425       -5.460       34.815       25.000       21.437     1212.056      624.978      459.565        0.278        0.115       56.913       22.897        0.162      327.769       -6.550      874.412
12/15/2013  04:28:00      -63.988        2.181       -7.708       47.215       26.647       20.003     2229.243      710.079      400.106        0.375        0.167       64.025       10.140        0.025      327.777       -6.537      874.417
12/15/2013  04:29:00      -86.146        5.456       -9.599       37.242       29.782       21.357     1386.985      886.955      456.136        0.514        0.137       86.319       16.637        0.037      327.775       -6.540      874.427
12/15/2013  04:30:00      -93.124        7.343      -11.068       31.978       27.850       18.374     1022.567      775.612      337.616        0.549        0.107       93.413       13.031        0.019      327.832       -6.447      874.430
12/15/2013  04:31:00      -86.168        6.794       -8.099       35.840       23.295       16.624     1284.491      542.635      276.365        0.482        0.105       86.435       13.851        0.026      327.858       -6.404      874.431
12/15/2013  04:32:00      -98.926       19.566       -8.169       41.181       29.761       20.302     1695.901      885.743      412.175        0.661        0.150      100.842       17.284        0.029      327.901       -6.334      874.426
12/15/2013  04:33:00     -147.377       29.621      -12.570       29.603       28.802       21.615      876.326      829.571      467.208        1.246        0.109      150.324       11.942        0.006      327.882       -6.364      874.417
12/15/2013  04:34:00     -143.432       20.550       -9.173       33.961       28.864       17.879     1153.378      833.124      319.657        1.169        0.115      144.897       13.912        0.009      327.842       -6.430      874.409
12/15/2013  04:35:00     -149.687       26.246      -13.159       46.328       31.307       18.152     2146.324      980.139      329.499        1.336        0.173      151.971       19.802        0.017      327.846       -6.423      874.399
12/15/2013  04:36:00     -140.162       32.894       -7.185       32.082       28.113       16.092     1029.237      790.352      258.966        1.143        0.104      143.970       10.537        0.005      327.885       -6.360      874.401
12/15/2013  04:37:00     -151.868       47.331      -15.947       29.348       23.411       15.354      861.278      548.069      235.745        1.360        0.082      159.072       14.624        0.008      327.939       -6.273      874.399
12/15/2013  04:38:00     -164.397       20.641      -14.411       21.452       24.217       14.001      460.181      586.466      196.036        1.445        0.062      165.688        7.966        0.002      328.000       -6.172      874.399
12/15/2013  04:39:00     -110.181       -0.255      -13.301       36.098       28.562       17.345     1303.057      815.786      300.846        0.737        0.121      110.181       11.858        0.012      327.886       -6.357      874.402
12/15/2013  04:40:00     -103.004       14.174       -9.486       29.169       23.690       19.306      850.819      561.217      372.721        0.634        0.089      103.975       13.671        0.017      327.936       -6.275      874.391
12/15/2013  04:41:00     -122.653      -10.516       -9.114       27.493       25.849       19.595      755.848      668.178      383.981        0.852        0.090      123.103       17.807        0.021      327.877       -6.371      874.388
12/15/2013  04:42:00      -73.169      -26.612       -0.452       38.095       28.947       20.314     1451.251      837.921      412.678        0.438        0.135       77.858       19.354        0.062      327.869       -6.384      874.401
12/15/2013  04:43:00      -85.555       -5.134        4.015       60.790       34.516       33.180     3695.374     1191.323     1100.916        0.667        0.299       85.709       37.232        0.189      327.905       -6.326      874.399
12/15/2013  04:44:00      -95.153      -15.475       -6.151       60.421       30.344       24.090     3650.663      920.787      580.332        0.724        0.258       96.403       29.725        0.095      327.833       -6.444      874.397
12/15/2013  04:45:00      -84.754      -33.025        4.439       41.941       33.793       24.723     1759.051     1141.990      611.216        0.590        0.176       90.961       20.061        0.049      327.771       -6.546      874.399
12/15/2013  04:46:00      -95.362      -34.938        3.989       39.127       30.967       25.115     1530.892      958.937      630.780        0.672        0.156      101.561       21.610        0.045      327.740       -6.597      874.403
12/15/2013  04:47:00      -78.361      -44.774       -2.489       37.025       42.939       28.731     1370.830     1843.742      825.495        0.609        0.202       90.250       16.035        0.032      327.727       -6.616      874.400
12/15/2013  04:48:00      -36.812      -12.481        6.839       37.116       33.396       21.395     1377.576     1115.272      457.767        0.225        0.148       38.870       12.819        0.109      327.726       -6.619      874.397
12/15/2013  04:49:00      -27.192       -0.690        3.182       33.708       28.199       20.613     1136.235      795.204      424.898        0.155        0.118       27.201       20.769        0.583      327.787       -6.520      874.391
12/15/2013  04:50:00      -60.819      -17.245        0.724       28.976       27.660       23.431      839.604      765.062      548.995        0.307        0.108       63.217       17.959        0.081      327.727       -6.618      874.393
12/15/2013  04:51:00      -60.558      -17.758       -4.532       37.965       25.074       16.877     1441.332      628.703      284.835        0.318        0.118       63.108        9.418        0.022      327.718       -6.632      874.399
12/15/2013  04:52:00      -83.968      -21.686      -12.013       21.168       14.844       11.977      448.102      220.341      143.457        0.424        0.041       86.723        7.984        0.008      327.719       -6.631      874.396
12/15/2013  04:53:00      -60.946      -24.792      -15.525       18.561       18.587       17.269      344.503      345.486      298.234        0.278        0.049       65.796        9.485        0.021      327.787       -6.520      874.390
12/15/2013  04:54:00      -70.367      -35.402       -7.793       16.613       17.956       17.802      275.988      322.435      316.909        0.359        0.046       78.771        8.589        0.012      327.838       -6.437      874.386
12/15/2013  04:55:00      -65.651      -26.883       -8.651       14.952       18.419       11.788      223.568      339.261      138.950        0.290        0.035       70.942        5.555        0.006      327.821       -6.465      874.390
12/15/2013  04:56:00      -66.431      -24.336       -7.599       11.312       13.583       12.350      127.954      184.493      152.525        0.276        0.023       70.748        5.975        0.007      327.870       -6.385      874.389
12/15/2013  04:57:00      -58.209      -34.568      -12.094       17.070       11.358        9.125      291.397      128.997       83.272        0.262        0.025       67.700        3.815        0.003      327.933       -6.281      874.379
12/15/2013  04:58:00      -66.488      -16.798       -5.726       16.890       16.712        9.443      285.286      279.289       89.167        0.269        0.033       68.577        6.627        0.009      327.918       -6.305      874.384
12/15/2013  04:59:00      -87.462       -6.999      -11.760       15.467       11.717       10.651      239.231      137.286      113.446        0.416        0.024       87.741        2.630        0.001      327.960       -6.236      874.398
12/15/2013  05:00:00      -77.501      -22.228      -12.616       14.188       20.137       12.223      201.295      405.500      149.394        0.371        0.038       80.625        6.027        0.006      327.922       -6.299      874.404
12/15/2013  05:01:00      -89.154      -26.631      -11.780       13.350       16.158       11.913      178.235      261.087      141.928        0.469        0.029       93.046        6.443        0.005      327.956       -6.244      874.413
12/15/2013  05:02:00      -85.044       -5.173      -14.310       18.255       17.346       16.272      333.230      300.887      264.774        0.418        0.045       85.201       11.655        0.019      327.920       -6.303      874.405
12/15/2013  05:03:00      -95.735      -10.799      -12.169       15.660       17.688       14.273      245.225      312.870      203.716        0.510        0.038       96.342        8.051        0.007      327.884       -6.362      874.398
12/15/2013  05:04:00     -109.783       -3.409      -10.130       17.816       19.386       16.774      317.396      375.827      281.372        0.657        0.049      109.836       12.201        0.012      327.874       -6.377      874.386
12/15/2013  05:05:00      -74.195      -20.293       -6.798       20.098       15.762       12.431      403.933      248.447      154.531        0.338        0.040       76.920        9.761        0.016      327.884       -6.361      874.386
12/15/2013  05:06:00     -102.366       -6.954      -14.212       16.871       17.865       13.623      284.646      319.161      185.573        0.576        0.039      102.602       10.108        0.010      327.918       -6.307      874.393
12/15/2013  05:07:00      -60.391      -13.174       -1.450       36.213       19.114       15.579     1311.397      365.355      242.695        0.287        0.096       61.811       17.756        0.083      327.946       -6.262      874.404
12/15/2013  05:08:00      -67.879       -9.238       -6.196       37.935       26.066       22.837     1439.059      679.427      521.509        0.369        0.132       68.505       19.503        0.081      327.970       -6.221      874.400
12/15/2013  05:09:00      -60.185       -8.875        2.336       38.868       22.235       18.044     1510.689      494.398      325.571        0.302        0.117       60.835       18.183        0.089      327.944       -6.262      874.398
12/15/2013  05:10:00      -55.283       -8.001       -5.175       32.646       21.874       14.582     1065.743      478.483      212.621        0.245        0.088       55.859       12.865        0.053      327.916       -6.309      874.396
12/15/2013  05:11:00      -71.113        1.363       -5.751       27.294       24.603       16.936      744.943      605.284      286.845        0.336        0.082       71.126       14.953        0.044      327.861       -6.400      874.405
12/15/2013  05:12:00      -64.720       -5.362       -6.265       22.479       16.749       13.385      505.295      280.534      179.153        0.261        0.048       64.942       12.383        0.036      327.864       -6.394      874.397
12/15/2013  05:13:00      -78.900       -0.883       -8.870       17.861        8.026       10.911      319.002       64.414      119.057        0.340        0.025       78.905        6.848        0.008      327.860       -6.402      874.392
12/15/2013  05:14:00      -45.587       -5.238       -5.722       15.851       10.786       11.705      251.242      116.334      136.999        0.132        0.025       45.887        9.114        0.039      327.880       -6.368      874.390
12/15/2013  05:15:00      -49.172      -12.339       -9.850        7.211        8.935        8.110       51.999       79.826       65.777        0.143        0.010       50.697        5.833        0.013      327.861       -6.399      874.382
12/15/2013  05:16:00      -51.520       -4.767      -10.524       11.494        8.977        7.019      132.123       80.594       49.272        0.152        0.013       51.741        6.066        0.014      327.804       -6.492      874.380
12/15/2013  05:17:00      -13.568      -14.452        0.899       10.286        7.541        9.258      105.796       56.864       85.704        0.032        0.012       19.823        5.363        0.073      327.838       -6.437      874.378
12/15/2013  05:18:00      -14.474       -2.945       -2.397        8.815        4.879        4.756       77.703       23.805       22.615        0.017        0.006       14.770        1.680        0.013      327.925       -6.295      874.363
12/15/2013  05:19:00       16.413       23.727        2.538       17.171       20.934       10.122      294.843      438.236      102.463        0.084        0.042       28.851       11.642        0.163      328.109       -5.995      874.353
12/15/2013  05:20:00       12.309       44.217       -0.699       12.910       19.488        9.740      166.681      379.797       94.873        0.137        0.032       45.898        7.556        0.027      328.048       -6.095      874.353
12/15/2013  05:21:00       23.133       21.210        0.949       17.426       17.377       13.264      303.668      301.952      175.935        0.088        0.039       31.385       11.223        0.128      328.024       -6.134      874.347
12/15/2013  05:22:00       32.161       10.194        5.150       14.145       10.905       13.750      200.086      118.928      189.058        0.084        0.025       33.738        8.922        0.070      328.052       -6.088      874.348
12/15/2013  05:23:00       21.904       10.823       -1.538       10.596        9.879        6.565      112.273       97.595       43.098        0.043        0.013       24.433        4.532        0.034      328.087       -6.030      874.348
12/15/2013  05:24:00        2.601       29.544       -2.241       10.130       16.144        8.611      102.609      260.637       74.149        0.066        0.022       29.658        8.742        0.087      328.126       -5.968      874.348
12/15/2013  05:25:00       10.177       50.719       -4.834        8.356        8.641        4.951       69.831       74.673       24.514        0.143        0.008       51.730        4.223        0.007      328.147       -5.934      874.335
12/15/2013  05:26:00       13.614       27.394        0.678       14.444       18.065        8.213      208.620      326.341       67.448        0.077        0.030       30.591       10.681        0.122      328.121       -5.977      874.331
12/15/2013  05:27:00       -2.687        4.832        2.224       14.151       13.415       11.198      200.242      179.957      125.398        0.027        0.025        5.529        8.881        2.580      328.043       -6.103      874.329
12/15/2013  05:28:00       11.580       17.891        5.006       18.252       11.517       10.403      333.151      132.634      108.224        0.053        0.029       21.312        4.336        0.041      328.136       -5.952      874.336
12/15/2013  05:29:00       15.002       13.642        2.765       11.958       11.941        9.207      142.998      142.589       84.770        0.039        0.019       20.277        6.856        0.114      328.188       -5.867      874.340
12/15/2013  05:30:00       16.007       15.504       -0.594       10.266        9.646        8.449      105.392       93.052       71.388        0.038        0.013       22.284        6.415        0.083      328.163       -5.907      874.342
12/15/2013  05:31:00       -1.154        5.857        7.221        9.956        7.567        7.278       99.124       57.259       52.973        0.015        0.010        5.969        5.891        0.974      328.130       -5.963      874.351
12/15/2013  05:32:00      -32.386       -6.360        3.257        8.073        8.771        7.263       65.173       76.925       52.748        0.065        0.010       33.005        4.972        0.023      327.877       -6.374      874.355
12/15/2013  05:33:00      -37.811      -14.133       -4.706        9.002        7.253        5.855       81.039       52.604       34.281        0.091        0.008       40.366        3.140        0.006      327.818       -6.471      874.360
12/15/2013  05:34:00      -59.435      -26.750       -5.611        8.209       10.562        5.873       67.380      111.563       34.493        0.225        0.011       65.177        0.738        0.000      327.812       -6.480      874.358
12/15/2013  05:35:00      -61.057      -25.296       -5.749        8.706       12.267        7.074       75.787      150.491       50.040        0.234        0.014       66.089        4.984        0.006      327.817       -6.472      874.359
12/15/2013  05:36:00      -65.829      -19.487       -6.752        8.477        8.751        7.186       71.855       76.582       51.641        0.248        0.010       68.653        2.857        0.002      327.804       -6.492      874.359
12/15/2013  05:37:00      -76.672      -11.233       -9.230        8.986        9.889        7.677       80.750       97.798       58.933        0.316        0.012       77.491        2.723        0.001      327.708       -6.647      874.370
12/15/2013  05:38:00      -55.110      -19.388        0.787       23.002       20.460       13.999      529.085      418.607      195.961        0.228        0.057       58.421       13.483        0.053      327.779       -6.534      874.369
12/15/2013  05:39:00      -67.491      -24.190        0.222       24.530       23.501       13.683      601.705      552.293      187.237        0.324        0.067       71.695       13.152        0.034      327.801       -6.496      874.367
12/15/2013  05:40:00      -12.858       -8.397        8.418       14.719       11.954        8.302      216.662      142.902       68.916        0.037        0.021       15.357        6.050        0.155      327.819       -6.469      874.361
12/15/2013  05:41:00      -21.785       -4.156        2.651       17.009       10.194       10.300      289.304      103.913      106.089        0.050        0.025       22.178       11.236        0.257      327.852       -6.415      874.351
12/15/2013  05:42:00      -22.990       -8.783        2.143       18.438        9.681        6.836      339.952       93.713       46.728        0.055        0.024       24.611        7.910        0.103      327.842       -6.431      874.342
12/15/2013  05:43:00      -21.390       -8.654       -7.284       13.730       10.444        6.172      188.513      109.071       38.099        0.046        0.017       23.074        3.982        0.030      327.847       -6.422      874.332
12/15/2013  05:44:00      -34.211        1.261       -2.230       11.526        6.629        5.318      132.845       43.943       28.280        0.069        0.010       34.234        2.269        0.004      327.849       -6.419      874.325
12/15/2013  05:45:00      -27.722       -8.635       -5.635       10.614        9.214        4.657      112.646       84.899       21.684        0.055        0.011       29.036        4.253        0.021      327.844       -6.428      874.321
12/15/2013  05:46:00      -54.268      -16.211       -3.880        9.142        9.748        8.808       83.570       95.029       77.586        0.174        0.013       56.637        3.683        0.004      327.814       -6.478      874.332
12/15/2013  05:47:00      -71.516      -25.109      -10.429       10.646        9.970        8.187      113.334       99.393       67.027        0.307        0.014       75.796        2.740        0.001      327.759       -6.568      874.339
12/15/2013  05:48:00      -75.192        1.692       -6.070       21.920       14.334       10.844      480.484      205.464      117.591        0.325        0.040       75.211        9.974        0.018      327.733       -6.607      874.340
12/15/2013  05:49:00      -79.723       -2.186       -7.016       23.260       11.283       12.553      541.025      127.316      157.566        0.362        0.041       79.753       13.014        0.027      327.726       -6.619      874.326
12/15/2013  05:50:00      -63.517       -5.462       -7.870       20.821       15.406       11.704      433.532      237.353      136.983        0.247        0.040       63.752       11.013        0.030      327.677       -6.700      874.303
12/15/2013  05:51:00      -46.449       -1.551       -1.237       25.113       11.060       11.068      630.639      122.314      122.498        0.152        0.044       46.475       11.049        0.057      327.550       -6.905      874.305
12/15/2013  05:52:00      -26.811        2.143       -1.860       13.826       11.194        8.360      191.155      125.313       69.891        0.056        0.019       26.897        8.083        0.090      327.555       -6.898      874.292
12/15/2013  05:53:00      -29.641        0.476       -3.577       19.576        6.250        4.001      383.204       39.058       16.008        0.066        0.022       29.645        5.859        0.039      327.608       -6.810      874.281
12/15/2013  05:54:00      -50.077       -1.298       -8.875        7.814        8.479        6.346       61.056       71.899       40.277        0.138        0.009       50.094        2.846        0.003      327.797       -6.504      874.262
12/15/2013  05:55:00      -53.751      -11.941       -8.496       11.123       10.707        6.411      123.721      114.629       41.100        0.169        0.014       55.061        2.755        0.003      327.718       -6.633      874.249
12/15/2013  05:56:00      -81.660       -9.595      -12.801       16.474       12.610        8.749      271.408      159.024       76.550        0.372        0.025       82.222        3.615        0.002      327.664       -6.719      874.234
12/15/2013  05:57:00      -90.949       -6.526      -10.491       16.290       13.017       10.250      265.353      169.442      105.059        0.448        0.027       91.183        7.383        0.007      327.562       -6.885      874.224
12/15/2013  05:58:00      -55.834        0.931       -9.281       21.238       11.614        8.608      451.037      134.876       74.099        0.193        0.033       55.842        6.398        0.013      327.555       -6.897      874.206
12/15/2013  05:59:00      -52.175        0.950       -6.968       12.185       10.895        9.153      148.480      118.691       83.781        0.156        0.018       52.183        7.287        0.019      327.519       -6.955      874.188
12/15/2013  06:00:00      -41.460       -7.878      -11.500        7.555       11.731        7.064       57.077      137.608       49.904        0.108        0.012       42.202        5.435        0.017      327.562       -6.886      874.165
12/15/2013  06:01:00      -43.533      -10.095       -7.517        7.385        6.495        5.885       54.538       42.188       34.637        0.109        0.007       44.688        2.688        0.004      327.573       -6.866      874.149
12/15/2013  06:02:00      -42.596      -12.286       -9.466        6.775       12.458        6.453       45.895      155.192       41.646        0.115        0.012       44.332        3.889        0.008      327.699       -6.663      874.127
12/15/2013  06:03:00      -47.247      -35.436      -10.623       13.507       11.009        9.896      182.435      121.195       97.928        0.200        0.020       59.060        7.284        0.015      327.766       -6.554      874.104
12/15/2013  06:04:00      -39.330      -28.157       -9.184       13.033       11.314       11.555      169.868      128.003      133.528        0.143        0.022       48.370        8.922        0.034      327.619       -6.794      874.087
12/15/2013  06:05:00      -27.236      -27.846       -6.562       14.489       14.411        8.191      209.936      207.679       67.090        0.102        0.024       38.951        8.832        0.051      327.763       -6.560      874.079
12/15/2013  06:06:00      -13.892      -22.156        2.506       16.160       16.591       10.881      261.140      275.263      118.400        0.067        0.033       26.151        8.441        0.104      327.601       -6.823      874.072
12/15/2013  06:07:00      -21.786      -24.866        0.165       19.757       12.269        9.289      390.357      150.532       86.284        0.086        0.031       33.060        9.249        0.078      327.603       -6.819      874.067
12/15/2013  06:08:00       -5.451      -16.707       -2.026       19.544       21.674       12.553      381.961      469.771      157.580        0.066        0.050       17.574       11.091        0.398      327.603       -6.820      874.064
12/15/2013  06:09:00      -36.613      -20.519       -3.734       16.652       12.049        8.367      277.303      145.186       70.009        0.113        0.025       41.971        4.573        0.012      327.585       -6.847      874.058
12/15/2013  06:10:00      -69.818      -12.788       -7.712       13.054        9.786        8.241      170.401       95.758       67.908        0.272        0.017       70.979        5.512        0.006      327.543       -6.917      874.054
12/15/2013  06:11:00      -86.621      -16.877      -12.145       13.738       14.201       12.056      188.733      201.665      145.336        0.424        0.027       88.250        6.197        0.005      327.443       -7.079      874.051
12/15/2013  06:12:00      -96.009       -6.601      -12.285       22.750       11.578       12.185      517.562      134.047      148.473        0.511        0.040       96.235       11.716        0.015      327.393       -7.159      874.052
12/15/2013  06:13:00      -94.512       -3.691      -13.861       13.673        9.435       12.601      186.957       89.017      158.792        0.479        0.022       94.584        7.955        0.007      327.396       -7.155      874.063
12/15/2013  06:14:00     -102.133       -7.015      -10.246       13.390       15.100       12.088      179.282      227.996      146.109        0.557        0.028      102.374        8.926        0.008      327.436       -7.091      874.059
12/15/2013  06:15:00      -96.134       -7.221      -10.372       15.093       12.175       12.417      227.792      148.228      154.185        0.497        0.027       96.405        9.780        0.010      327.471       -7.032      874.046
12/15/2013  06:16:00      -85.544       -7.202       -8.460       16.707       13.263        9.494      279.123      175.906       90.128        0.399        0.027       85.847        5.209        0.004      327.555       -6.898      874.027
12/15/2013  06:17:00      -92.861      -12.241       -7.980       12.037       12.661        7.507      144.886      160.309       56.353        0.460        0.018       93.665        4.485        0.002      327.531       -6.935      874.014
12/15/2013  06:18:00      -78.996      -18.396       -8.445       10.745       12.329        9.873      115.447      152.013       97.478        0.351        0.018       81.110        6.852        0.007      327.531       -6.936      873.994
12/15/2013  06:19:00      -77.704      -11.823       -9.686       11.517       13.728        7.707      132.652      188.468       59.402        0.333        0.019       78.599        5.033        0.004      327.534       -6.931      873.978
12/15/2013  06:20:00      -86.888       -6.842      -12.206       16.410       10.727       10.287      269.275      115.061      105.819        0.412        0.025       87.157        9.334        0.011      327.443       -7.079      873.959
12/15/2013  06:21:00      -76.321       -1.951      -14.489       16.119       10.608       11.534      259.827      112.523      133.038        0.327        0.025       76.346        6.829        0.008      327.442       -7.081      873.945
12/15/2013  06:22:00      -83.378        4.021       -5.585       24.550       15.361       16.046      602.717      235.947      257.471        0.405        0.055       83.475       12.283        0.022      327.417       -7.121      873.928
12/15/2013  06:23:00      -73.941        1.249      -14.613       14.596        9.925       12.195      213.055       98.502      148.714        0.307        0.023       73.951        7.244        0.010      327.455       -7.060      873.910
12/15/2013  06:24:00      -69.116       -7.651      -14.869       13.135       14.804       11.059      172.525      219.168      122.309        0.279        0.026       69.538        5.845        0.007      327.449       -7.069      873.902
12/15/2013  06:25:00      -69.026      -12.987      -15.082       17.377       15.028       11.828      301.950      225.838      139.913        0.291        0.033       70.237        8.340        0.014      327.389       -7.167      873.892
12/15/2013  06:26:00      -83.491      -13.772      -10.012       25.168       15.364       13.921      633.438      236.047      193.787        0.416        0.053       84.619        9.071        0.011      327.311       -7.295      873.895
12/15/2013  06:27:00      -80.827       -0.468      -16.595       15.239        9.012       10.088      232.241       81.212      101.764        0.361        0.021       80.828        3.919        0.002      327.313       -7.291      873.896
12/15/2013  06:28:00      -77.516      -21.883       -7.003       17.811       22.155       15.183      317.245      490.838      230.534        0.379        0.052       80.546       11.048        0.019      327.382       -7.177      873.898
12/15/2013  06:29:00      -68.233      -14.133       -8.522       13.046       16.230       11.250      170.203      263.414      126.569        0.274        0.028       69.681        8.734        0.016      327.343       -7.243      873.900
12/15/2013  06:30:00      -58.493      -10.116       -8.143       20.166       17.922       13.665      406.669      321.196      186.743        0.225        0.046       59.361       10.937        0.034      327.348       -7.235      873.896
12/15/2013  06:31:00      -50.337      -17.505      -16.112       12.560       14.148       10.105      157.745      200.176      102.112        0.178        0.023       53.293        3.196        0.004      327.437       -7.090      873.895
12/15/2013  06:32:00      -45.749      -22.145       -8.116       11.776       21.086        7.677      138.669      444.634       58.938        0.165        0.032       50.827        6.656        0.017      327.713       -6.639      873.887
12/15/2013  06:33:00      -47.681      -11.888       -6.989       12.028       11.459       11.168      144.666      131.310      124.729        0.143        0.020       49.140        7.259        0.022      327.685       -6.686      873.886
12/15/2013  06:34:00      -31.995      -18.136       -7.663       15.821        9.607        7.262      250.310       92.300       52.735        0.090        0.020       36.778        3.804        0.011      327.697       -6.666      873.888
12/15/2013  06:35:00      -48.631      -18.306       -4.485       21.156       15.940       10.850      447.558      254.100      117.728        0.177        0.041       51.962        8.062        0.024      327.631       -6.774      873.888
12/15/2013  06:36:00      -78.973      -12.311      -10.343       12.245       13.310       10.492      149.931      177.162      110.092        0.347        0.022       79.927        7.353        0.008      327.487       -7.007      873.889
12/15/2013  06:37:00      -91.430       -9.960       -8.556       16.685       13.232       11.843      278.385      175.081      140.264        0.456        0.030       91.971        7.250        0.006      327.409       -7.133      873.899
12/15/2013  06:38:00      -87.081      -11.046       -7.015       18.554       14.917       13.629      344.233      222.519      185.760        0.425        0.038       87.779       10.701        0.015      327.420       -7.117      873.913
12/15/2013  06:39:00      -81.129      -17.962      -10.086       10.729        9.966        6.210      115.119       99.329       38.564        0.363        0.013       83.094        4.845        0.003      327.401       -7.147      873.924
12/15/2013  06:40:00      -64.412      -27.085       -7.126       16.727       13.965        9.864      279.805      195.018       97.289        0.275        0.029       69.875        8.598        0.015      327.499       -6.988      873.932
12/15/2013  06:41:00      -75.207      -22.522       -7.553        9.920       12.963        7.942       98.406      168.031       63.080        0.327        0.016       78.507        4.819        0.004      327.463       -7.045      873.942
12/15/2013  06:42:00      -85.418      -12.503      -10.522       19.816       12.818       11.741      392.688      164.301      137.858        0.413        0.035       86.329        8.922        0.011      327.431       -7.099      873.948
12/15/2013  06:43:00      -95.401       -5.535      -11.233       19.583       10.624       11.558      383.496      112.878      133.586        0.494        0.031       95.562        4.545        0.002      327.378       -7.184      873.957
12/15/2013  06:44:00      -84.286       -5.946      -11.964       16.792       11.078       11.280      281.982      122.719      127.245        0.391        0.027       84.495        5.812        0.005      327.382       -7.177      873.970
12/15/2013  06:45:00      -86.834       -9.830       -7.730       15.285       13.464       12.112      233.616      181.266      146.696        0.413        0.028       87.389       11.611        0.018      327.351       -7.229      873.979
12/15/2013  06:46:00      -76.129       -8.501      -10.231       16.045       11.537       11.922      257.442      133.102      142.145        0.325        0.027       76.602        6.360        0.007      327.387       -7.171      873.983
12/15/2013  06:47:00      -69.486       -7.857      -11.577       15.168       11.540       10.565      230.062      133.181      111.617        0.275        0.024       69.929        6.429        0.008      327.398       -7.152      873.988
12/15/2013  06:48:00      -59.930      -16.101       -8.590       14.327       14.512       10.550      205.260      210.590      111.294        0.223        0.026       62.055        3.583        0.003      327.388       -7.168      873.983
12/15/2013  06:49:00      -51.975      -11.357       -2.663       11.868       12.767       10.604      140.844      162.988      112.444        0.163        0.021       53.201        4.872        0.008      327.430       -7.101      873.976
12/15/2013  06:50:00      -38.728       -9.314       -5.821        7.747       12.151        8.676       60.014      147.653       75.274        0.095        0.014       39.832        6.401        0.026      327.456       -7.058      873.968
12/15/2013  06:51:00      -57.094       -5.089      -10.900       18.676        9.956        7.097      348.776       99.125       50.364        0.195        0.025       57.320        2.938        0.003      327.421       -7.115      873.951
12/15/2013  06:52:00      -47.508      -10.388       -6.342        8.955        7.201        5.586       80.200       51.855       31.201        0.128        0.008       48.631        4.021        0.007      327.445       -7.076      873.940
12/15/2013  06:53:00      -40.344       -9.921       -6.322       11.610        8.633        9.607      134.789       74.528       92.301        0.103        0.015       41.546        7.656        0.034      327.448       -7.070      873.934
12/15/2013  06:54:00      -49.087      -10.246       -5.511       10.011       10.091        7.674      100.227      101.823       58.888        0.140        0.013       50.145        5.959        0.014      327.417       -7.121      873.942
12/15/2013  06:55:00      -49.939       -7.514      -11.308       11.217       11.711        9.234      125.815      137.154       85.270        0.151        0.017       50.501        4.003        0.006      327.415       -7.124      873.958
12/15/2013  06:56:00      -58.756       -7.455      -10.758        8.637        8.080        8.395       74.597       65.292       70.481        0.192        0.011       59.227        2.377        0.002      327.390       -7.166      873.969
12/15/2013  06:57:00      -48.819      -11.324       -6.720        9.086        7.828        9.405       82.557       61.285       88.459        0.139        0.012       50.115        6.740        0.018      327.401       -7.147      873.977
12/15/2013  06:58:00      -37.926      -17.028       -7.048       14.252       11.608       11.906      203.128      134.734      141.757        0.113        0.024       41.573        3.979        0.009      327.403       -7.143      873.980
12/15/2013  06:59:00      -41.975      -12.113       -2.634        9.594       11.227        7.252       92.047      126.056       52.598        0.109        0.014       43.688        5.796        0.018      327.372       -7.195      873.985
12/15/2013  07:00:00      -51.059      -14.278       -2.173        8.255       10.249        8.084       68.142      105.037       65.349        0.153        0.012       53.017        5.053        0.009      327.396       -7.155      873.993
12/15/2013  07:01:00      -62.206       -1.515       -3.148       10.847        9.733        6.895      117.660       94.738       47.546        0.207        0.013       62.225        6.168        0.010      327.408       -7.136      874.005
12/15/2013  07:02:00      -62.727      -10.135       -9.479       14.057       11.756       11.533      197.604      138.204      133.005        0.230        0.023       63.541        7.316        0.013      327.350       -7.229      874.005
12/15/2013  07:03:00      -64.857      -11.567      -14.658       12.297       11.247        8.124      151.213      126.493       65.999        0.245        0.017       65.881        5.807        0.008      327.375       -7.191      874.011
12/15/2013  07:04:00      -73.069       -8.812       -9.710       11.958       11.223        8.199      142.984      125.959       67.222        0.292        0.017       73.599        3.867        0.003      327.315       -7.287      874.003
12/15/2013  07:05:00      -85.193      -11.355      -12.352       13.320       10.908       10.520      177.420      118.983      110.671        0.397        0.020       85.946        6.069        0.005      327.317       -7.284      873.989
12/15/2013  07:06:00      -70.328       -7.082      -10.783       17.723       11.584       13.103      314.092      134.193      171.679        0.287        0.031       70.683       12.102        0.029      327.254       -7.387      873.974
12/15/2013  07:07:00      -80.328       -9.234      -11.281       11.033       11.555        8.170      121.736      133.525       66.755        0.349        0.016       80.857        2.752        0.001      327.270       -7.360      873.969
12/15/2013  07:08:00      -94.641       -3.845      -12.922       18.136       11.769       10.898      328.926      138.513      118.762        0.486        0.029       94.719        8.233        0.008      327.270       -7.362      873.971
12/15/2013  07:09:00      -90.152      -11.504       -9.370       31.008       15.589       12.950      961.525      243.012      167.694        0.486        0.069       90.883        9.423        0.011      327.214       -7.452      873.969
12/15/2013  07:10:00     -104.484      -13.066       -5.231       30.216       24.624       16.150      912.987      606.363      260.829        0.645        0.089      105.297       13.582        0.017      327.217       -7.446      873.972
12/15/2013  07:11:00     -117.953      -16.181      -15.264       24.177       22.040       16.359      584.543      485.742      267.606        0.787        0.067      119.058        8.509        0.005      327.134       -7.582      873.970
12/15/2013  07:12:00     -135.271      -14.854       -9.401       32.782       22.225       19.436     1074.691      493.960      377.750        1.028        0.097      136.084       13.000        0.009      327.151       -7.553      873.970
12/15/2013  07:13:00     -113.814      -22.108      -10.036       29.262       17.123       18.718      856.274      293.205      350.370        0.752        0.075      115.941       15.100        0.017      327.157       -7.543      873.965
12/15/2013  07:14:00     -107.405      -16.148      -14.472       20.313       19.636       14.453      412.628      385.584      208.901        0.651        0.050      108.612        8.585        0.006      327.166       -7.529      873.961
12/15/2013  07:15:00     -101.734      -13.293       -4.060       21.759       17.561       16.903      473.457      308.389      285.710        0.581        0.053      102.599       13.497        0.017      327.196       -7.480      873.964
12/15/2013  07:16:00     -108.648       -9.400      -13.431       16.237       15.234       12.111      263.649      232.064      146.684        0.636        0.032      109.054        7.154        0.004      327.216       -7.448      873.956
12/15/2013  07:17:00     -119.301       -3.048      -14.360       24.254       17.296       14.697      588.247      299.158      216.006        0.778        0.055      119.340       13.883        0.014      327.258       -7.380      873.935
12/15/2013  07:18:00     -116.908       -9.725       -9.200       32.320       27.062       20.945     1044.583      732.341      438.684        0.803        0.111      117.312       17.774        0.023      327.321       -7.277      873.914
12/15/2013  07:19:00      -88.973      -11.197       -4.469       37.547       24.694       19.104     1409.763      609.781      364.980        0.522        0.119       89.675       20.381        0.052      327.330       -7.262      873.902
12/15/2013  07:20:00      -73.249       -2.308        0.525       40.090       25.205       19.941     1607.234      635.297      397.631        0.401        0.132       73.286       17.196        0.055      327.330       -7.261      873.902
12/15/2013  07:21:00      -99.831        6.844       -2.188       47.335       32.349       22.022     2240.561     1046.474      484.984        0.689        0.189      100.066       23.111        0.053      327.302       -7.308      873.910
12/15/2013  07:22:00     -136.772        5.960      -13.731       32.546       24.432       19.119     1059.220      596.911      365.534        1.048        0.101      136.902       13.369        0.010      327.312       -7.292      873.931
12/15/2013  07:23:00     -110.909        0.336       -8.763       31.612       15.721       17.775      999.316      247.158      315.958        0.697        0.078      110.909       13.525        0.015      327.246       -7.399      873.947
12/15/2013  07:24:00      -79.957       -3.894       -6.904       31.171       16.807       13.390      971.616      282.478      179.303        0.394        0.072       80.052        9.532        0.014      327.307       -7.300      873.947
12/15/2013  07:25:00      -71.614       -8.008       -3.628       13.925       11.496        9.396      193.903      132.152       88.293        0.281        0.021       72.061        3.154        0.002      327.368       -7.201      873.957
12/15/2013  07:26:00      -40.601      -15.924        0.610       10.193        8.125        6.238      103.899       66.019       38.911        0.106        0.010       43.612        3.299        0.006      327.427       -7.106      873.949
12/15/2013  07:27:00      -20.344      -14.395       -7.907       19.381        9.668        6.973      375.627       93.463       48.619        0.060        0.026       24.921        7.394        0.088      327.563       -6.883      873.947
12/15/2013  07:28:00      -10.084       -6.213       -8.988       13.240        5.904        5.841      175.300       34.862       34.117        0.023        0.012       11.845        7.328        0.383      327.672       -6.706      873.950
12/15/2013  07:29:00       -1.580        1.121        8.314        5.741        3.947        4.115       32.957       15.577       16.933        0.007        0.003        1.938        2.507        1.674      327.836       -6.440      873.954
12/15/2013  07:30:00       -7.102        0.946        0.802        5.168        4.650        2.808       26.713       21.625        7.883        0.005        0.003        7.165        1.067        0.022      327.852       -6.413      873.967
12/15/2013  07:31:00      -11.016       -1.524       -2.501        6.063        6.664        6.203       36.758       44.414       38.481        0.012        0.006       11.121        4.409        0.157      327.878       -6.372      873.983
12/15/2013  07:32:00       -7.544      -16.159       11.293       13.085        9.733       10.165      171.211       94.723      103.332        0.041        0.018       17.833        8.838        0.246      327.733       -6.608      874.001
12/15/2013  07:33:00      -24.039       -9.675       -2.102       11.276        7.574        6.431      127.159       57.370       41.352        0.045        0.011       25.913        4.014        0.024      327.635       -6.768      874.020
12/15/2013  07:34:00       -8.698      -17.379        0.262        8.106       10.822        6.318       65.701      117.126       39.920        0.030        0.011       19.435        5.515        0.081      327.870       -6.384      874.032
12/15/2013  07:35:00       -3.002       -0.950        6.102        6.583        5.673        8.201       43.331       32.184       67.252        0.009        0.007        3.148        4.145        1.734      328.047       -6.097      874.041
12/15/2013  07:36:00       -0.989       -9.278       14.227        9.244       12.372        9.532       85.460      153.063       90.857        0.031        0.016        9.330        7.285        0.610      328.202       -5.845      874.043
12/15/2013  07:37:00       -8.345      -15.833        8.122       15.033       12.391        7.898      225.990      153.527       62.378        0.041        0.022       17.898        6.807        0.145      328.032       -6.121      874.045
12/15/2013  07:38:00      -20.177       -4.648       -0.112       10.408        7.214        2.920      108.324       52.037        8.526        0.030        0.008       20.706        3.031        0.021      327.833       -6.446      874.046
12/15/2013  07:39:00       -5.535       -0.683       12.620        7.157        7.070        5.059       51.220       49.991       25.594        0.016        0.006        5.577        1.974        0.125      328.168       -5.898      874.057
12/15/2013  07:40:00       -7.873       10.820       13.512        5.437        6.629        6.229       29.558       43.949       38.806        0.024        0.006       13.381        4.054        0.092      328.112       -5.990      874.068
12/15/2013  07:41:00      -21.929       -0.556        5.446        6.269        5.771        7.400       39.295       33.310       54.765        0.032        0.006       21.936        6.137        0.078      327.910       -6.322      874.089
12/15/2013  07:42:00      -31.199      -10.388        0.844        6.093        6.496        6.343       37.119       42.195       40.237        0.060        0.006       32.883        4.053        0.015      327.886       -6.359      874.105
12/15/2013  07:43:00      -29.030      -12.844       -4.168        6.088        6.535        5.586       37.069       42.712       31.209        0.057        0.006       31.745        3.161        0.010      327.864       -6.393      874.117
12/15/2013  07:44:00      -38.719       -3.004       -0.549        8.781        6.342        6.134       77.104       40.223       37.623        0.083        0.008       38.835        2.224        0.003      327.823       -6.460      874.131
12/15/2013  07:45:00      -45.364       -6.054       -6.221        7.223        7.789        6.152       52.177       60.675       37.846        0.114        0.008       45.766        2.101        0.002      327.825       -6.458      874.133
12/15/2013  07:46:00      -37.302       -1.704       -5.204       10.162        7.543        5.562      103.272       56.897       30.937        0.081        0.010       37.341        5.234        0.020      327.858       -6.404      874.148
12/15/2013  07:47:00      -18.096        0.501        2.824       15.203        3.890       10.046      231.117       15.133      100.929        0.034        0.017       18.103       10.617        0.344      328.092       -6.022      874.158
12/15/2013  07:48:00       -3.810        2.814       14.403        4.838        5.762        6.343       23.402       33.196       40.238        0.016        0.005        4.737        4.288        0.820      328.395       -5.530      874.179
12/15/2013  07:49:00       -5.050       10.175        5.510       11.342       11.004        7.829      128.635      121.082       61.299        0.024        0.016       11.360        8.126        0.512      328.234       -5.791      874.186
12/15/2013  07:50:00      -17.292       14.941       11.546       12.020       13.137        9.592      144.473      172.589       92.003        0.053        0.020       22.853        9.626        0.177      328.197       -5.852      874.204
12/15/2013  07:51:00      -18.650       10.650       16.173       11.816       11.874        8.497      139.629      140.983       72.194        0.054        0.018       21.477        7.559        0.124      328.187       -5.867      874.210
12/15/2013  07:52:00      -15.678        6.058        9.463       11.259        8.892        8.702      126.758       79.062       75.721        0.033        0.014       16.808        4.496        0.072      328.107       -5.999      874.222
12/15/2013  07:53:00      -29.198        6.186        3.603        6.939        6.486        4.789       48.154       42.072       22.933        0.051        0.006       29.846        2.432        0.007      328.004       -6.166      874.232
12/15/2013  07:54:00        8.929        9.807        6.214       25.506       12.850        9.106      650.531      165.120       82.912        0.056        0.045       13.263        9.131        0.474      328.130       -5.962      874.246
12/15/2013  07:55:00       73.607       41.122        2.557       20.582       16.658       15.226      423.602      277.491      231.831        0.402        0.047       84.315        8.786        0.011      328.011       -6.156      874.269
12/15/2013  07:56:00       95.256       63.983       12.086       20.723       22.868       21.211      429.422      522.931      449.912        0.736        0.070      114.750       12.055        0.011      327.947       -6.257      874.282
12/15/2013  07:57:00      101.784       45.440        8.571       37.972       27.546       19.234     1441.837      758.758      369.960        0.753        0.129      111.467       17.004        0.023      327.940       -6.269      874.303
12/15/2013  07:58:00       60.935       53.812        9.999       29.641       23.161       22.814      878.605      536.427      520.473        0.432        0.097       81.295       17.737        0.048      327.960       -6.237      874.314
12/15/2013  07:59:00       72.723       56.877       29.017       23.119       28.176       30.976      534.479      793.910      959.483        0.583        0.114       92.323       14.779        0.026      327.942       -6.267      874.321
12/15/2013  08:00:00       57.195       44.207       26.769       26.608       26.528       23.405      708.008      703.742      547.799        0.395        0.098       72.288       14.951        0.043      327.938       -6.273      874.322
12/15/2013  08:01:00       96.733       64.918       34.791       35.299       24.468       31.036     1246.044      598.672      963.206        0.879        0.140      116.497       20.813        0.032      327.955       -6.245      874.340
12/15/2013  08:02:00       80.595       33.069       15.476       34.601       27.568       25.299     1197.228      760.010      640.022        0.521        0.130       87.116       18.779        0.046      327.954       -6.246      874.355
12/15/2013  08:03:00       86.600       64.909        9.122       27.055       24.349       21.001      731.992      592.859      441.023        0.678        0.088      108.226       14.304        0.017      327.922       -6.299      874.358
12/15/2013  08:04:00      107.162       59.890       11.693       30.107       26.640       24.935      906.448      709.682      621.762        0.872        0.112      122.762       15.486        0.016      327.901       -6.333      874.354
12/15/2013  08:05:00      115.786       69.118        9.753       29.697       20.862       21.784      881.908      435.222      474.536        1.003        0.090      134.847       18.907        0.020      327.870       -6.385      874.357
12/15/2013  08:06:00       99.392       79.139       13.764       20.270       20.065       22.507      410.892      402.594      506.586        0.883        0.066      127.051       14.052        0.012      327.892       -6.349      874.359
12/15/2013  08:07:00      107.356       71.603        2.663       27.341       21.365       23.212      747.544      456.448      538.813        0.920        0.087      129.044        9.031        0.005      327.950       -6.254      874.350
12/15/2013  08:08:00       96.303       63.770        1.872       24.296       25.395       25.476      590.280      644.894      649.042        0.761        0.094      115.503        4.388        0.001      327.912       -6.317      874.346
12/15/2013  08:09:00       92.742       61.480        2.130       33.529       20.341       24.963     1124.209      413.769      623.172        0.727        0.108      111.269       18.410        0.027      327.946       -6.260      874.355
12/15/2013  08:10:00       97.212       69.329       12.998       25.355       23.978       22.523      642.851      574.938      507.287        0.807        0.086      119.401       17.157        0.021      327.947       -6.258      874.366
12/15/2013  08:11:00       84.474       65.325       10.658       21.837       23.596       26.682      476.870      556.780      711.914        0.663        0.087      106.786       10.630        0.010      327.823       -6.460      874.376
12/15/2013  08:12:00       69.592       79.000       41.524       42.221       23.327       31.027     1782.576      544.138      962.653        0.805        0.164      105.281       25.444        0.058      327.847       -6.422      874.387
12/15/2013  08:13:00       67.466       69.782       46.885       40.913       26.210       31.971     1673.912      686.958     1022.123        0.750        0.169       97.063       20.868        0.046      328.040       -6.108      874.398
12/15/2013  08:14:00       50.202       76.660       64.570       35.679       19.849       18.868     1272.961      393.968      355.997        0.729        0.101       91.635       14.640        0.026      328.029       -6.125      874.421
12/15/2013  08:15:00       65.562       80.028       47.045       43.558       31.037       30.318     1897.342      963.313      919.157        0.835        0.189      103.455       23.299        0.051      327.976       -6.213      874.427
12/15/2013  08:16:00       54.385       65.951       48.541       24.338       16.109       26.093      592.317      259.499      680.827        0.560        0.077       85.482       14.573        0.029      327.923       -6.298      874.439
12/15/2013  08:17:00       52.952       60.543       48.563       18.914       16.325       17.633      357.726      266.505      310.939        0.488        0.047       80.432       11.013        0.019      327.983       -6.200      874.452
12/15/2013  08:18:00       42.488       37.086       15.731       28.446       16.974       27.399      809.158      288.133      750.705        0.264        0.092       56.397       18.246        0.105      328.008       -6.161      874.441
12/15/2013  08:19:00       52.470       42.991       22.598       21.891       20.558       23.552      479.197      422.643      554.710        0.328        0.073       67.833       13.015        0.037      328.007       -6.161      874.432
12/15/2013  08:20:00       19.400       46.482       43.762       18.669       22.191       18.214      348.520      492.451      331.758        0.281        0.059       50.368        8.134        0.026      328.156       -5.918      874.434
12/15/2013  08:21:00       27.168       12.725       26.157       37.804       19.168       16.559     1429.110      367.410      274.212        0.183        0.104       30.000        9.861        0.108      328.271       -5.731      874.443
12/15/2013  08:22:00       -4.809       16.812       36.311        8.011       14.584        8.045       64.182      212.693       64.720        0.098        0.017       17.486        7.731        0.195      328.557       -5.264      874.467
12/15/2013  08:23:00        2.706       23.807       32.568       11.131       16.534       10.773      123.906      273.389      116.052        0.107        0.026       23.960        7.729        0.104      328.584       -5.221      874.493
12/15/2013  08:24:00       28.065       35.775        6.935       21.073       17.218       15.332      444.086      296.476      235.068        0.155        0.049       45.470       12.599        0.077      328.356       -5.593      874.497
12/15/2013  08:25:00       13.484       51.467        2.437       21.474       27.206       24.241      461.152      740.187      587.636        0.231        0.089       53.204       19.881        0.140      328.332       -5.631      874.500
12/15/2013  08:26:00       49.858       57.183       -1.381       23.564       19.461       19.463      555.269      378.738      378.793        0.353        0.066       75.866       12.910        0.029      328.268       -5.736      874.506
12/15/2013  08:27:00       41.026       52.680       20.963       38.971       21.439       21.883     1518.705      459.641      478.876        0.368        0.123       66.771       22.994        0.119      328.335       -5.627      874.517
12/15/2013  08:28:00       38.703       57.407       13.160       29.335       24.863       27.099      860.545      618.189      734.351        0.359        0.111       69.235       25.043        0.131      328.277       -5.722      874.541
12/15/2013  08:29:00       13.936       18.132       11.075       24.068       28.602       20.870      579.291      818.092      435.578        0.124        0.092       22.869       18.755        0.673      328.581       -5.224      874.564
12/15/2013  08:30:00       13.113       16.514       12.999       15.948       23.812       12.234      254.344      566.993      149.681        0.079        0.049       21.087       10.013        0.225      328.669       -5.083      874.582
12/15/2013  08:31:00       12.325       34.971       37.690       18.454       17.875       13.794      340.534      319.526      190.273        0.182        0.043       37.080       10.795        0.085      328.606       -5.185      874.587
12/15/2013  08:32:00       20.892       28.179       33.564       19.893       20.999       15.707      395.744      440.954      246.724        0.172        0.054       35.079       12.972        0.137      328.527       -5.315      874.594
12/15/2013  08:33:00       -5.869       21.142       38.651       12.456       16.862       16.160      155.146      284.313      261.135        0.134        0.035       21.942       12.758        0.338      328.789       -4.888      874.581
12/15/2013  08:34:00        4.983       29.235       30.982       13.087       17.060       15.788      171.278      291.047      249.253        0.128        0.036       29.656       12.907        0.189      328.688       -5.052      874.573
12/15/2013  08:35:00      -16.161       21.520       20.224       14.932       20.751       20.255      222.966      430.605      410.278        0.110        0.053       26.913       11.480        0.182      328.757       -4.939      874.572
12/15/2013  08:36:00       49.294       47.290        1.617       34.113       23.852       21.677     1163.663      568.938      469.888        0.344        0.110       68.310       18.955        0.077      328.721       -4.997      874.567
12/15/2013  08:37:00       58.946       39.542        3.625       21.920       14.893       18.490      480.467      221.794      341.885        0.305        0.052       70.981        6.779        0.009      328.586       -5.218      874.575
12/15/2013  08:38:00       33.075       51.857       -7.061       22.048       19.261       17.814      486.124      370.972      317.343        0.250        0.059       61.508       11.683        0.036      328.691       -5.046      874.587
12/15/2013  08:39:00       32.237       56.965       -8.236       20.196       22.893       25.904      407.892      524.083      671.030        0.298        0.080       65.454       17.444        0.071      328.672       -5.077      874.592
12/15/2013  08:40:00       32.991       35.068       15.735       18.183       18.281       19.339      330.604      334.185      374.000        0.180        0.052       48.147        7.720        0.026      328.729       -4.983      874.602
12/15/2013  08:41:00        4.139       21.491       12.965       15.895       17.612       13.693      252.642      310.167      187.512        0.070        0.038       21.886       11.283        0.266      328.843       -4.798      874.595
12/15/2013  08:42:00       -9.215        6.839       31.698       10.597       11.758       10.481      112.303      138.242      109.855        0.075        0.018       11.476        7.683        0.448      329.171       -4.263      874.591
12/15/2013  08:43:00       10.629       15.778       39.850       20.456       18.260        7.315      418.429      333.444       53.514        0.138        0.040       19.024       10.646        0.313      329.006       -4.533      874.591
12/15/2013  08:44:00       40.671       45.609        9.633       21.649       13.072       21.586      468.693      170.886      465.951        0.247        0.055       61.109        9.163        0.022      328.705       -5.024      874.599
12/15/2013  08:45:00       26.980       42.557       33.662       23.983       20.782       19.409      575.185      431.889      376.704        0.253        0.069       50.389       15.402        0.093      328.852       -4.783      874.613
12/15/2013  08:46:00       23.621       38.494       24.239       14.763       12.332       18.288      217.943      152.073      334.440        0.167        0.035       45.163        6.543        0.021      328.911       -4.688      874.641
12/15/2013  08:47:00       10.446       21.275       13.182       11.084       19.203       15.614      122.852      368.742      243.793        0.074        0.037       23.701        6.636        0.078      328.955       -4.616      874.649
12/15/2013  08:48:00        3.859       18.540       11.389       12.734       17.952       12.708      162.164      322.257      161.499        0.057        0.032       18.937       11.565        0.373      329.218       -4.187      874.646
12/15/2013  08:49:00       16.875       27.443       17.727       17.804       13.479       15.133      316.991      181.679      229.003        0.104        0.036       32.216        8.019        0.062      329.258       -4.121      874.635
12/15/2013  08:50:00       28.339       34.663        8.706       20.847       13.618       15.912      434.615      185.454      253.187        0.148        0.044       44.773        6.467        0.021      329.140       -4.314      874.620
12/15/2013  08:51:00        8.831       15.549       23.228       16.245       12.385        9.838      263.896      153.378       96.781        0.069        0.026       17.882        6.471        0.131      329.628       -3.516      874.613
12/15/2013  08:52:00      -10.182       23.906       13.327       13.075       19.541       15.421      170.955      381.850      237.793        0.082        0.040       25.984       14.247        0.301      329.506       -3.716      874.621
12/15/2013  08:53:00        9.602       19.627       12.035       16.996       18.579       16.387      288.873      345.166      268.535        0.076        0.045       21.850       14.200        0.422      329.513       -3.702      874.628
12/15/2013  08:54:00       -2.309       14.996        5.916       16.153       15.497       11.839      260.905      240.155      140.154        0.045        0.032       15.173        4.927        0.105      329.320       -4.019      874.626
12/15/2013  08:55:00      -42.158      -20.552       -7.447       14.278       13.060        7.039      203.860      170.555       49.549        0.134        0.021       46.900        3.028        0.004      329.096       -4.386      874.616
12/15/2013  08:56:00      -18.685      -21.729        3.602       19.274       15.597       13.683      371.487      243.263      187.232        0.082        0.040       28.658        9.373        0.107      329.313       -4.030      874.612
12/15/2013  08:57:00      -39.958      -18.641       -0.669       30.216       10.742       10.619      913.013      115.390      112.755        0.154        0.057       44.092       12.290        0.078      329.211       -4.198      874.619
12/15/2013  08:58:00      -35.200       -7.877      -12.841       18.999       10.103        8.330      360.973      102.077       69.382        0.100        0.027       36.070        7.845        0.047      329.168       -4.267      874.635
12/15/2013  08:59:00      -37.178       -7.808        1.283       19.614       14.965       11.264      384.728      223.953      126.887        0.109        0.037       37.989        9.326        0.060      329.284       -4.078      874.647
12/15/2013  09:00:00      -22.685      -38.933       -5.091       17.658       14.217        8.459      311.788      202.118       71.547        0.132        0.029       45.060        7.284        0.026      329.129       -4.334      874.652
12/15/2013  09:01:00      -17.453      -10.294       -4.234       21.540       16.047       10.673      463.967      257.500      113.912        0.063        0.042       20.262        4.244        0.044      329.330       -4.003      874.643
12/15/2013  09:02:00      -75.515      -12.170       -8.367       17.305       11.971       10.690      299.448      143.304      114.285        0.324        0.028       76.490        5.887        0.006      329.146       -4.303      874.638
12/15/2013  09:03:00      -57.420      -32.322       -6.788       18.856       16.292       13.312      355.533      265.421      177.220        0.259        0.040       65.892        9.788        0.022      329.250       -4.133      874.633
12/15/2013  09:04:00      -34.072      -60.314       -6.138       11.643       10.093       10.037      135.558      101.877      100.732        0.259        0.017       69.272        4.917        0.005      329.207       -4.203      874.634
12/15/2013  09:05:00      -27.316      -63.181       -5.818       20.671       17.626       11.351      427.271      310.669      128.835        0.282        0.043       68.834        9.252        0.018      329.250       -4.133      874.627
12/15/2013  09:06:00      -42.184      -38.434        8.925       21.500       23.033       16.037      462.254      530.498      257.193        0.229        0.062       57.067       10.462        0.034      329.427       -3.844      874.617
12/15/2013  09:07:00      -15.915      -16.818       14.964       23.106       19.073       16.013      533.887      363.789      256.410        0.096        0.058       23.154       13.979        0.364      329.735       -3.341      874.612
12/15/2013  09:08:00       -6.052      -47.114       -7.228       18.852       35.261       13.418      355.411     1243.311      180.053        0.204        0.089       47.501        8.973        0.036      329.527       -3.683      874.606
12/15/2013  09:09:00      -11.017      -31.356        4.451       25.470       12.971       16.764      648.744      168.259      281.042        0.111        0.055       33.235        6.276        0.036      329.855       -3.144      874.625
12/15/2013  09:10:00      -15.327      -25.903        3.862       23.561       15.907       12.622      555.107      253.040      159.324        0.094        0.048       30.098       11.146        0.137      329.713       -3.377      874.631
12/15/2013  09:11:00       -6.447      -25.574       -5.148       18.343       14.583       15.917      336.465      212.677      253.360        0.076        0.040       26.374       11.146        0.179      329.626       -3.519      874.633
12/15/2013  09:12:00      -32.703      -28.032      -11.869       16.117       13.155        9.638      259.763      173.060       92.899        0.126        0.026       43.073        6.280        0.021      329.635       -3.505      874.635
12/15/2013  09:13:00      -35.635      -20.212        2.319       17.341       16.036       13.949      300.717      257.139      194.573        0.122        0.038       40.967        9.595        0.055      329.652       -3.477      874.632
12/15/2013  09:14:00      -20.812       -5.673       -3.132       18.147       11.559        8.144      329.326      133.606       66.317        0.050        0.026       21.571        8.925        0.171      329.678       -3.435      874.631
12/15/2013  09:15:00       -9.331       15.826       24.395       10.772       13.445       19.015      116.038      180.775      361.557        0.080        0.033       18.372       10.092        0.302      330.208       -2.566      874.627
12/15/2013  09:16:00      -15.005        6.006       23.666       16.673       16.788       17.860      278.004      281.842      318.976        0.085        0.044       16.162       11.173        0.478      330.262       -2.477      874.620
12/15/2013  09:17:00      -10.000      -32.713        8.509       17.025       21.912       14.979      289.840      480.144      224.376        0.112        0.050       34.208        6.744        0.039      329.992       -2.920      874.618
12/15/2013  09:18:00      -14.588       -7.004       18.284       15.453       23.412       18.820      238.796      548.126      354.201        0.087        0.057       16.182       15.099        0.871      330.214       -2.557      874.623
12/15/2013  09:19:00       -5.306        4.772       45.329       15.427       19.581       12.044      238.007      383.402      145.047        0.144        0.038        7.136        8.042        1.270      330.756       -1.667      874.626
12/15/2013  09:20:00       15.937       28.924       47.739       27.033       31.443       19.130      730.801      988.685      365.956        0.273        0.104       33.024       19.519        0.349      330.172       -2.626      874.631
12/15/2013  09:21:00       20.632        6.797       20.305       21.387       28.351       23.419      457.387      803.778      548.435        0.135        0.090       21.722       19.044        0.769      330.178       -2.615      874.624
12/15/2013  09:22:00       19.243      -33.982       11.349       22.489       26.661       21.536      505.758      710.784      463.794        0.167        0.084       39.052       14.244        0.133      330.126       -2.700      874.619
12/15/2013  09:23:00        9.255       10.180       21.041       18.529       18.825       34.921      343.330      354.396     1219.470        0.127        0.096       13.758       22.670        2.715      330.312       -2.396      874.624
12/15/2013  09:24:00       14.774       47.179       55.740       27.308       31.726       19.783      745.702     1006.531      391.379        0.385        0.107       49.438        6.825        0.019      330.233       -2.524      874.604
12/15/2013  09:25:00       -3.455       18.745       45.208       23.170       34.144       22.140      536.830     1165.790      490.160        0.230        0.110       19.060       21.528        1.276      330.469       -2.138      874.597
12/15/2013  09:26:00      -19.788       14.930       41.197       15.855       23.042       23.464      251.367      530.923      550.544        0.182        0.067       24.789       20.224        0.666      330.574       -1.967      874.604
12/15/2013  09:27:00      -11.781       24.725       54.501       12.793       22.440       14.565      163.648      503.568      212.150        0.230        0.044       27.388       13.145        0.230      330.721       -1.725      874.614
12/15/2013  09:28:00        8.144       30.148       51.739       21.033       21.544       17.364      442.394      464.129      301.508        0.243        0.060       31.228       10.492        0.113      330.301       -2.415      874.622
12/15/2013  09:29:00       43.365       61.654       61.640       27.798       21.814       17.370      772.708      475.846      301.731        0.552        0.078       75.377       13.461        0.032      330.067       -2.798      874.628
12/15/2013  09:30:00       17.900       43.219       51.236       29.485       24.653       19.341      869.393      607.764      374.063        0.333        0.093       46.779       17.310        0.137      330.156       -2.651      874.621
12/15/2013  09:31:00       16.390       53.113       73.397       26.872       38.151       18.066      722.094     1455.489      326.378        0.549        0.125       55.584       17.969        0.105      330.234       -2.524      874.620
12/15/2013  09:32:00       26.823       44.280       38.015       24.304       23.129       29.763      590.697      534.929      885.837        0.307        0.101       51.771       11.574        0.050      330.157       -2.649      874.619
12/15/2013  09:33:00       17.262       -0.378       51.030       25.192       32.903       24.276      634.635     1082.604      589.331        0.260        0.115       17.266       22.825        1.748      330.437       -2.191      874.615
12/15/2013  09:34:00        4.060       17.607       52.493       20.319       25.855       22.642      412.865      668.500      512.651        0.234        0.080       18.069       16.719        0.856      330.646       -1.847      874.603
12/15/2013  09:35:00        5.626       24.385       49.262       33.640       24.749       28.240     1131.628      612.526      797.476        0.280        0.127       25.026       18.979        0.575      330.368       -2.304      874.610
12/15/2013  09:36:00      -16.206       15.307       38.047       15.376       23.756       16.931      236.419      564.363      286.645        0.152        0.054       22.292       11.006        0.244      330.732       -1.706      874.616
12/15/2013  09:37:00       -7.097       31.388       56.659       24.282       26.226       22.090      589.637      687.820      487.980        0.301        0.088       32.181       18.248        0.322      330.519       -2.056      874.615
12/15/2013  09:38:00       -3.222       52.494       74.332       21.428       28.451       23.367      459.150      809.433      546.015        0.505        0.091       52.592       21.223        0.163      330.473       -2.131      874.610
12/15/2013  09:39:00       61.569       50.829       29.187       45.554       42.527       34.679     2075.139     1808.574     1202.625        0.616        0.254       79.839       29.187        0.134      330.208       -2.565      874.601
12/15/2013  09:40:00       57.809       58.782       21.767       50.069       32.486       34.521     2506.866     1055.325     1191.711        0.601        0.238       82.445       33.023        0.160      330.442       -2.182      874.583
12/15/2013  09:41:00       17.883       40.390       46.189       29.822       33.068       27.544      889.350     1093.501      758.646        0.341        0.137       44.172       22.360        0.256      330.742       -1.690      874.582
12/15/2013  09:42:00       65.729       58.004       30.521       38.382       19.464       36.445     1473.179      378.833     1328.241        0.590        0.159       87.663        6.708        0.006      330.280       -2.448      874.580
12/15/2013  09:43:00       24.876       53.334       53.650       41.099       28.852       31.470     1689.089      832.431      990.362        0.493        0.176       58.850       21.459        0.133      330.506       -2.078      874.579
12/15/2013  09:44:00       25.707       38.074       46.587       53.067       39.687       35.364     2816.079     1575.055     1250.580        0.496        0.282       45.940       34.030        0.549      330.563       -1.984      874.573
12/15/2013  09:45:00       85.705       64.871       26.464       50.102       33.592       32.860     2510.247     1128.416     1079.778        0.849        0.236      107.487       25.619        0.057      330.289       -2.433      874.576
12/15/2013  09:46:00      106.951       80.134       14.692       34.085       29.480       27.008     1161.759      869.092      729.450        1.042        0.138      133.642       17.644        0.017      330.168       -2.632      874.577
12/15/2013  09:47:00       99.519       89.848       24.630       34.638       30.109       35.372     1199.814      906.532     1251.187        1.097        0.168      134.077       15.413        0.013      330.223       -2.540      874.577
12/15/2013  09:48:00      108.778       79.112       15.821       27.594       24.758       26.301      761.436      612.936      691.722        1.020        0.103      134.504       10.109        0.006      330.185       -2.605      874.565
12/15/2013  09:49:00       77.006       77.633       11.061       40.981       25.527       34.989     1679.460      651.644     1224.248        0.782        0.178      109.347       11.252        0.011      330.277       -2.453      874.573
12/15/2013  09:50:00       55.342       56.900        7.713       35.718       38.234       33.859     1275.759     1461.837     1146.443        0.512        0.194       79.375       20.884        0.069      330.645       -1.850      874.584
12/15/2013  09:51:00       37.711       47.091       34.815       39.850       29.658       29.444     1588.057      879.587      866.937        0.409        0.167       60.330       24.231        0.161      330.751       -1.675      874.598
12/15/2013  09:52:00      101.768       99.670       -0.584       37.292       29.840       32.003     1390.666      890.403     1024.222        1.180        0.165      142.446        4.186        0.001      330.261       -2.480      874.594
12/15/2013  09:53:00       57.572       75.304       40.170       52.995       35.257       47.186     2808.505     1243.084     2226.508        0.844        0.314       94.791       40.481        0.182      330.565       -1.981      874.607
12/15/2013  09:54:00       13.585       83.946       92.221       40.258       42.840       22.499     1620.667     1835.227      506.195        0.985        0.198       85.038       20.543        0.058      330.660       -1.823      874.613
12/15/2013  09:55:00       55.248       91.231       46.245       45.697       34.075       36.048     2088.213     1161.120     1299.463        0.903        0.227      106.656       30.644        0.083      330.535       -2.029      874.614
12/15/2013  09:56:00      106.710       92.314       35.895       40.986       26.260       32.841     1679.812      689.608     1078.526        1.232        0.172      141.099       21.860        0.024      330.177       -2.616      874.608
12/15/2013  09:57:00       13.947       70.359       50.184       37.551       33.828       51.920     1410.045     1144.304     2695.733        0.646        0.263       71.728       36.931        0.265      330.641       -1.856      874.609
12/15/2013  09:58:00       25.727       61.598       74.355       33.321       47.375       26.143     1110.286     2244.429      683.474        0.701        0.202       66.755       22.617        0.115      330.567       -1.978      874.615
12/15/2013  09:59:00        9.393       36.009       66.041       31.960       43.746       33.672     1021.449     1913.677     1133.806        0.491        0.203       37.214       25.525        0.470      330.833       -1.542      874.601
12/15/2013  10:00:00       34.338       70.523       60.395       41.602       33.874       39.567     1730.754     1147.471     1565.572        0.712        0.222       78.438       23.341        0.089      330.705       -1.752      874.593
12/15/2013  10:01:00       76.708       72.909       31.842       47.087       32.128       42.941     2217.155     1032.183     1843.916        0.865        0.255      105.829       26.595        0.063      330.640       -1.857      874.591
12/15/2013  10:02:00       59.008       41.538       11.227       32.624       39.354       30.561     1064.323     1548.703      934.001        0.444        0.177       72.162       28.060        0.151      330.842       -1.526      874.603
12/15/2013  10:03:00       45.434       50.463       38.196       41.549       33.532       37.053     1726.339     1124.374     1372.947        0.515        0.211       67.902       28.329        0.174      330.981       -1.298      874.602
12/15/2013  10:04:00       65.093       77.490       61.849       33.353       29.324       23.550     1112.414      859.874      554.587        0.830        0.126      101.202       16.309        0.026      330.761       -1.660      874.587
12/15/2013  10:05:00       71.988       75.608        3.638       48.215       24.972       34.952     2324.720      623.620     1221.674        0.754        0.209      104.398       15.673        0.023      330.664       -1.818      874.571
12/15/2013  10:06:00        1.814       39.484       40.503       28.465       30.962       33.533      810.270      958.640     1124.465        0.305        0.145       39.526       15.747        0.159      331.221       -0.902      874.550
12/15/2013  10:07:00       43.588       95.510      -11.455       23.743       28.394       31.618      563.742      806.192      999.692        0.676        0.118      104.986       22.595        0.046      330.643       -1.853      874.526
12/15/2013  10:08:00        8.961       21.988       38.495       34.780       46.104       42.474     1209.660     2125.543     1804.019        0.359        0.257       23.744       29.868        1.582      331.298       -0.776      874.510
12/15/2013  10:09:00       26.728       33.311       36.026       39.711       31.607       30.336     1576.987      999.010      920.268        0.331        0.175       42.709       22.392        0.275      331.179       -0.973      874.505
12/15/2013  10:10:00       35.941       52.412       51.454       30.124       26.149       26.046      907.465      683.785      678.392        0.448        0.113       63.551       17.608        0.077      330.842       -1.527      874.505
12/15/2013  10:11:00       81.787       86.459       42.078       31.394       34.394       38.258      985.585     1182.956     1463.661        0.978        0.182      119.014       18.751        0.025      330.718       -1.729      874.501
12/15/2013  10:12:00       83.808       77.183       61.048       38.732       29.770       27.601     1500.160      886.241      761.839        0.993        0.157      113.935       13.844        0.015      330.605       -1.914      874.505
12/15/2013  10:13:00       77.567       62.135       57.604       26.810       27.546       33.386      718.779      758.783     1114.609        0.789        0.130       99.385       23.150        0.054      330.734       -1.703      874.497
12/15/2013  10:14:00       92.200       57.190       24.951       44.340       31.053       28.511     1966.023      964.279      812.855        0.807        0.187      108.497       20.376        0.035      330.806       -1.586      874.490
12/15/2013  10:15:00       48.220       61.957       25.236       43.175       34.165       41.540     1864.108     1167.230     1725.613        0.578        0.238       78.511       27.790        0.125      331.060       -1.167      874.474
12/15/2013  10:16:00       12.677       56.179       46.214       34.217       33.477       34.571     1170.776     1120.724     1195.139        0.447        0.174       57.592       19.293        0.112      331.227       -0.894      874.462
12/15/2013  10:17:00        6.616       28.845       53.335       25.904       38.057       30.819      670.996     1448.319      949.835        0.339        0.153       29.594       28.675        0.939      331.434       -0.553      874.462
12/15/2013  10:18:00       20.078      -20.534       15.467       22.845       67.523       27.915      521.909     4559.343      779.246        0.346        0.293       28.719       16.875        0.345      331.114       -1.079      874.453
12/15/2013  10:19:00       88.625       70.408       32.806       45.617       32.843       35.588     2080.915     1078.668     1266.489        0.916        0.221      113.189       28.796        0.065      330.818       -1.566      874.452
12/15/2013  10:20:00       23.274       39.833       43.788       32.433       30.310       41.116     1051.923      918.715     1690.517        0.385        0.183       46.134       24.141        0.274      331.175       -0.979      874.451
12/15/2013  10:21:00       70.165      104.335       78.544       43.903       30.526       31.295     1927.514      931.851      979.358        1.291        0.192      125.734       22.623        0.032      330.936       -1.372      874.441
12/15/2013  10:22:00       38.389       58.595       59.966       47.251       43.223       23.624     2232.642     1868.253      558.094        0.658        0.233       70.050       20.088        0.082      331.014       -1.243      874.433
12/15/2013  10:23:00       30.334       19.684       37.374       40.273       40.202       33.641     1621.950     1616.178     1131.724        0.354        0.218       36.161       30.675        0.720      331.154       -1.014      874.424
12/15/2013  10:24:00        7.034        2.376       39.537       21.312       31.241       22.415      454.193      976.028      502.412        0.178        0.097        7.424       17.034        5.264      331.488       -0.464      874.420
12/15/2013  10:25:00       58.421       43.478        6.748       38.369       31.018       26.458     1472.217      962.111      700.036        0.424        0.157       72.824       15.542        0.046      331.344       -0.701      874.412
12/15/2013  10:26:00        6.237       56.332        3.578       27.832       40.242       30.313      774.601     1619.444      918.855        0.327        0.166       56.677       26.705        0.222      331.236       -0.878      874.414
12/15/2013  10:27:00       73.360       80.748        7.153       38.263       33.965       38.414     1464.059     1153.624     1475.622        0.802        0.205      109.096       28.306        0.067      330.937       -1.369      874.416
12/15/2013  10:28:00       25.342       43.609       -1.352       30.227       21.469       27.230      913.681      460.899      741.486        0.233        0.106       50.438       13.534        0.072      331.110       -1.086      874.413
12/15/2013  10:29:00       41.137       64.804       11.059       36.975       37.912       30.562     1367.121     1437.351      934.022        0.488        0.187       76.758       16.956        0.049      331.321       -0.738      874.420
12/15/2013  10:30:00       22.723       57.265       63.450       45.624       37.623       28.288     2081.545     1415.464      800.224        0.606        0.215       61.609       18.683        0.092      331.367       -0.663      874.416
12/15/2013  10:31:00       64.937       72.407       60.795       55.550       30.868       48.828     3085.804      952.808     2384.161        0.979        0.321       97.261       31.157        0.103      331.201       -0.936      874.428
12/15/2013  10:32:00       59.818       51.559       65.140       43.519       40.960       35.771     1893.908     1677.721     1279.571        0.766        0.243       78.972       23.679        0.090      331.257       -0.845      874.414
12/15/2013  10:33:00       61.945       45.608       51.841       60.727       37.712       41.738     3687.721     1422.210     1742.087        0.773        0.343       76.924       34.380        0.200      331.401       -0.608      874.400
12/15/2013  10:34:00        5.135       34.054       61.159       27.959       40.248       22.980      781.687     1619.903      528.091        0.393        0.146       34.439       13.826        0.161      331.980        0.345      874.379
12/15/2013  10:35:00       -6.057       42.625       54.496       24.781       29.794       23.354      614.091      887.656      545.427        0.343        0.102       43.054       12.565        0.085      331.941        0.281      874.357
12/15/2013  10:36:00      114.439       63.830       21.884       54.383       40.837       36.165     2957.467     1667.656     1307.918        1.179        0.297      131.036       23.594        0.032      331.161       -1.002      874.343
12/15/2013  10:37:00       98.282       76.341       21.857       28.548       30.826       36.781      814.993      950.217     1352.872        0.954        0.156      124.448       18.420        0.022      331.131       -1.052      874.323
12/15/2013  10:38:00      116.073       75.104       30.782       37.839       30.743       41.980     1431.796      945.107     1762.308        1.210        0.207      138.251       24.526        0.031      331.351       -0.690      874.309
12/15/2013  10:39:00      134.666       96.493       33.738       40.398       26.598       31.288     1632.027      707.458      978.953        1.595        0.166      165.668       17.940        0.012      331.034       -1.211      874.303
12/15/2013  10:40:00      126.487       90.305       20.556       47.389       35.018       39.148     2245.686     1226.276     1532.592        1.479        0.250      155.416       24.923        0.026      331.292       -0.786      874.307
12/15/2013  10:41:00       95.840       74.814        9.301       50.351       34.622       35.102     2535.212     1198.661     1232.179        0.992        0.248      121.583       15.984        0.017      331.462       -0.508      874.314
12/15/2013  10:42:00      104.026       89.050        9.126       42.890       31.492       26.957     1839.593      991.776      726.703        1.120        0.178      136.936       14.094        0.011      331.069       -1.154      874.306
12/15/2013  10:43:00       70.335       57.376       29.211       60.065       37.022       37.923     3607.773     1370.623     1438.130        0.775        0.321       90.770       27.252        0.090      331.590       -0.297      874.305
12/15/2013  10:44:00       50.328      117.880      110.871       63.421       50.482       36.949     4022.200     2548.432     1365.203        1.833        0.397      128.174       32.585        0.065      331.533       -0.391      874.292
12/15/2013  10:45:00      112.425      109.871       70.169       62.087       42.436       49.152     3854.842     1800.852     2415.884        1.885        0.404      157.197       41.059        0.068      331.321       -0.740      874.286
12/15/2013  10:46:00       38.102       94.689       88.780       46.988       37.185       35.890     2207.870     1382.694     1288.097        1.159        0.244      102.068       31.238        0.094      331.309       -0.759      874.279
12/15/2013  10:47:00       25.104      123.833      118.165       39.059       42.931       27.067     1525.570     1843.049      732.598        1.701        0.205      126.352       27.085        0.046      331.410       -0.592      874.266
12/15/2013  10:48:00       28.576       63.171       69.975       38.598       48.802       39.648     1489.774     2381.606     1571.980        0.757        0.272       69.334       31.073        0.201      331.552       -0.358      874.255
12/15/2013  10:49:00       74.541       41.024       50.127       66.560       41.626       36.843     4430.228     1732.685     1357.395        0.863        0.376       85.085       28.447        0.112      331.798        0.045      874.232
12/15/2013  10:50:00       71.455       52.548       25.503       56.656       39.184       39.580     3209.939     1535.360     1566.582        0.741        0.316       88.697       30.734        0.120      331.769       -0.002      874.214
12/15/2013  10:51:00      135.950       96.942        9.570       40.138       35.498       37.689     1611.064     1260.121     1420.479        1.613        0.215      166.973       22.012        0.017      331.489       -0.464      874.203
12/15/2013  10:52:00       61.114       75.046       38.998       57.449       51.493       41.455     3300.372     2651.519     1718.501        0.928        0.384       96.782       38.735        0.160      331.791        0.033      874.188
12/15/2013  10:53:00       16.193       92.061      115.000       39.454       53.005       38.983     1556.656     2809.557     1519.698        1.392        0.294       93.475       37.352        0.160      331.728       -0.069      874.178
12/15/2013  10:54:00      139.258      121.490       72.549       38.432       32.210       47.337     1477.043     1037.474     2240.811        2.208        0.238      184.805       31.003        0.028      331.352       -0.690      874.174
12/15/2013  10:55:00       76.443       75.890       45.455       66.608       30.102       30.092     4436.634      906.120      905.528        0.996        0.312      107.716       30.609        0.081      331.374       -0.653      874.165
12/15/2013  10:56:00       62.284       44.066       24.780       71.086       49.804       32.013     5053.157     2480.439     1024.850        0.750        0.428       76.296       20.692        0.074      331.655       -0.190      874.128
12/15/2013  10:57:00       27.614       65.593       70.606       52.898       60.074       47.454     2798.174     3608.930     2251.851        0.935        0.433       71.168       34.586        0.236      331.963        0.318      874.111
12/15/2013  10:58:00       88.845       93.737       74.759       58.027       39.027       49.560     3367.104     1523.122     2456.168        1.481        0.367      129.151       46.668        0.131      331.562       -0.343      874.096
12/15/2013  10:59:00      100.267       74.412       14.875       29.837       20.160       31.045      890.224      406.439      963.767        0.904        0.113      124.862       13.015        0.011      331.230       -0.890      874.096
12/15/2013  11:00:00       36.524       47.546       64.641       37.200       30.596       29.632     1383.804      936.130      878.076        0.548        0.160       59.955       20.395        0.116      331.791        0.035      874.067
12/15/2013  11:01:00       62.729      100.509       53.806       38.686       29.211       41.125     1496.632      853.259     1691.303        1.049        0.202      118.478       25.617        0.047      331.614       -0.258      874.057
12/15/2013  11:02:00       -2.595       32.329       67.128       26.412       46.375       29.857      697.581     2150.651      891.457        0.465        0.187       32.433       22.059        0.463      332.156        0.636      874.025
12/15/2013  11:03:00        2.906       87.282      102.357       34.016       46.460       24.471     1157.084     2158.499      598.852        1.101        0.196       87.331       22.176        0.064      331.877        0.175      874.006
12/15/2013  11:04:00       10.404       58.824       87.552       32.841       58.697       37.337     1078.531     3445.294     1394.059        0.857        0.296       59.737       37.858        0.402      331.918        0.244      873.989
12/15/2013  11:05:00       65.469        2.911       33.910       54.961       58.149       43.907     3020.729     3381.324     1927.832        0.689        0.416       65.534       46.985        0.514      331.542       -0.373      873.973
12/15/2013  11:06:00       38.054       51.124       56.575       41.659       69.240       44.355     1735.478     4794.235     1967.326        0.788        0.425       63.732       42.107        0.437      331.668       -0.168      873.962
12/15/2013  11:07:00       28.454       71.608       95.562       36.298       48.400       25.495     1317.564     2342.574      650.006        0.969        0.216       77.054       30.362        0.155      331.668       -0.168      873.948
12/15/2013  11:08:00       90.720       53.543        8.131       48.542       43.783       31.997     2356.352     1916.967     1023.806        0.823        0.265      105.343       21.403        0.041      331.579       -0.315      873.933
12/15/2013  11:09:00       15.704       36.451       49.775       33.405       51.375       37.140     1115.921     2639.384     1379.368        0.459        0.257       39.690       33.723        0.722      331.984        0.350      873.919
12/15/2013  11:10:00       72.350       70.798       77.478       75.666       59.681       34.480     5725.308     3561.813     1188.896        1.336        0.524      101.227       36.037        0.127      331.856        0.141      873.892
12/15/2013  11:11:00       79.838       81.866       92.539       65.519       47.714       58.087     4292.727     2276.669     3374.076        1.579        0.497      114.351       48.397        0.179      331.844        0.121      873.879
12/15/2013  11:12:00       71.950      104.891      109.114       75.459       53.526       38.817     5694.019     2865.072     1506.781        1.907        0.503      127.196       44.851        0.124      331.674       -0.158      873.858
12/15/2013  11:13:00      108.975      119.831       84.069       56.932       59.485       49.315     3241.273     3538.485     2431.971        2.126        0.461      161.972       38.681        0.057      331.644       -0.210      873.859
12/15/2013  11:14:00       72.419       59.926       11.650       34.802       29.204       29.345     1211.210      852.877      861.107        0.595        0.146       93.998        8.483        0.008      331.872        0.166      873.854
12/15/2013  11:15:00       78.523       51.380        1.784       42.909       34.450       34.397     1841.217     1186.795     1183.171        0.651        0.211       93.839       24.442        0.068      331.864        0.154      873.845
12/15/2013  11:16:00       31.274        5.729       12.125       41.048       53.672       35.260     1684.944     2880.704     1243.251        0.348        0.290       31.794       28.059        0.779      332.072        0.497      873.853
12/15/2013  11:17:00       -4.075       43.545       31.450       31.325       26.652       38.551      981.224      710.322     1486.216        0.304        0.159       43.735       24.313        0.309      332.306        0.884      873.836
12/15/2013  11:18:00       65.794       75.217       57.337       86.676       64.456       49.862     7512.725     4154.538     2486.214        1.371        0.708       99.932       42.010        0.177      332.137        0.603      873.818
12/15/2013  11:19:00      130.135       90.049       38.240       51.356       43.923       57.247     2637.486     1929.199     3277.258        1.717        0.392      158.253       27.984        0.031      331.792        0.034      873.810
12/15/2013  11:20:00      121.655       84.003       32.288       49.678       29.867       36.337     2467.913      892.040     1320.412        1.379        0.234      147.839       28.003        0.036      331.852        0.135      873.786
12/15/2013  11:21:00       52.304       49.491       27.464       51.499       35.092       35.729     2652.124     1231.429     1276.569        0.555        0.258       72.008       30.763        0.183      332.055        0.469      873.769
12/15/2013  11:22:00       69.720       72.471       50.385       56.675       32.163       42.777     3212.082     1034.444     1829.830        0.936        0.304      100.564       35.630        0.126      331.999        0.376      873.749
12/15/2013  11:23:00       24.680       57.456       68.327       38.927       40.983       47.347     1515.333     1679.596     2241.751        0.701        0.272       62.532       30.732        0.242      332.196        0.701      873.725
12/15/2013  11:24:00       81.352       54.809        5.959       28.013       32.605       35.266      784.746     1063.103     1243.684        0.637        0.155       98.093       26.748        0.074      331.745       -0.041      873.726
12/15/2013  11:25:00      108.521       70.530       23.354       53.632       31.109       38.616     2876.369      967.781     1491.181        1.131        0.267      129.426       22.520        0.030      331.953        0.300      873.701
12/15/2013  11:26:00       14.523       66.214       93.895       35.900       53.611       31.077     1288.782     2874.170      965.810        0.927        0.256       67.788       32.444        0.229      332.558        1.298      873.679
12/15/2013  11:27:00      110.443       79.244       58.629       73.208       48.148       55.260     5359.351     2318.266     3053.636        1.632        0.537      135.931       48.113        0.125      332.048        0.458      873.672
12/15/2013  11:28:00       52.056       83.847      100.895       47.996       50.956       30.972     2303.609     2596.563      959.278        1.289        0.293       98.692       30.224        0.094      332.196        0.703      873.652
12/15/2013  11:29:00       99.158       79.920       53.583       34.248       32.711       41.860     1172.893     1070.020     1752.224        1.154        0.200      127.356       26.613        0.044      332.071        0.496      873.648
12/15/2013  11:30:00      120.392       88.492       40.066       51.927       39.365       36.366     2696.456     1549.623     1322.466        1.475        0.278      149.416       27.955        0.035      332.014        0.402      873.634
12/15/2013  11:31:00       58.565       68.368       38.085       51.475       30.843       39.629     2649.658      951.270     1570.497        0.736        0.259       90.023       34.363        0.146      332.298        0.870      873.624
12/15/2013  11:32:00       73.773      128.259      106.662       56.129       44.157       34.792     3150.434     1949.865     1210.458        1.979        0.316      147.962       25.695        0.030      332.063        0.481      873.612
12/15/2013  11:33:00       53.531       58.038       77.483       38.936       66.000       41.591     1515.977     4356.063     1729.793        0.992        0.380       78.956       43.906        0.309      332.049        0.459      873.590
12/15/2013  11:34:00       84.403       20.704       18.264       50.681       61.262       35.756     2568.551     3753.072     1278.496        0.774        0.380       86.905       31.691        0.133      332.022        0.415      873.564
12/15/2013  11:35:00      113.135      101.909       69.742       60.607       43.994       43.920     3673.248     1935.465     1928.938        1.779        0.377      152.266       35.519        0.054      332.200        0.707      873.537
12/15/2013  11:36:00       18.841       57.694       55.397       42.818       47.301       37.562     1833.374     2237.354     1410.894        0.612        0.274       60.692       19.226        0.100      332.525        1.244      873.504
12/15/2013  11:37:00      100.299       73.253        9.099       40.801       38.688       40.115     1664.691     1496.737     1609.220        1.014        0.239      124.201       22.582        0.033      332.251        0.792      873.479
12/15/2013  11:38:00       65.176       32.432       20.461       46.171       51.720       28.801     2131.746     2674.998      829.511        0.568        0.282       72.800       18.975        0.068      332.558        1.299      873.458
12/15/2013  11:39:00       17.291       30.702       34.797       30.331       33.244       26.255      919.989     1105.173      689.342        0.258        0.136       35.236       16.418        0.217      332.750        1.616      873.437
12/15/2013  11:40:00       -2.399       65.014       83.390       28.257       47.981       30.792      798.449     2302.219      948.158        0.762        0.202       65.058       32.139        0.244      332.708        1.547      873.430
12/15/2013  11:41:00       88.533       50.382       40.706       39.681       32.434       36.632     1574.594     1051.954     1341.925        0.800        0.198      101.865       33.476        0.108      332.569        1.318      873.430
12/15/2013  11:42:00      141.922       90.432       57.844       25.743       27.680       29.947      662.681      766.174      896.833        1.699        0.116      168.285       20.131        0.014      332.283        0.846      873.421
12/15/2013  11:43:00      100.058       75.493       60.613       57.789       61.647       57.085     3339.590     3800.328     3258.724        1.489        0.520      125.343       49.194        0.154      332.213        0.728      873.419
12/15/2013  11:44:00      147.329      128.000       82.142       53.168       39.561       36.991     2826.792     1565.072     1368.347        2.530        0.288      195.166       30.426        0.024      332.119        0.571      873.403
12/15/2013  11:45:00       86.128      117.860       95.921       84.422       55.583       44.013     7127.050     3089.464     1937.185        2.133        0.608      145.976       47.976        0.108      332.296        0.867      873.401
12/15/2013  11:46:00       91.413       85.217       83.274       79.031       62.865       52.100     6245.860     3952.019     2714.459        1.773        0.646      124.973       48.959        0.153      332.395        1.028      873.410
12/15/2013  11:47:00      130.480       55.039       49.869       56.261       70.530       51.393     3165.331     4974.456     2641.223        1.666        0.539      141.613       45.711        0.104      332.245        0.780      873.410
12/15/2013  11:48:00      108.308       73.925       16.375       39.713       36.356       26.416     1577.152     1321.752      697.802        1.053        0.180      131.131       14.523        0.012      332.225        0.750      873.414
12/15/2013  11:49:00       20.037       33.453        6.924       30.400       36.040       18.851      924.175     1298.890      355.373        0.207        0.129       38.995       20.547        0.278      332.657        1.464      873.419
12/15/2013  11:50:00       -6.624        7.768       12.952       25.542       45.037       28.132      652.391     2028.295      791.383        0.187        0.174       10.209       28.749        7.930      332.909        1.879      873.406
12/15/2013  11:51:00       -4.516       11.085       24.268       35.431       35.968       27.539     1255.360     1293.687      758.421        0.202        0.165       11.970       16.100        1.809      332.972        1.983      873.407
12/15/2013  11:52:00       54.328      -11.074       47.015       61.733       77.787       53.864     3811.001     6050.788     2901.311        0.902        0.638       55.445       67.371        1.476      332.629        1.417      873.406
12/15/2013  11:53:00       19.787       21.833       55.721       38.313       62.363       36.438     1467.891     3889.148     1327.754        0.533        0.334       29.466       42.270        2.058      332.947        1.941      873.388
12/15/2013  11:54:00       30.814       41.350       83.446       49.169       89.934       35.104     2417.593     8088.204     1232.262        1.068        0.587       51.568       35.102        0.463      333.022        2.065      873.357
12/15/2013  11:55:00       62.388       36.938       83.587       48.014       76.185       41.174     2305.309     5804.163     1695.339        1.102        0.490       72.503       45.108        0.387      332.797        1.692      873.355
12/15/2013  11:56:00       63.110      -23.493       28.354       60.474       51.502       28.654     3657.080     2652.416      821.080        0.623        0.357       67.341       35.958        0.285      332.716        1.559      873.342
12/15/2013  11:57:00       25.424       43.530       55.234       52.722       39.548       34.270     2779.578     1564.032     1174.441        0.555        0.276       50.410       28.153        0.312      332.999        2.027      873.325
12/15/2013  11:58:00       21.005       68.755       92.424       44.769       38.010       23.000     2004.299     1444.733      528.986        0.884        0.199       71.892       20.251        0.079      332.886        1.840      873.316
12/15/2013  11:59:00       72.671       58.459       55.145       55.380       45.195       44.387     3066.982     2042.618     1970.200        0.941        0.354       93.266       38.336        0.169      332.678        1.496      873.295
12/15/2013  12:00:00       75.053       51.772       25.230       54.238       32.670       49.183     2941.720     1067.327     2418.981        0.769        0.321       91.177       35.602        0.152      332.700        1.533      873.270
12/15/2013  12:01:00       54.130       48.496       29.795       36.278       28.341       25.718     1316.057      803.195      661.432        0.447        0.139       72.677       20.358        0.078      332.686        1.511      873.261
12/15/2013  12:02:00       22.230       61.102       65.898       34.764       39.890       34.102     1208.501     1591.198     1162.956        0.627        0.198       65.020       29.894        0.211      332.742        1.602      873.240
12/15/2013  12:03:00      104.485      120.081       93.192       68.322       44.041       54.032     4667.957     1939.652     2919.423        2.177        0.476      159.175       50.354        0.100      332.575        1.325      873.214
12/15/2013  12:04:00       56.812       74.286       63.165       56.530       49.419       37.733     3195.637     2442.200     1423.784        0.990        0.353       93.520       22.126        0.056      332.741        1.601      873.203
12/15/2013  12:05:00      119.503       80.530       49.999       43.436       41.177       32.880     1886.701     1695.557     1081.087        1.396        0.233      144.105       23.219        0.026      332.558        1.298      873.185
12/15/2013  12:06:00       90.223      -49.325        3.971       46.542       42.805       22.301     2166.131     1832.256      497.328        0.754        0.225      102.826       26.728        0.068      332.363        0.978      873.183
12/15/2013  12:07:00       42.724      -68.885        7.968       55.687       46.154       31.357     3100.996     2130.214      983.284        0.642        0.311       81.058       29.350        0.131      332.780        1.666      873.167
12/15/2013  12:08:00       32.893      -22.468       17.480       31.238       53.119       26.855      975.813     2821.605      721.192        0.320        0.226       39.834       29.202        0.537      333.186        2.338      873.175
12/15/2013  12:09:00       61.437       32.480       38.751       62.851       60.031       37.257     3950.263     3603.733     1388.057        0.763        0.447       69.494       35.312        0.258      333.001        2.029      873.172
12/15/2013  12:10:00       75.271       77.035       45.199       59.748       40.805       42.249     3569.784     1665.060     1784.942        1.033        0.351      107.704       34.807        0.104      332.904        1.870      873.178
12/15/2013  12:11:00      121.596       92.930       44.268       65.124       47.749       32.236     4241.094     2279.981     1039.168        1.647        0.378      153.041       27.929        0.033      332.761        1.633      873.170
12/15/2013  12:12:00       82.837       61.863       20.789       48.440       45.660       26.006     2346.454     2084.854      676.314        0.811        0.255      103.388       13.704        0.018      332.774        1.656      873.147
12/15/2013  12:13:00       38.586      -42.626       -0.218       37.892       67.968       42.778     1435.812     4619.705     1829.998        0.559        0.394       57.497       27.651        0.231      333.022        2.064      873.141
12/15/2013  12:14:00       57.847      -24.521       34.824       58.046      111.198       76.111     3369.323    12364.971     5792.901        1.334        1.076       62.830       83.030        1.746      333.094        2.184      873.133
12/15/2013  12:15:00        6.973       33.959       72.828       29.454       44.758       31.275      867.536     2003.292      978.138        0.518        0.192       34.667       26.185        0.571      333.179        2.325      873.143
12/15/2013  12:16:00       37.532       73.593       67.839       63.542       47.312       37.455     4037.559     2238.456     1402.870        0.955        0.384       82.611       24.040        0.085      332.991        2.014      873.149
12/15/2013  12:17:00       18.062       68.430       79.790       57.215       41.729       34.264     3273.545     1741.348     1174.025        0.878        0.309       70.773       23.621        0.111      333.201        2.362      873.153
12/15/2013  12:18:00       76.873       76.559       56.859       56.925       34.012       47.163     3240.466     1156.849     2224.311        1.081        0.331      108.493       47.628        0.193      332.834        1.755      873.153
12/15/2013  12:19:00       97.531       81.966       53.928       40.318       31.649       32.505     1625.569     1001.639     1056.580        1.141        0.184      127.400        5.625        0.002      332.847        1.776      873.154
12/15/2013  12:20:00       68.827        4.386       21.052       46.711       36.399       41.040     2181.907     1324.873     1684.273        0.519        0.260       68.967       39.189        0.323      332.847        1.776      873.148
12/15/2013  12:21:00      102.371       70.829       40.410       49.954       31.397       42.366     2495.430      985.746     1794.872        1.120        0.264      124.485       39.726        0.102      332.805        1.706      873.129
12/15/2013  12:22:00       49.100        8.631       30.196       23.333       27.158       25.955      544.421      737.578      673.683        0.268        0.098       49.853       11.207        0.051      332.941        1.932      873.124
12/15/2013  12:23:00       56.547       53.277       65.334       45.515       56.070       51.573     2071.645     3143.821     2659.813        0.909        0.394       77.691       45.338        0.341      333.040        2.095      873.111
12/15/2013  12:24:00       90.648       65.317       43.119       43.200       29.168       32.765     1866.222      850.768     1073.533        0.907        0.190      111.729       25.044        0.050      332.959        1.960      873.105
12/15/2013  12:25:00       59.758       66.920       41.638       52.898       32.872       41.196     2798.195     1080.538     1697.093        0.768        0.279       89.718       39.266        0.192      332.989        2.011      873.100
12/15/2013  12:26:00       62.580       22.920        7.714       33.113       36.681       25.049     1096.499     1345.525      627.472        0.378        0.153       66.645       16.646        0.062      333.043        2.100      873.093
12/15/2013  12:27:00       51.785      -61.100      -11.083       36.632       39.065       29.666     1341.911     1526.070      880.046        0.514        0.187       80.093       25.971        0.105      333.184        2.333      873.078
12/15/2013  12:28:00       18.499        6.264       48.593       29.380       53.074       40.029      863.174     2816.886     1602.323        0.401        0.264       19.531       36.429        3.479      333.554        2.945      873.061
12/15/2013  12:29:00       30.531       98.501       90.601       54.255       44.438       43.133     2943.609     1974.736     1860.438        1.281        0.339      103.125       40.172        0.152      333.222        2.396      873.052
12/15/2013  12:30:00       63.754       57.781       35.476       49.432       37.271       33.928     2443.565     1389.101     1151.085        0.682        0.249       86.042       25.520        0.088      333.273        2.478      873.036
12/15/2013  12:31:00       46.414       81.570       75.377       45.903       46.909       45.974     2107.118     2200.464     2113.637        1.045        0.321       93.850       39.330        0.176      333.329        2.572      873.020
12/15/2013  12:32:00       55.351      103.765       91.882       33.376       33.627       32.030     1113.978     1130.753     1025.896        1.277        0.164      117.604       28.763        0.060      333.212        2.380      873.007
12/15/2013  12:33:00       32.145       64.231       65.942       31.092       34.825       36.768      966.703     1212.780     1351.889        0.652        0.177       71.826       31.248        0.189      333.190        2.342      872.989
12/15/2013  12:34:00       47.666       68.228       53.167       27.420       17.570       25.396      751.853      308.720      644.936        0.573        0.085       83.229       16.572        0.040      333.128        2.241      872.980
12/15/2013  12:35:00       21.520       36.468       42.729       20.869       22.917       15.367      435.526      525.195      236.158        0.241        0.060       42.344       14.201        0.112      333.324        2.564      872.975
12/15/2013  12:36:00        5.557       29.381        7.608       15.763       24.350       15.775      248.487      592.919      248.845        0.102        0.055       29.901       15.410        0.266      333.530        2.905      872.959
12/15/2013  12:37:00       71.430       48.498       16.580       28.034       24.418       22.645      785.921      596.217      512.810        0.481        0.095       86.338       17.247        0.040      333.282        2.493      872.947
12/15/2013  12:38:00       19.066       21.830       41.070       41.328       31.073       30.740     1707.989      965.506      944.918        0.307        0.181       28.984       18.169        0.393      333.658        3.117      872.945
12/15/2013  12:39:00       39.154       49.117       57.340       49.841       36.413       32.428     2484.144     1325.907     1051.580        0.605        0.243       62.813       30.740        0.240      333.716        3.213      872.931
12/15/2013  12:40:00       57.162       73.952       73.012       58.247       38.723       37.528     3392.726     1499.480     1408.366        1.018        0.315       93.468       34.807        0.139      333.418        2.719      872.928
12/15/2013  12:41:00        8.915      -14.364       37.636       34.842       66.233       47.170     1213.992     4386.837     2224.967        0.476        0.391       16.906       38.962        5.311      333.731        3.239      872.928
12/15/2013  12:42:00       47.244      -74.197       22.452       59.132       92.361       32.947     3496.541     8530.540     1085.520        1.067        0.656       87.962       39.199        0.199      333.601        3.023      872.924
12/15/2013  12:43:00       98.958     -108.067      -11.044       62.776       61.484       42.258     3940.863     3780.319     1785.765        1.555        0.475      146.531       46.520        0.101      333.406        2.699      872.929
12/15/2013  12:44:00       36.805      -16.318       39.539       44.832       61.022       45.642     2009.940     3723.715     2083.172        0.550        0.391       40.261       45.078        1.254      333.530        2.905      872.936
12/15/2013  12:45:00       53.669       32.753       63.521       49.322       59.473       39.117     2432.691     3536.981     1530.126        0.774        0.375       62.874       44.944        0.511      333.435        2.747      872.921
12/15/2013  12:46:00       39.966       32.992       39.831       46.064       37.297       45.799     2121.918     1391.100     2097.562        0.494        0.281       51.824       37.629        0.527      333.512        2.876      872.905
12/15/2013  12:47:00       27.853      -10.128       47.890       50.775       65.921       43.485     2578.134     4345.617     1890.974        0.599        0.441       29.637       40.082        1.829      333.632        3.073      872.898
12/15/2013  12:48:00       71.822      -39.264       30.880       62.514       68.996       49.950     3907.995     4760.477     2495.014        0.941        0.558       81.854       57.010        0.485      333.485        2.830      872.901
12/15/2013  12:49:00       90.254      -97.925        6.609       42.086       46.857       36.255     1771.261     2195.599     1314.422        1.153        0.264      133.173       24.956        0.035      333.324        2.564      872.899
12/15/2013  12:50:00       48.096      -30.304       18.530       49.309       40.629       41.128     2431.332     1650.700     1691.511        0.467        0.289       56.847       33.261        0.342      333.495        2.847      872.913
12/15/2013  12:51:00       59.578      -31.733       12.279       28.909       31.544       26.029      835.712      995.007      677.534        0.361        0.125       67.502       20.118        0.089      333.420        2.722      872.906
12/15/2013  12:52:00       46.094       -5.325      -15.394       25.783       40.951       22.182      664.747     1676.963      492.051        0.261        0.142       46.401       19.152        0.170      333.353        2.612      872.899
12/15/2013  12:53:00        6.791      -15.452       39.456       29.077       56.653       25.290      845.490     3209.553      639.573        0.327        0.235       16.879       20.583        1.487      333.963        3.624      872.882
12/15/2013  12:54:00       51.443       -5.021       32.928       34.900       69.006       40.324     1218.032     4761.778     1626.044        0.568        0.380       51.688       46.838        0.821      333.550        2.937      872.875
12/15/2013  12:55:00       17.279       -8.166       29.938       30.784       48.579       28.897      947.628     2359.923      835.038        0.270        0.207       19.111       36.119        3.572      333.775        3.312      872.863
12/15/2013  12:56:00       47.027      -63.120       10.163       43.879       52.079       35.643     1925.327     2712.195     1270.458        0.610        0.295       78.712       39.142        0.247      333.623        3.058      872.856
12/15/2013  12:57:00       70.641       54.440       58.041       52.203       56.969       36.217     2725.159     3245.418     1311.667        0.930        0.364       89.184       31.320        0.123      333.699        3.185      872.839
12/15/2013  12:58:00       76.060       56.401       67.436       70.512       43.438       42.737     4971.923     1886.841     1826.447        1.110        0.434       94.690       42.231        0.199      333.796        3.345      872.807
12/15/2013  12:59:00       38.047       74.694       72.863       44.700       42.044       39.059     1998.075     1767.661     1525.593        0.881        0.265       83.826       23.576        0.079      333.885        3.493      872.787
12/15/2013  13:00:00      -14.586       28.486       67.812       15.404       34.400       21.888      237.272     1183.359      479.079        0.376        0.095       32.004       19.886        0.386      334.349        4.265      872.774
12/15/2013  13:01:00       50.022       30.870       61.160       55.525       41.903       42.281     3083.068     1755.875     1787.708        0.691        0.331       58.780       37.052        0.397      333.974        3.641      872.772
12/15/2013  13:02:00       57.236       54.429       53.695       29.127       26.959       21.618      848.385      726.786      467.322        0.558        0.102       78.984       12.569        0.025      333.608        3.034      872.768
12/15/2013  13:03:00       32.593       35.276       26.745       25.428       21.003       22.301      646.594      441.129      497.349        0.230        0.079       48.028       16.874        0.123      333.674        3.142      872.756
12/15/2013  13:04:00       23.418        4.712       19.432       52.040       46.330       26.212     2708.183     2146.450      687.092        0.324        0.277       23.887       17.815        0.556      333.921        3.552      872.746
12/15/2013  13:05:00       10.690      -58.961        3.714       37.703       46.705       43.198     1421.528     2181.385     1866.061        0.454        0.273       59.922       22.917        0.146      333.965        3.625      872.722
12/15/2013  13:06:00      102.507     -108.921       -5.751       66.049       82.744       27.273     4362.438     6846.637      743.809        1.718        0.598      149.571       41.726        0.078      333.738        3.249      872.713
12/15/2013  13:07:00       69.828      -97.776      -13.316       34.198       46.889       23.119     1169.526     2198.561      534.506        0.926        0.195      120.150       18.922        0.025      333.647        3.099      872.712
12/15/2013  13:08:00       86.378       43.397       43.132       40.500       45.340       31.313     1640.288     2055.674      980.474        0.794        0.234       96.667       30.685        0.101      333.679        3.153      872.691
12/15/2013  13:09:00       76.112       56.732       49.357       55.051       38.370       29.121     3030.653     1472.282      848.006        0.840        0.268       94.929       26.334        0.077      333.768        3.298      872.659
12/15/2013  13:10:00       79.387      -36.468        6.774       42.949       81.695       25.337     1844.639     6674.107      641.981        0.842        0.458       87.362       35.448        0.165      333.764        3.292      872.646
12/15/2013  13:11:00       98.364      -86.576       -9.109       42.038       68.815       37.839     1767.199     4735.506     1431.775        1.259        0.397      131.037       41.467        0.100      333.780        3.318      872.625
12/15/2013  13:12:00       66.848      -79.423      -10.711       49.916       56.976       41.909     2491.583     3246.321     1756.390        0.919        0.375      103.810       38.865        0.140      333.792        3.338      872.601
12/15/2013  13:13:00       42.369       -2.628       47.325       54.993       66.330       43.584     3024.234     4399.711     1899.584        0.668        0.466       42.450       48.081        1.283      333.960        3.617      872.591
12/15/2013  13:14:00       46.136       34.333       47.286       39.306       44.171       33.684     1544.977     1951.047     1134.617        0.509        0.232       57.509       33.322        0.336      333.827        3.399      872.590
12/15/2013  13:15:00       47.000       -5.133       14.952       38.103       47.137       34.539     1451.822     2221.909     1192.971        0.366        0.243       47.279       25.384        0.288      333.955        3.610      872.592
12/15/2013  13:16:00        8.954       38.133       51.637       27.828       49.360       39.105      774.384     2436.410     1529.204        0.447        0.237       39.171       38.380        0.960      334.036        3.745      872.584
12/15/2013  13:17:00        6.986       -3.703       10.028       29.803       52.265       19.981      888.245     2731.653      399.235        0.209        0.201        7.907       11.081        1.964      334.141        3.918      872.579
12/15/2013  13:18:00       -4.417        0.068       17.118       18.731       30.202       14.871      350.859      912.176      221.140        0.090        0.074        4.417        5.633        1.626      334.416        4.374      872.561
12/15/2013  13:19:00       -0.712       25.008       20.867       26.727       26.396       35.368      714.346      696.740     1250.877        0.186        0.133       25.018       22.873        0.836      334.143        3.921      872.553
12/15/2013  13:20:00       82.959       -0.529       19.178       54.548       32.981       28.456     2975.466     1087.752      809.740        0.606        0.244       82.961       24.982        0.091      333.780        3.320      872.527
12/15/2013  13:21:00       69.269      -31.864       21.492       46.737       85.089       48.978     2184.328     7240.060     2398.844        0.905        0.591       76.247       56.827        0.555      333.970        3.635      872.493
12/15/2013  13:22:00       51.184       22.872       48.494       41.835       40.194       27.071     1750.155     1615.591      732.812        0.480        0.205       56.062       25.306        0.204      333.949        3.599      872.488
12/15/2013  13:23:00       54.957        6.383       12.311       24.219       30.327       34.619      586.551      919.706     1198.501        0.296        0.135       55.326       26.034        0.221      333.936        3.578      872.483
12/15/2013  13:24:00       30.178       28.296        2.076       22.364       24.958       22.808      500.150      622.907      520.226        0.168        0.082       41.368       15.958        0.149      334.002        3.688      872.472
12/15/2013  13:25:00       -3.801       52.098       -2.481       26.643       22.287       17.002      709.839      496.730      289.074        0.211        0.075       52.237       15.119        0.084      334.112        3.870      872.470
12/15/2013  13:26:00        9.180       26.837       30.732       39.458       27.185       37.452     1556.927      739.032     1402.630        0.272        0.185       28.364       17.857        0.396      334.466        4.457      872.466
12/15/2013  13:27:00      112.983       51.357        9.908       41.131       29.817       29.727     1691.753      889.079      883.693        0.948        0.173      124.107       14.070        0.013      333.910        3.533      872.465
12/15/2013  13:28:00       63.141       43.037       43.770       48.825       33.310       31.585     2383.926     1109.540      997.614        0.612        0.225       76.413       27.094        0.126      334.121        3.884      872.451
12/15/2013  13:29:00       46.334       47.787       64.433       46.230       46.214       37.123     2137.244     2135.751     1378.146        0.712        0.283       66.562       33.337        0.251      334.027        3.729      872.439
12/15/2013  13:30:00       48.221       51.163       53.891       46.044       39.099       32.118     2120.041     1528.729     1031.570        0.626        0.234       70.306       24.692        0.123      334.145        3.924      872.421
12/15/2013  13:31:00        7.376       59.826       84.339       28.480       43.151       34.249      811.132     1861.993     1172.989        0.730        0.192       60.279       24.069        0.159      334.220        4.048      872.400
12/15/2013  13:32:00       83.447       75.606       60.366       50.444       38.122       33.421     2544.628     1453.286     1116.969        1.072        0.256      112.605       23.552        0.044      334.145        3.924      872.369
12/15/2013  13:33:00       10.703      -50.662       21.255       43.475       44.401       32.487     1890.119     1971.415     1055.415        0.402        0.246       51.780       31.256        0.364      334.441        4.417      872.341
12/15/2013  13:34:00       69.266     -100.041       -5.914       51.480       52.019       32.936     2650.181     2705.933     1084.747        1.064        0.322      121.680       31.344        0.066      334.168        3.962      872.326
12/15/2013  13:35:00        4.785        6.431       37.083       20.484       30.456       21.645      419.574      927.547      468.522        0.163        0.091        8.016       19.586        5.970      334.507        4.526      872.315
12/15/2013  13:36:00       -1.647       11.302       40.959       18.289       22.374       16.055      334.477      500.590      257.752        0.145        0.055       11.421       11.282        0.976      334.856        5.104      872.307
12/15/2013  13:37:00       10.362       -7.009       32.594       20.402       46.208       24.278      416.240     2135.197      589.441        0.218        0.157       12.510       22.535        3.245      334.510        4.531      872.317
12/15/2013  13:38:00        2.259       44.300       64.404       31.020       33.639       29.577      962.230     1131.603      874.806        0.454        0.148       44.358       20.962        0.223      334.444        4.421      872.319
12/15/2013  13:39:00       32.744       43.707       34.590       37.832       29.617       37.374     1431.283      877.141     1396.799        0.394        0.185       54.612       26.332        0.232      334.177        3.979      872.305
12/15/2013  13:40:00       44.928       55.860       40.358       42.940       31.309       27.756     1843.880      980.238      770.399        0.518        0.180       71.686       13.813        0.037      334.386        4.325      872.303
12/15/2013  13:41:00      115.045       70.115       34.380       34.698       34.193       30.159     1203.981     1169.188      909.543        1.131        0.164      134.727       14.110        0.011      334.010        3.700      872.295
12/15/2013  13:42:00       33.066       36.289       30.520       33.972       37.190       33.971     1154.121     1383.077     1154.034        0.352        0.185       49.094       23.124        0.222      334.453        4.437      872.269
12/15/2013  13:43:00       77.312       23.563       38.226       66.581       39.677       40.887     4433.044     1574.256     1671.743        0.783        0.384       80.823       48.794        0.364      334.232        4.070      872.260
12/15/2013  13:44:00       53.157       51.218       49.261       78.141       39.048       45.342     6105.972     1524.708     2055.939        0.878        0.484       73.817       54.186        0.539      334.394        4.339      872.263
12/15/2013  13:45:00      112.305       77.122        4.010       52.692       39.701       38.427     2776.497     1576.188     1476.618        1.220        0.291      136.236       14.434        0.011      334.067        3.795      872.269
12/15/2013  13:46:00       95.993       68.549       11.198       44.863       31.648       26.978     2012.713     1001.586      727.833        0.889        0.187      117.956       17.446        0.022      334.040        3.750      872.260
12/15/2013  13:47:00      108.329       74.786        9.210       46.296       29.939       33.577     2143.307      896.345     1127.437        1.079        0.208      131.637       18.381        0.019      334.186        3.992      872.249
12/15/2013  13:48:00       76.932       54.197        1.350       35.956       22.430       20.192     1292.826      503.102      407.713        0.553        0.110       94.105       18.218        0.037      334.104        3.856      872.243
12/15/2013  13:49:00       44.072       33.791       16.611       44.365       33.365       34.153     1968.236     1113.218     1166.457        0.380        0.212       55.535       13.734        0.061      334.295        4.174      872.220
12/15/2013  13:50:00       97.495       52.076        9.969       41.394       26.133       24.190     1713.494      682.932      585.152        0.765        0.149      110.532       16.230        0.022      334.205        4.024      872.232
12/15/2013  13:51:00       98.778       74.757        4.116       46.903       24.671       22.600     2199.897      608.656      510.773        0.934        0.166      123.878       16.671        0.018      334.014        3.706      872.232
12/15/2013  13:52:00       58.245       43.288        5.631       25.993       13.711       18.135      675.615      187.998      328.886        0.325        0.060       72.569       12.378        0.029      334.031        3.736      872.212
12/15/2013  13:53:00       33.299       51.253        0.607       34.401       44.543       21.292     1183.453     1984.083      453.344        0.368        0.181       61.120       21.430        0.123      334.203        4.021      872.206
12/15/2013  13:54:00        7.430       67.676      -14.537       25.648       41.913       16.855      657.842     1756.707      284.104        0.377        0.135       68.082       14.762        0.047      334.262        4.119      872.202
12/15/2013  13:55:00       15.157       66.294       -5.181       17.416       23.919       15.509      303.305      572.095      240.537        0.288        0.056       68.004       10.818        0.025      334.408        4.361      872.192
12/15/2013  13:56:00       -3.045        5.495        0.504       19.528       22.309       17.664      381.339      497.697      312.033        0.062        0.060        6.283        9.631        2.350      334.632        4.733      872.184
12/15/2013  13:57:00        1.955       13.550       25.752       10.366       24.690       14.765      107.451      609.611      218.012        0.089        0.047       13.690       15.270        1.244      334.682        4.815      872.199
12/15/2013  13:58:00       22.912       37.499       13.007       34.931       22.815       27.436     1220.170      520.541      752.742        0.230        0.125       43.945       19.403        0.195      334.369        4.297      872.219
12/15/2013  13:59:00       31.349       16.485        8.643       32.739       29.091       19.368     1071.859      846.299      375.108        0.181        0.115       35.419       14.932        0.178      334.291        4.166      872.213
12/15/2013  14:00:00      -22.305       64.395       -2.008       33.768       60.012       27.343     1140.283     3601.484      747.661        0.507        0.274       68.149       16.959        0.062      334.315        4.207      872.207
12/15/2013  14:01:00      -10.483       66.119       -5.006       23.730       46.929       13.973      563.112     2202.372      195.233        0.373        0.148       66.945       14.933        0.050      334.330        4.231      872.198
12/15/2013  14:02:00      -29.262       59.018      -11.439       20.214       27.455       14.782      408.615      753.796      218.508        0.293        0.069       65.874        6.947        0.011      334.257        4.111      872.179
12/15/2013  14:03:00      -29.342       47.738      -10.615       34.044       35.426       20.298     1159.010     1255.018      412.006        0.304        0.141       56.035       23.102        0.170      334.395        4.338      872.164
12/15/2013  14:04:00       48.330       44.725       11.456       46.955       29.551       29.930     2204.752      873.274      895.784        0.422        0.199       65.850       19.650        0.089      334.475        4.473      872.164
12/15/2013  14:05:00       73.925       47.081        1.244       33.465       27.368       20.939     1119.892      749.002      438.450        0.499        0.115       87.644        9.597        0.012      334.339        4.248      872.165
12/15/2013  14:06:00       33.339       51.325       -8.281       31.881       21.448       20.903     1016.393      460.018      436.929        0.286        0.096       61.202       17.446        0.081      334.335        4.239      872.147
12/15/2013  14:07:00       -9.211       37.212       10.551       17.352       28.688       48.841      301.097      823.009     2385.469        0.254        0.175       38.335       26.608        0.482      334.509        4.528      872.130
12/15/2013  14:08:00       65.452       10.791       20.242       41.594       28.561       30.481     1730.052      815.739      929.096        0.414        0.174       66.336       16.204        0.060      334.284        4.156      872.123
12/15/2013  14:09:00       74.453       80.286       60.593       53.777       30.553       29.986     2891.929      933.506      899.152        1.019        0.236      109.495       25.174        0.053      334.376        4.307      872.102
12/15/2013  14:10:00       48.427       66.710       49.491       31.517       35.506       23.300      993.336     1260.666      542.870        0.602        0.140       82.434       13.739        0.028      334.416        4.374      872.093
12/15/2013  14:11:00       52.772       26.673       39.303       55.578       40.909       33.208     3088.866     1673.522     1102.796        0.545        0.293       59.129       29.334        0.246      334.549        4.595      872.083
12/15/2013  14:12:00       44.469       26.850       18.841       45.720       32.625       29.984     2090.277     1064.402      899.065        0.355        0.203       51.946       13.733        0.070      334.534        4.570      872.071
12/15/2013  14:13:00       88.048       77.667        6.911       42.093       37.200       28.156     1771.863     1383.807      792.737        0.889        0.197      117.408       26.373        0.050      334.301        4.183      872.052
12/15/2013  14:14:00       92.874       76.364       13.906       40.778       29.364       32.446     1662.871      862.263     1052.756        0.911        0.179      120.237       21.807        0.033      334.294        4.173      872.048
12/15/2013  14:15:00      111.095       75.700        6.505       29.923       23.092       22.767      895.361      533.218      518.352        1.003        0.097      134.435       21.531        0.026      334.242        4.086      872.049
12/15/2013  14:16:00       39.635       27.179       -8.053       20.865       17.689       20.542      435.363      312.892      421.965        0.177        0.059       48.058       11.962        0.062      334.376        4.308      872.046
12/15/2013  14:17:00       70.447       30.699       17.576       36.762       32.355       25.806     1351.450     1046.841      665.943        0.464        0.153       76.845       14.932        0.038      334.479        4.478      872.051
12/15/2013  14:18:00       53.833       33.759       17.816       46.167       27.079       31.428     2131.356      733.283      987.745        0.410        0.193       63.543       22.150        0.122      334.533        4.569      872.061
12/15/2013  14:19:00       58.055       39.179       14.844       36.092       32.933       29.375     1302.624     1084.594      862.866        0.419        0.163       70.039       21.565        0.095      334.377        4.310      872.069
12/15/2013  14:20:00       43.827       25.466        7.399       34.336       33.765       21.086     1178.937     1140.094      444.638        0.269        0.138       50.689       16.007        0.100      334.501        4.515      872.076
12/15/2013  14:21:00       47.601       37.305       10.172       28.819       20.938       17.166      830.528      438.384      294.680        0.266        0.078       60.478       10.081        0.028      334.514        4.538      872.092
12/15/2013  14:22:00       24.668       56.652       -5.023       18.434       19.491       15.682      339.830      379.894      245.920        0.240        0.048       61.790        9.594        0.024      334.439        4.411      872.100
12/15/2013  14:23:00       16.838       20.076        7.447       21.460       18.790       21.459      460.530      353.049      460.497        0.101        0.064       26.202       11.817        0.203      334.598        4.677      872.090
12/15/2013  14:24:00       11.333       18.223        7.520       31.088       17.215       15.516      966.473      296.353      240.735        0.101        0.075       21.459       18.189        0.718      334.695        4.838      872.077
12/15/2013  14:25:00       27.613       30.488       16.991       29.449       27.011       23.780      867.247      729.574      565.491        0.207        0.108       41.134       18.750        0.208      334.721        4.881      872.077
12/15/2013  14:26:00       10.525       21.333        3.546       17.577       20.495       14.625      308.953      420.042      213.891        0.076        0.047       23.788       11.477        0.233      334.856        5.107      872.074
12/15/2013  14:27:00       15.297       46.650       31.113       32.982       36.178       25.543     1087.814     1308.852      652.455        0.321        0.152       49.094       18.590        0.143      334.779        4.976      872.075
12/15/2013  14:28:00        5.993       41.166       12.681       24.139       46.881       18.197      582.678     2197.820      331.149        0.250        0.156       41.599       21.157        0.259      334.665        4.788      872.065
12/15/2013  14:29:00       26.692       39.303       19.732       25.441       25.414       17.044      647.249      645.858      290.496        0.211        0.079       47.510       10.576        0.050      334.687        4.824      872.064
12/15/2013  14:30:00       26.459       28.638        7.220       38.037       24.248       21.477     1446.791      587.980      461.266        0.203        0.125       38.990       15.568        0.159      334.823        5.049      872.081
12/15/2013  14:31:00       28.407       35.697       -5.299       29.041       25.331       14.863      843.368      641.679      220.917        0.191        0.085       45.621       13.020        0.081      334.690        4.829      872.088
12/15/2013  14:32:00       49.444       46.491        5.503       32.342       27.005       23.490     1046.010      729.282      551.799        0.348        0.116       67.868       17.624        0.067      334.614        4.703      872.094
12/15/2013  14:33:00       32.514        5.088       20.513       37.379       13.910       12.366     1397.215      193.475      152.910        0.162        0.087       32.910        6.617        0.040      334.863        5.117      872.102
12/15/2013  14:34:00       24.115       28.061       -0.722       18.897       12.365       10.590      357.078      152.881      112.144        0.100        0.031       37.000        5.076        0.019      334.698        4.841      872.104
12/15/2013  14:35:00        8.332       71.409        6.977       34.091       25.572       19.009     1162.174      653.946      361.360        0.370        0.109       71.893       18.007        0.063      334.680        4.812      872.097
12/15/2013  14:36:00       80.463       40.441       17.829       17.957       14.003       19.526      322.447      196.098      381.248        0.466        0.045       90.054        9.561        0.011      334.534        4.570      872.082
12/15/2013  14:37:00       10.311       35.097       -9.652       23.543       18.505        8.937      554.270      342.420       79.879        0.120        0.049       36.580        6.778        0.034      334.600        4.679      872.073
12/15/2013  14:38:00       16.989        9.378        6.083       12.201       14.815       12.195      148.875      219.481      148.727        0.047        0.026       19.405        6.723        0.120      334.745        4.922      872.065
12/15/2013  14:39:00       16.412       53.621       53.971       25.688       39.268       28.330      659.888     1541.995      802.587        0.453        0.150       56.076       28.323        0.255      334.855        5.103      872.051
12/15/2013  14:40:00        2.541       88.342      106.189       28.168       41.501       27.013      793.431     1722.356      729.700        1.117        0.162       88.379       23.811        0.073      334.733        4.900      872.026
12/15/2013  14:41:00       34.379       78.036       69.422       47.217       39.230       33.875     2229.444     1538.982     1147.510        0.850        0.246       85.274       28.085        0.108      334.764        4.951      872.007
12/15/2013  14:42:00       41.146       98.976       94.998       62.244       35.411       32.453     3874.308     1253.936     1053.203        1.335        0.309      107.188       33.241        0.096      334.749        4.927      871.996
12/15/2013  14:43:00      108.210       90.125       34.845       51.301       35.813       43.111     2631.799     1282.552     1858.592        1.341        0.289      140.826       21.112        0.022      334.573        4.634      871.988
12/15/2013  14:44:00       28.873       63.457       64.619       54.338       42.915       29.341     2952.583     1841.717      860.905        0.734        0.283       69.717       25.666        0.136      334.799        5.009      871.980
12/15/2013  14:45:00       72.940       56.062       46.755       44.261       57.931       48.303     1959.002     3356.009     2333.170        0.915        0.382       91.995       44.334        0.232      334.592        4.666      871.965
12/15/2013  14:46:00       65.726       56.473       44.490       51.362       32.769       33.385     2638.090     1073.789     1114.588        0.716        0.241       86.655       27.447        0.100      334.649        4.761      871.951
12/15/2013  14:47:00       75.533       35.145        5.829       37.690       27.623       26.582     1420.543      763.015      706.580        0.493        0.145       83.309       24.154        0.084      334.683        4.817      871.942
12/15/2013  14:48:00       19.804       29.033       -7.433       21.477       15.160       11.670      461.260      229.819      136.198        0.106        0.041       35.144       10.053        0.082      334.688        4.825      871.938
12/15/2013  14:49:00       26.034       51.362       -2.443       28.611       37.330       19.270      818.579     1393.525      371.336        0.295        0.129       57.583       21.169        0.135      334.682        4.815      871.925
12/15/2013  14:50:00        9.214       36.975        3.531       22.674       43.130       21.567      514.092     1860.219      465.134        0.215        0.142       38.106       23.149        0.369      334.743        4.917      871.910
12/15/2013  14:51:00      -11.289        3.328        4.702       22.486       12.338       11.829      505.611      152.220      139.926        0.048        0.040       11.770       12.233        1.080      334.994        5.335      871.913
12/15/2013  14:52:00       20.692       35.895       38.017       29.745       33.751       25.508      884.758     1139.097      650.682        0.292        0.134       41.432       23.486        0.321      334.952        5.264      871.907
12/15/2013  14:53:00       22.167       54.492       52.676       31.324       35.878       26.128      981.179     1287.219      682.697        0.459        0.148       58.828       21.214        0.130      334.885        5.153      871.901
12/15/2013  14:54:00        0.613       12.548       12.359       23.337       22.547       18.569      544.625      508.349      344.797        0.085        0.070       12.563        8.952        0.508      334.947        5.255      871.898
12/15/2013  14:55:00       24.122       30.248        3.291       15.538       18.396       15.626      241.416      338.403      244.178        0.117        0.041       38.689       12.199        0.099      334.725        4.887      871.896
12/15/2013  14:56:00       58.639       39.688       16.325       21.365       25.059       25.213      456.454      627.956      635.677        0.350        0.086       70.807       10.192        0.021      334.575        4.637      871.897
12/15/2013  14:57:00       57.086       50.445       66.540       46.982       35.845       36.702     2207.275     1284.871     1347.023        0.753        0.242       76.181       33.596        0.194      334.654        4.769      871.887
12/15/2013  14:58:00       21.411       65.276       84.328       41.961       41.369       28.853     1760.738     1711.410      832.483        0.807        0.215       68.698       27.172        0.156      334.747        4.923      871.886
12/15/2013  14:59:00       71.943       83.192       52.342       39.019       20.031       27.268     1522.466      401.258      743.530        0.875        0.133      109.985       22.164        0.041      334.672        4.798      871.887
12/15/2013  15:00:00       27.293        6.930       18.604       27.515       31.300       15.814      757.092      979.693      250.094        0.156        0.099       28.159       18.023        0.410      334.768        4.959      871.885
12/15/2013  15:01:00      -11.925       16.920       16.857       21.949       22.095       18.229      481.740      488.184      332.288        0.101        0.065       20.700       14.765        0.509      334.930        5.228      871.888
12/15/2013  15:02:00       12.590       17.248       10.310       19.109       16.543       10.203      365.152      273.687      104.102        0.065        0.037       21.354        2.596        0.015      334.903        5.183      871.888
12/15/2013  15:03:00       33.247       33.812       14.987       11.615       12.732       15.489      134.907      162.105      239.896        0.150        0.027       47.420        8.230        0.030      334.687        4.824      871.891
12/15/2013  15:04:00       43.599       69.210       65.883       44.962       25.949       21.795     2021.578      673.374      475.042        0.710        0.158       81.798       21.817        0.071      334.738        4.909      871.895
12/15/2013  15:05:00       27.612       49.394       61.971       32.770       33.452       16.219     1073.881     1119.004      263.069        0.475        0.123       56.588       16.742        0.088      334.800        5.011      871.900
12/15/2013  15:06:00       65.019       51.752       45.034       33.248       26.351       27.281     1105.408      694.353      744.266        0.574        0.127       83.100       18.017        0.047      334.780        4.979      871.903
12/15/2013  15:07:00       55.181       39.594       33.932       41.003       34.610       36.332     1681.282     1197.832     1319.982        0.498        0.210       67.917       30.571        0.203      334.809        5.027      871.906
12/15/2013  15:08:00       25.395       18.262       32.852       38.540       30.628       23.461     1485.306      938.047      550.416        0.252        0.149       31.280       13.469        0.185      334.895        5.169      871.897
12/15/2013  15:09:00       84.151       29.512       22.648       41.591       31.517       26.039     1729.778      993.337      678.006        0.593        0.170       89.176       21.913        0.060      334.734        4.902      871.883
12/15/2013  15:10:00      108.951       51.296        9.849       39.432       31.348       20.870     1554.896      982.673      435.569        0.879        0.149      120.422       18.536        0.024      334.701        4.847      871.872
12/15/2013  15:11:00       42.006       38.842       25.744       34.290       28.048       22.966     1175.780      786.679      527.448        0.321        0.124       57.212       20.413        0.127      334.827        5.056      871.864
12/15/2013  15:12:00       68.124       73.831       79.351       46.752       35.988       28.073     2185.705     1295.136      788.105        1.033        0.213      100.459       15.937        0.025      334.796        5.004      871.862
12/15/2013  15:13:00       61.838       95.453       92.619       44.684       36.132       27.860     1996.653     1305.552      776.198        1.280        0.204      113.733       21.635        0.036      334.769        4.959      871.859
12/15/2013  15:14:00       72.038       97.449       73.858       32.058       24.669       29.843     1027.704      608.568      890.622        1.133        0.126      121.185       17.695        0.021      334.833        5.066      871.854
12/15/2013  15:15:00       40.969       69.196       72.530       59.001       34.341       20.615     3481.081     1179.278      424.974        0.841        0.254       80.415       21.630        0.072      334.957        5.273      871.849
12/15/2013  15:16:00       63.024       54.590       56.329       43.495       40.337       30.620     1891.803     1627.107      937.557        0.729        0.223       83.379       27.316        0.107      334.783        4.982      871.851
12/15/2013  15:17:00       75.165       59.230       57.482       42.503       35.985       32.799     1806.477     1294.943     1075.759        0.832        0.209       95.697       23.766        0.062      334.829        5.060      871.852
12/15/2013  15:18:00       60.132       26.772       38.743       36.902       45.719       33.628     1361.748     2090.196     1130.849        0.521        0.229       65.823       30.512        0.215      334.816        5.038      871.869
12/15/2013  15:19:00      118.792       67.092       23.880       37.095       34.315       31.457     1376.042     1177.540      989.553        1.136        0.177      136.429       26.332        0.037      334.686        4.823      871.864
12/15/2013  15:20:00      112.086       66.362       22.040       38.202       34.010       31.058     1459.381     1156.661      964.599        1.052        0.179      130.258       18.301        0.020      334.679        4.809      871.866
12/15/2013  15:21:00       87.505       58.988       25.077       33.958       25.843       28.062     1153.124      667.843      787.502        0.719        0.130      105.530       19.689        0.035      334.704        4.850      871.865
12/15/2013  15:22:00       73.912       20.580       35.736       32.067       35.707       27.437     1028.322     1274.964      752.803        0.511        0.153       76.724       24.342        0.101      334.747        4.922      871.866
12/15/2013  15:23:00       55.646       50.520       18.015       58.113       30.166       22.961     3377.106      909.976      527.194        0.539        0.241       75.158       26.571        0.125      334.842        5.081      871.866
12/15/2013  15:24:00        2.712       39.453       54.417       26.584       39.776       24.739      706.699     1582.104      611.997        0.371        0.145       39.546       23.771        0.361      334.926        5.221      871.871
12/15/2013  15:25:00       74.825       76.308       35.006       46.070       24.443       31.088     2122.481      597.441      966.483        0.817        0.184      106.872       18.312        0.029      334.810        5.029      871.870
12/15/2013  15:26:00       35.671       43.210       51.610       29.046       30.425       22.238      843.643      925.696      494.518        0.403        0.113       56.032       17.450        0.097      334.856        5.104      871.864
12/15/2013  15:27:00        7.654       39.128       54.341       27.180       33.573       27.308      738.760     1127.161      745.722        0.358        0.131       39.870       22.995        0.333      334.917        5.207      871.861
12/15/2013  15:28:00        6.001       49.159       68.638       24.746       32.171       19.182      612.371     1034.965      367.947        0.459        0.101       49.524       19.371        0.153      334.846        5.088      871.866
12/15/2013  15:29:00       74.750       65.602       31.166       25.028       23.110       24.444      626.411      534.083      597.525        0.631        0.088       99.454       16.418        0.027      334.719        4.876      871.870
12/15/2013  15:30:00       87.143       56.268        6.772       31.564       32.670       21.796      996.268     1067.315      475.082        0.667        0.127      103.730       14.815        0.020      334.684        4.819      871.871
12/15/2013  15:31:00      121.073       72.093       11.520       43.176       28.371       22.954     1864.199      804.897      526.885        1.159        0.160      140.912       19.597        0.019      334.642        4.749      871.870
12/15/2013  15:32:00       68.018       52.576       18.255       27.443       20.211       20.999      753.133      408.489      440.966        0.466        0.080       85.969       18.324        0.045      334.625        4.719      871.862
12/15/2013  15:33:00       41.679       31.336       42.576       27.003       28.017       25.494      729.155      784.931      649.950        0.335        0.108       52.145       24.358        0.218      334.742        4.914      871.854
12/15/2013  15:34:00       67.386       54.771       35.770       24.866       18.794       24.976      618.294      353.212      623.818        0.521        0.080       86.837        9.835        0.013      334.729        4.892      871.855
12/15/2013  15:35:00       54.443       -0.684       22.222       34.259       29.467       30.172     1173.652      868.310      910.341        0.320        0.148       54.447       18.849        0.120      334.718        4.876      871.852
12/15/2013  15:36:00       76.927       50.233       35.353       44.626       29.425       27.022     1991.513      865.857      730.166        0.664        0.179       91.875       18.147        0.039      334.722        4.882      871.848
12/15/2013  15:37:00       58.559       47.106       25.915       41.299       20.191       13.555     1705.611      407.693      183.749        0.431        0.115       75.154       12.773        0.029      334.692        4.832      871.852
12/15/2013  15:38:00       38.832       30.050       24.662       37.738       25.245       28.214     1424.140      637.291      796.030        0.294        0.143       49.102       24.857        0.256      334.808        5.026      871.852
12/15/2013  15:39:00       24.855       52.187       60.336       30.229       29.514       19.837      913.766      871.087      393.496        0.458        0.109       57.804       16.406        0.081      334.871        5.128      871.857
12/15/2013  15:40:00       68.979       64.787       23.972       26.395       22.507       26.714      696.714      506.568      713.632        0.572        0.096       94.633       19.087        0.041      334.707        4.855      871.862
12/15/2013  15:41:00       50.894       42.637       20.323       30.451       12.929       17.419      927.264      167.152      303.433        0.311        0.070       66.394        9.481        0.020      334.729        4.895      871.867
12/15/2013  15:42:00       50.981       47.343       37.423       38.063       25.575       21.074     1448.782      654.057      444.122        0.439        0.127       69.574       18.444        0.070      334.743        4.918      871.874
12/15/2013  15:43:00       28.520       49.420       59.124       24.738       27.953       16.917      611.953      781.365      286.200        0.422        0.084       57.059       17.124        0.090      334.758        4.942      871.875
12/15/2013  15:44:00       26.397       45.851       50.190       25.880       28.387       20.766      669.789      805.828      431.208        0.361        0.095       52.907       19.030        0.129      334.767        4.958      871.865
12/15/2013  15:45:00       23.834       61.735       75.712       27.063       34.226       24.029      732.430     1171.395      577.393        0.630        0.124       66.176       24.223        0.134      334.798        5.008      871.851
12/15/2013  15:46:00       75.215       89.829       67.943       23.614       25.564       29.799      557.626      653.496      888.004        1.022        0.105      117.160       16.131        0.019      334.730        4.893      871.849
12/15/2013  15:47:00       60.413       75.010       55.085       33.340       25.844       24.551     1111.585      667.894      602.755        0.735        0.119       96.313        5.968        0.004      334.737        4.905      871.859
12/15/2013  15:48:00       95.053       60.247       35.939       25.689       21.033       24.787      659.901      442.375      614.393        0.784        0.086      112.537        8.965        0.006      334.684        4.818      871.865
12/15/2013  15:49:00       84.734       51.602       41.354       43.137       42.888       29.985     1860.844     1839.371      899.103        0.808        0.230       99.210       17.276        0.030      334.677        4.807      871.869
12/15/2013  15:50:00       95.622       34.973       18.643       41.303       31.416       27.362     1705.941      986.942      748.690        0.708        0.172      101.817       17.963        0.031      334.653        4.767      871.870
12/15/2013  15:51:00       41.849       34.623       34.638       36.670       34.302       19.370     1344.683     1176.645      375.203        0.352        0.145       54.315        8.183        0.023      334.719        4.877      871.866
12/15/2013  15:52:00       55.514       50.403       36.352       37.441       33.404       23.288     1401.859     1115.808      542.327        0.500        0.153       74.982       14.176        0.036      334.692        4.831      871.876
12/15/2013  15:53:00       39.608       56.926       61.204       29.917       34.150       32.357      895.035     1166.204     1046.990        0.583        0.155       69.350       28.861        0.173      334.745        4.920      871.879
12/15/2013  15:54:00       68.634       53.285       48.301       33.530       38.809       29.686     1124.261     1506.103      881.263        0.670        0.176       86.890       17.053        0.039      334.717        4.874      871.873
12/15/2013  15:55:00      107.025       58.536       43.200       51.564       29.807       36.987     2658.888      888.455     1368.001        1.083        0.246      121.987       33.468        0.075      334.662        4.782      871.859
12/15/2013  15:56:00       61.820       44.460       48.782       44.529       26.864       31.703     1982.821      721.656     1005.050        0.594        0.185       76.147       24.492        0.103      334.684        4.819      871.852
12/15/2013  15:57:00       64.472       69.142       68.733       45.405       36.346       38.266     2061.579     1321.036     1464.269        0.925        0.242       94.537       34.530        0.133      334.700        4.846      871.846
12/15/2013  15:58:00       81.841       58.606       54.680       44.623       58.203       37.771     1991.231     3387.553     1426.633        0.996        0.340      100.661       41.714        0.172      334.646        4.756      871.830
12/15/2013  15:59:00       56.443       59.130       52.927       38.737       29.824       29.187     1500.566      889.476      851.906        0.636        0.162       81.744       17.102        0.044      334.679        4.810      871.817
12/15/2013  16:00:00       42.461       76.775       55.500       46.773       40.858       27.335     2187.707     1669.349      747.193        0.769        0.230       87.734       15.982        0.033      334.669        4.794      871.813
12/15/2013  16:01:00       55.437       52.940       41.697       33.893       24.114       33.292     1148.708      581.478     1108.345        0.523        0.142       76.654       24.082        0.099      334.646        4.756      871.808
12/15/2013  16:02:00       93.517       49.040       21.106       41.426       27.520       27.634     1716.085      757.351      763.653        0.742        0.162      105.595       14.253        0.018      334.647        4.758      871.809
12/15/2013  16:03:00       84.198       73.143       48.390       30.701       29.442       31.585      942.559      866.819      997.595        0.879        0.140      111.531       16.978        0.023      334.664        4.785      871.816
12/15/2013  16:04:00       33.921       68.122       69.455       33.094       30.696       18.762     1095.182      942.232      352.011        0.650        0.119       76.100        9.252        0.015      334.666        4.790      871.833
12/15/2013  16:05:00       30.999       34.217       47.948       30.120       27.671       21.108      907.207      765.659      445.532        0.327        0.106       46.171       19.035        0.170      334.723        4.884      871.831
12/15/2013  16:06:00       -0.080       22.794       42.830       24.184       25.298       16.348      584.842      639.977      267.246        0.192        0.075       22.794       14.223        0.389      334.713        4.867      871.833
12/15/2013  16:07:00       46.180       48.904       37.401       30.035       15.812       24.275      902.094      250.022      589.274        0.383        0.087       67.262       23.990        0.127      334.615        4.704      871.837
12/15/2013  16:08:00        5.115       13.208       37.267       16.763       19.472        9.433      281.002      379.162       88.986        0.117        0.037       14.164        7.178        0.257      334.649        4.762      871.837
12/15/2013  16:09:00       54.460      -48.308        5.940       26.321       38.471       21.480      692.781     1480.053      461.382        0.398        0.132       72.798       12.067        0.027      334.655        4.770      871.844
12/15/2013  16:10:00       50.624      -29.843        0.788       26.169       23.043       15.303      684.814      530.966      234.192        0.245        0.072       58.766       13.277        0.051      334.628        4.725      871.847
12/15/2013  16:11:00       38.490      -46.356        6.381       25.658       28.919       15.164      658.335      836.328      229.961        0.270        0.086       60.252       15.073        0.063      334.631        4.731      871.838
12/15/2013  16:12:00       15.589       16.970       29.442       16.792       17.614        9.940      281.963      310.240       98.801        0.104        0.035       23.044        6.350        0.076      334.583        4.651      871.843
12/15/2013  16:13:00        4.924        9.059       21.033        9.759       15.459       12.116       95.233      238.983      146.797        0.051        0.024       10.311        7.021        0.464      334.529        4.562      871.834
12/15/2013  16:14:00       10.191       -4.302       16.344       16.261       29.308       13.307      264.415      858.931      177.080        0.084        0.065       11.062        2.555        0.053      334.587        4.657      871.836
12/15/2013  16:15:00       16.202      -23.879        4.135       16.741       26.773       17.104      280.269      716.791      292.558        0.107        0.064       28.857       12.138        0.177      334.583        4.652      871.828
12/15/2013  16:16:00       18.844      -20.963       16.016       17.670       32.327       19.652      312.241     1045.067      386.195        0.140        0.087       28.187       19.366        0.472      334.566        4.624      871.815
12/15/2013  16:17:00       58.783       47.745       31.455       23.878       17.947       16.756      570.173      322.105      280.755        0.395        0.059       75.730       10.317        0.019      334.517        4.541      871.803
12/15/2013  16:18:00       12.097      -16.817       10.592       24.390       32.713       14.964      594.852     1070.131      223.922        0.121        0.094       20.716       17.366        0.703      334.563        4.617      871.804
12/15/2013  16:19:00       -1.150      -47.296        4.210       18.202       19.897       14.205      331.296      395.892      201.772        0.159        0.046       47.310       11.921        0.063      334.578        4.643      871.808
12/15/2013  16:20:00        6.161      -12.958       13.398       13.698       21.900       15.330      187.634      479.603      235.003        0.064        0.045       14.348       16.006        1.244      334.567        4.626      871.824
12/15/2013  16:21:00       -1.816       -3.668       13.098        7.925       10.949        8.053       62.800      119.876       64.848        0.022        0.012        4.093        5.477        1.791      334.548        4.593      871.822
12/15/2013  16:22:00        1.139       13.793       19.780        7.399        9.932        7.534       54.749       98.647       56.766        0.040        0.011       13.840        5.083        0.135      334.519        4.546      871.823
12/15/2013  16:23:00       -1.525       15.227       30.298        8.131       15.127        9.469       66.112      228.827       89.664        0.077        0.019       15.303        7.296        0.227      334.530        4.563      871.830
12/15/2013  16:24:00       19.211       24.662       28.973       19.222       15.366       16.332      369.499      236.128      266.740        0.134        0.044       31.262       13.504        0.187      334.455        4.439      871.830
12/15/2013  16:25:00       15.145       18.106       13.619       11.752        9.392       10.323      138.103       88.211      106.574        0.054        0.017       23.605        6.231        0.070      334.441        4.416      871.841
12/15/2013  16:26:00       37.888       15.877       14.817       19.793       14.757       10.641      391.772      217.770      113.225        0.131        0.036       41.080       11.470        0.078      334.471        4.466      871.840
12/15/2013  16:27:00       50.514       32.316        7.688       16.940       13.389       13.282      286.972      179.253      176.406        0.215        0.032       59.967        7.901        0.017      334.479        4.480      871.837
12/15/2013  16:28:00       66.111       25.894       12.025       16.256       11.678       13.942      264.252      136.365      194.393        0.289        0.030       71.002        3.962        0.003      334.437        4.410      871.839
12/15/2013  16:29:00       51.657       43.911       11.695       19.544       14.766       16.216      381.950      218.035      262.958        0.280        0.043       67.799        8.139        0.014      334.407        4.359      871.841
12/15/2013  16:30:00       40.834       43.337       28.420       19.332       19.033       10.986      373.741      362.257      120.684        0.260        0.043       59.544        8.626        0.021      334.398        4.344      871.849
12/15/2013  16:31:00       61.964       42.402       27.709       11.378       13.771       14.612      129.466      189.640      213.514        0.347        0.027       75.083        4.105        0.003      334.454        4.437      871.852
12/15/2013  16:32:00       48.607       28.811        9.436       12.320       10.879        9.316      151.793      118.343       86.786        0.182        0.018       56.504        1.954        0.001      334.389        4.329      871.852
12/15/2013  16:33:00       39.893       25.577        4.261        8.401        6.603        9.819       70.584       43.599       96.410        0.124        0.011       47.388        4.861        0.011      334.450        4.429      871.851
12/15/2013  16:34:00       48.051       19.344        1.835        8.371        6.497        6.303       70.079       42.210       39.724        0.142        0.008       51.799        3.616        0.005      334.413        4.368      871.849
12/15/2013  16:35:00       46.022       25.988        2.342        6.223        4.208        5.689       38.722       17.709       32.370        0.144        0.004       52.853        3.020        0.003      334.454        4.440      871.849
12/15/2013  16:36:00       44.049       20.858        4.224        6.063        7.757        6.388       36.763       60.169       40.801        0.127        0.007       48.738        4.658        0.009      334.442        4.418      871.849
12/15/2013  16:37:00       34.387       14.534        7.626        7.250        6.677        8.073       52.567       44.587       65.176        0.081        0.008       37.333        4.030        0.012      334.442        4.420      871.842
12/15/2013  16:38:00       22.046        8.388        9.470       13.992        9.086        8.511      195.762       82.553       72.434        0.050        0.018       23.588        7.303        0.096      334.405        4.357      871.842
12/15/2013  16:39:00      -12.829      -13.371        2.320       11.098       10.536        6.942      123.171      111.012       48.188        0.032        0.014       18.530        7.736        0.174      334.255        4.108      871.838
12/15/2013  16:40:00      -42.231      -10.873       -1.905       16.372        8.477        7.527      268.046       71.864       56.656        0.115        0.020       43.608        5.834        0.018      334.186        3.992      871.834
12/15/2013  16:41:00      -58.735       -4.273       -3.509       17.459        8.112        9.466      304.803       65.812       89.602        0.197        0.023       58.890        9.283        0.025      334.018        3.715      871.825
12/15/2013  16:42:00      -63.414       -2.152       -7.623       12.280       10.785        7.511      150.790      116.326       56.417        0.220        0.016       63.450        4.508        0.005      333.961        3.621      871.816
12/15/2013  16:43:00      -69.111        4.364      -11.260        8.890        8.094        6.129       79.026       65.518       37.565        0.255        0.009       69.249        3.794        0.003      334.003        3.690      871.811
12/15/2013  16:44:00      -59.795       13.495       -9.826       12.081        8.211        7.735      145.955       67.423       59.837        0.206        0.014       61.299        6.045        0.010      334.072        3.803      871.814
12/15/2013  16:45:00      -28.158        5.355       -3.375       13.494       13.393       12.563      182.084      179.377      157.840        0.068        0.026       28.663        8.573        0.089      333.991        3.670      871.818
12/15/2013  16:46:00      -53.540        2.580       -5.456       13.074        7.787        8.105      170.926       60.630       65.690        0.160        0.015       53.602        7.992        0.022      333.932        3.573      871.827
12/15/2013  16:47:00      -65.395       -0.546      -11.352       12.043        8.512       10.080      145.041       72.449      101.615        0.236        0.016       65.398        3.607        0.003      333.631        3.072      871.829
12/15/2013  16:48:00      -75.626       -7.654      -13.920        8.421        8.990        8.051       70.913       80.825       64.825        0.309        0.011       76.012        4.244        0.003      333.508        2.868      871.829
12/15/2013  16:49:00      -72.782        0.925      -12.057       24.588       18.604       19.478      604.559      346.125      379.403        0.339        0.067       72.788       15.294        0.044      333.573        2.977      871.832
12/15/2013  16:50:00      -47.896      -10.783       -6.301       23.789       24.183       14.856      565.922      584.819      220.691        0.191        0.069       49.095       15.334        0.098      333.554        2.945      871.843
12/15/2013  16:51:00      -37.039       -0.656       -5.662       19.233       16.134       13.940      369.899      260.312      194.336        0.111        0.041       37.044       12.789        0.119      333.584        2.996      871.857
12/15/2013  16:52:00      -51.676        1.349      -16.386       20.244       15.209       10.651      409.817      231.311      113.434        0.185        0.038       51.694       11.368        0.048      333.510        2.871      871.881
12/15/2013  16:53:00      -46.583      -12.131      -12.937       13.307       18.613        9.990      177.067      346.455       99.809        0.155        0.031       48.136        8.538        0.031      333.468        2.801      871.895
12/15/2013  16:54:00      -56.975       -8.940      -15.184       13.831       10.041        6.972      191.286      100.815       48.613        0.195        0.017       57.672        4.590        0.006      333.350        2.605      871.906
12/15/2013  16:55:00      -60.186      -10.548      -15.327       12.647       16.297        8.828      159.939      265.584       77.931        0.224        0.025       61.103        8.447        0.019      333.274        2.480      871.921
12/15/2013  16:56:00      -63.034      -17.513      -15.187       14.575       15.547       11.117      212.443      241.704      123.578        0.254        0.029       65.422        8.997        0.019      333.247        2.437      871.930
12/15/2013  16:57:00      -68.414      -23.465      -12.929       16.734       15.160       13.386      280.015      229.839      179.181        0.304        0.034       72.326        7.300        0.010      333.298        2.521      871.937
12/15/2013  16:58:00      -79.855      -18.599       -7.861       16.912       13.572       12.603      286.028      184.190      158.823        0.371        0.031       81.993        8.536        0.011      333.294        2.514      871.947
12/15/2013  16:59:00      -75.555      -29.642      -15.410       15.726       15.757       14.214      247.297      248.283      202.031        0.376        0.035       81.161       10.703        0.017      333.324        2.564      871.952
12/15/2013  17:00:00      -77.994      -24.793      -17.581       14.450       14.577       10.775      208.802      212.491      116.093        0.377        0.027       81.840        1.818        0.000      333.248        2.437      871.960
12/15/2013  17:01:00      -63.088      -13.386      -15.219       15.558       14.118       11.056      242.057      199.322      122.243        0.248        0.028       64.492        8.046        0.016      333.148        2.273      871.966
12/15/2013  17:02:00      -64.210       -1.750      -13.075       14.720       10.982        9.058      216.682      120.594       82.047        0.236        0.021       64.234        3.926        0.004      333.181        2.326      871.962
12/15/2013  17:03:00      -60.504      -13.549      -10.862       12.891       13.766       10.258      166.189      189.511      105.231        0.221        0.023       62.003        7.854        0.016      333.120        2.226      871.965
12/15/2013  17:04:00      -70.511      -22.509      -13.222       16.817       13.413       12.184      282.802      179.907      148.448        0.313        0.031       74.017        6.585        0.008      333.020        2.063      871.968
12/15/2013  17:05:00      -67.526      -26.449      -14.495       20.341       14.096       13.733      413.746      198.698      188.583        0.314        0.040       72.521        6.602        0.008      333.065        2.135      871.961
12/15/2013  17:06:00     -101.124      -11.281      -16.572       33.313       17.319       14.989     1109.756      299.965      224.661        0.613        0.082      101.751        8.650        0.007      332.961        1.962      871.951
12/15/2013  17:07:00     -123.193      -43.008       -8.569       40.642       33.232       18.659     1651.788     1104.395      348.162        1.010        0.155      130.485       16.328        0.016      333.005        2.038      871.942
12/15/2013  17:08:00      -85.362      -17.204       -3.109       35.948       36.791       19.284     1292.277     1353.602      371.870        0.530        0.151       87.078       17.050        0.038      333.090        2.178      871.942
12/15/2013  17:09:00      -55.531      -19.412        1.073       33.939       23.433       18.570     1151.859      549.107      344.840        0.275        0.102       58.826       15.754        0.072      333.055        2.120      871.941
12/15/2013  17:10:00      -63.504      -13.069        6.473       29.774       24.646       19.622      886.501      607.448      385.035        0.306        0.094       64.835       15.676        0.058      333.104        2.201      871.941
12/15/2013  17:11:00      -53.354      -12.592       -4.527       32.308       25.216       21.479     1043.803      635.831      461.343        0.258        0.107       54.820       12.010        0.048      333.067        2.141      871.952
12/15/2013  17:12:00      -66.585      -27.193       -5.185       27.692       31.183       17.449      766.820      972.369      304.475        0.362        0.102       71.924       11.268        0.025      333.071        2.147      871.953
12/15/2013  17:13:00      -88.126      -34.941       -4.571       20.742       24.859       16.499      430.241      617.956      272.223        0.516        0.066       94.800       11.143        0.014      332.995        2.020      871.956
12/15/2013  17:14:00      -98.231      -24.735      -16.944       24.130       21.203       17.297      582.258      449.570      299.185        0.594        0.067      101.297        4.608        0.002      332.955        1.954      871.964
12/15/2013  17:15:00     -104.059      -39.207       -9.224       27.129       19.776       14.414      735.998      391.077      207.774        0.689        0.067      111.200       11.265        0.010      332.921        1.898      871.972
12/15/2013  17:16:00      -74.348      -30.537       -5.153       38.113       26.928       16.436     1452.620      725.102      270.141        0.447        0.122       80.375        9.444        0.014      332.895        1.856      871.986
12/15/2013  17:17:00      -98.432      -25.101       -1.675       47.315       29.962       19.826     2238.690      897.717      393.067        0.692        0.176      101.582       19.407        0.036      332.906        1.875      872.010
12/15/2013  17:18:00     -114.591      -17.464      -11.364       45.493       25.646       18.381     2069.624      657.727      337.862        0.831        0.153      115.914       16.094        0.019      332.884        1.837      872.022
12/15/2013  17:19:00      -69.995       -7.541       -8.268       22.348       21.566       16.330      499.421      465.112      266.684        0.313        0.062       70.400       13.357        0.036      332.794        1.689      872.025
12/15/2013  17:20:00      -57.595      -11.128       -9.782       18.213       18.381       12.294      331.728      337.856      151.152        0.218        0.041       58.660        5.429        0.009      332.747        1.612      872.027
12/15/2013  17:21:00      -64.585       -4.408      -12.954       13.035       14.793       18.463      169.924      218.822      340.878        0.254        0.036       64.735        8.041        0.015      332.789        1.681      872.030
12/15/2013  17:22:00      -70.351      -13.758      -15.437       12.215       13.063       11.831      149.204      170.634      139.984        0.292        0.023       71.683       10.293        0.021      332.624        1.407      872.029
12/15/2013  17:23:00      -92.981       -5.501      -14.625       12.721       10.888       10.578      161.833      118.559      111.901        0.464        0.020       93.144        4.385        0.002      332.597        1.362      872.027
12/15/2013  17:24:00      -95.314        0.592      -16.436       23.846       17.506       18.749      568.652      306.445      351.507        0.529        0.061       95.315       17.063        0.032      332.528        1.248      872.036
12/15/2013  17:25:00     -111.274       -9.926      -17.998       28.490       26.323       15.346      811.657      692.895      235.514        0.727        0.087      111.716       12.735        0.013      332.515        1.228      872.043
12/15/2013  17:26:00     -112.385      -13.671      -19.174       22.250       23.282       15.108      495.080      542.035      228.246        0.722        0.063      113.213       11.308        0.010      332.468        1.152      872.047
12/15/2013  17:27:00     -124.313       -6.466      -16.740       24.235       16.301       13.401      587.332      265.737      179.576        0.840        0.052      124.481        6.122        0.002      332.403        1.043      872.055
12/15/2013  17:28:00     -102.280      -23.821      -11.116       21.256       22.052       12.378      451.804      486.294      153.218        0.612        0.055      105.017       10.456        0.010      332.400        1.038      872.052
12/15/2013  17:29:00     -108.832      -35.577      -14.696       21.100       26.428       16.722      445.196      698.423      279.639        0.737        0.071      114.500       14.825        0.017      332.431        1.089      872.051
12/15/2013  17:30:00     -126.899       -9.485      -12.198       30.061       18.849       16.259      903.653      355.272      264.359        0.893        0.076      127.253       15.324        0.015      332.456        1.129      872.059
12/15/2013  17:31:00     -132.251       -4.897      -18.425       22.508       20.377       19.988      506.590      415.208      399.502        0.959        0.066      132.341       14.897        0.013      332.447        1.116      872.075
12/15/2013  17:32:00     -121.553      -16.592      -11.190       40.210       22.546       19.846     1616.876      508.334      393.864        0.885        0.126      122.681       14.346        0.014      332.440        1.104      872.079
12/15/2013  17:33:00     -155.698      -11.366      -20.262       19.920       14.517       13.462      396.792      210.755      181.229        1.279        0.039      156.112        7.303        0.002      332.397        1.035      872.088
12/15/2013  17:34:00      -90.731      -13.737       -6.845       20.266       22.650       19.615      410.693      513.018      384.753        0.489        0.065       91.765       11.125        0.015      332.430        1.086      872.094
12/15/2013  17:35:00     -113.236      -17.154      -18.576       28.804       24.527       22.130      829.690      601.585      489.735        0.769        0.096      114.528       14.512        0.016      332.433        1.091      872.109
12/15/2013  17:36:00     -103.942      -16.863       -7.629       24.633       20.600       20.342      606.772      424.380      413.816        0.630        0.072      105.301       14.744        0.020      332.387        1.017      872.112
12/15/2013  17:37:00     -121.072      -17.641      -19.850       25.106       23.202       15.331      630.324      538.341      235.039        0.838        0.070      122.350        9.794        0.006      332.393        1.026      872.120
12/15/2013  17:38:00     -124.377       -9.559      -13.345       30.158       22.420       18.201      909.530      502.653      331.266        0.874        0.087      124.744       13.912        0.012      332.363        0.976      872.124
12/15/2013  17:39:00     -125.164      -14.704      -20.160       40.803       29.020       17.543     1664.869      842.189      307.749        0.955        0.141      126.025       15.544        0.015      332.390        1.020      872.122
12/15/2013  17:40:00     -106.389      -29.534      -13.561       28.000       26.345       25.669      783.989      694.068      658.876        0.726        0.107      110.413       16.740        0.023      332.410        1.053      872.118
12/15/2013  17:41:00     -137.001       -3.156       -8.791       40.128       26.534       22.844     1610.291      704.042      521.852        1.085        0.142      137.038       23.887        0.030      332.329        0.920      872.123
12/15/2013  17:42:00     -148.120      -15.059      -16.952       27.555       22.356       18.202      759.303      499.775      331.295        1.202        0.080      148.884       10.845        0.005      332.345        0.948      872.128
12/15/2013  17:43:00     -142.978      -14.528      -18.482       40.955       26.099       24.206     1677.322      681.184      585.931        1.197        0.147      143.714       22.324        0.024      332.276        0.833      872.132
12/15/2013  17:44:00     -148.391      -32.879      -11.706       34.884       27.757       19.826     1216.880      770.473      393.089        1.281        0.119      151.989       16.841        0.012      332.229        0.757      872.144
12/15/2013  17:45:00     -157.412      -32.121      -19.639       29.873       21.921       15.167      892.382      480.543      230.050        1.390        0.080      160.656       11.354        0.005      332.172        0.663      872.146
12/15/2013  17:46:00     -146.375      -24.301      -17.788       47.476       24.153       20.767     2253.949      583.355      431.278        1.280        0.163      148.379       15.593        0.011      332.102        0.546      872.137
12/15/2013  17:47:00     -130.559       -4.074       -9.552       41.669       28.072       24.419     1736.344      788.027      596.280        1.014        0.156      130.623       23.157        0.031      332.119        0.574      872.140
12/15/2013  17:48:00     -117.654      -13.029      -14.766       42.234       29.369       25.077     1783.743      862.545      628.867        0.875        0.164      118.373       25.528        0.047      332.125        0.584      872.150
12/15/2013  17:49:00     -145.676      -17.075      -20.148       41.826       25.798       30.405     1749.417      665.529      924.459        1.263        0.167      146.673       27.220        0.034      332.107        0.555      872.148
12/15/2013  17:50:00     -142.436      -11.113      -16.630       31.854       24.609       18.140     1014.666      605.609      329.075        1.132        0.097      142.869       15.120        0.011      332.120        0.577      872.141
12/15/2013  17:51:00     -107.889      -39.737      -12.532       28.708       30.070       21.832      824.128      904.177      476.654        0.779        0.110      114.975       14.840        0.017      332.184        0.682      872.134
12/15/2013  17:52:00     -151.811       -7.719      -17.636       22.397       22.578       15.820      501.638      509.772      250.257        1.234        0.063      152.008        5.762        0.001      332.133        0.598      872.131
12/15/2013  17:53:00     -125.236      -18.516      -13.439       33.983       22.548       18.628     1154.832      508.397      346.995        0.911        0.101      126.598       11.054        0.008      332.154        0.635      872.140
12/15/2013  17:54:00     -147.251       -2.682      -22.832       23.314       14.771       13.094      543.536      218.173      171.449        1.157        0.047      147.275        8.274        0.003      332.089        0.525      872.159
12/15/2013  17:55:00     -128.957      -13.881      -15.878       23.935       27.287       17.402      572.870      744.592      302.834        0.935        0.081      129.702       15.153        0.014      332.094        0.533      872.170
12/15/2013  17:56:00     -126.692      -14.732      -21.602       22.223       18.293       16.045      493.881      334.642      257.438        0.891        0.054      127.546        9.916        0.006      332.075        0.502      872.180
12/15/2013  17:57:00     -111.958      -12.208      -14.321       31.012       22.055       23.002      961.745      486.433      529.077        0.743        0.099      112.621       17.016        0.023      332.096        0.535      872.189
12/15/2013  17:58:00      -99.438      -18.246      -16.201       16.717       28.308       17.274      279.469      801.351      298.379        0.593        0.069      101.099       15.596        0.024      332.081        0.511      872.196
12/15/2013  17:59:00     -114.121      -21.114      -16.298       27.090       22.247       15.888      733.873      494.912      252.442        0.761        0.074      116.058       10.477        0.008      332.082        0.512      872.206
12/15/2013  18:00:00      -94.268      -16.657       -8.555       32.609       26.825       19.477     1063.322      719.597      379.351        0.570        0.108       95.728       14.778        0.024      332.067        0.489      872.227
12/15/2013  18:01:00     -100.316       -1.456      -11.475       28.244       16.984       14.415      797.738      288.463      207.800        0.575        0.065      100.326       10.990        0.012      332.061        0.480      872.248
12/15/2013  18:02:00      -92.932       -2.844      -15.206       18.112       11.154       11.297      328.054      124.414      127.617        0.473        0.029       92.975        7.491        0.006      332.084        0.516      872.272
12/15/2013  18:03:00      -82.975       -7.927      -12.961       13.619       14.769       10.041      185.466      218.136      100.828        0.381        0.025       83.353        9.017        0.012      332.102        0.546      872.294
12/15/2013  18:04:00      -65.431      -17.261      -11.857       15.510        8.077        7.041      240.564       65.232       49.574        0.254        0.018       67.670        6.295        0.009      332.124        0.583      872.320
12/15/2013  18:05:00      -55.122      -25.441      -11.680       11.769       11.054        7.902      138.517      122.198       62.443        0.207        0.016       60.710        4.356        0.005      332.161        0.643      872.343
12/15/2013  18:06:00      -66.757      -24.989      -11.781       10.000        8.948        8.822       99.997       80.074       77.831        0.274        0.013       71.281        6.182        0.008      332.153        0.631      872.360
12/15/2013  18:07:00      -81.327      -11.087      -14.825        9.796        9.258        8.366       95.957       85.712       69.985        0.360        0.013       82.079        3.965        0.002      332.109        0.559      872.384
12/15/2013  18:08:00      -82.428       -9.414      -18.673        9.345        9.142        7.390       87.335       83.584       54.617        0.373        0.011       82.964        2.878        0.001      332.113        0.566      872.397
12/15/2013  18:09:00      -92.630      -11.415      -18.443        7.483        7.588        8.706       55.988       57.580       75.793        0.462        0.009       93.330        4.041        0.002      332.102        0.545      872.423
12/15/2013  18:10:00      -87.485      -13.887      -17.822        9.837       10.021        8.267       96.764      100.426       68.339        0.421        0.013       88.580        5.528        0.004      332.076        0.504      872.433
12/15/2013  18:11:00      -61.667      -20.622      -15.551        9.687       15.156        8.569       93.844      229.713       73.431        0.243        0.020       65.024        7.313        0.013      332.185        0.682      872.447
12/15/2013  18:12:00      -64.713       -5.291      -14.116        9.559       10.258       10.473       91.377      105.218      109.688        0.236        0.015       64.929        5.422        0.007      332.278        0.837      872.447
12/15/2013  18:13:00      -54.143      -16.405      -11.935       10.994        9.803        8.349      120.867       96.090       69.712        0.181        0.014       56.574        7.070        0.016      332.273        0.830      872.461
12/15/2013  18:14:00      -56.274      -12.878       -8.607        6.872        8.571        9.037       47.223       73.457       81.672        0.180        0.010       57.728        5.044        0.008      332.212        0.730      872.466
12/15/2013  18:15:00      -51.182      -18.085      -15.979        8.963        8.630        5.711       80.339       74.471       32.610        0.169        0.009       54.283        3.978        0.005      332.182        0.680      872.476
12/15/2013  18:16:00      -61.342      -22.741      -19.048        6.825        7.940        5.851       46.579       63.043       34.234        0.239        0.007       65.421        3.486        0.003      332.043        0.450      872.476
12/15/2013  18:17:00      -71.689      -17.646      -15.521       11.170        9.771        8.696      124.777       95.479       75.615        0.299        0.015       73.829        6.039        0.007      331.998        0.375      872.475
12/15/2013  18:18:00      -70.164      -15.768      -16.832        7.900        8.058        7.036       62.411       64.926       49.510        0.282        0.009       71.914        1.327        0.000      332.034        0.435      872.479
12/15/2013  18:19:00      -69.689      -17.083      -16.940        9.000       10.400        7.508       81.006      108.157       56.375        0.284        0.012       71.752        4.862        0.005      331.959        0.311      872.484
12/15/2013  18:20:00      -82.521       -7.478      -14.813       14.636       12.857       10.394      214.210      165.292      108.035        0.379        0.024       82.859        8.115        0.010      331.960        0.313      872.497
12/15/2013  18:21:00      -87.785      -17.943      -17.122        9.659       12.452        9.410       93.287      155.047       88.547        0.433        0.017       89.600        3.677        0.002      331.947        0.290      872.500
12/15/2013  18:22:00      -86.639       -7.110      -13.589       10.349       11.028        7.819      107.096      121.627       61.130        0.402        0.014       86.930        2.291        0.001      331.877        0.175      872.503
12/15/2013  18:23:00      -83.738      -16.946      -17.971       12.047       13.430       10.370      145.129      180.354      107.543        0.403        0.022       85.435        5.098        0.004      331.903        0.217      872.506
12/15/2013  18:24:00      -85.483      -11.289      -16.475        7.521        8.396        7.327       56.564       70.492       53.680        0.394        0.009       86.225        4.730        0.003      331.879        0.178      872.498
12/15/2013  18:25:00      -88.254      -15.492      -15.067       16.687       11.114       11.760      278.450      123.523      138.286        0.440        0.027       89.603        8.473        0.009      331.891        0.198      872.511
12/15/2013  18:26:00      -78.356      -31.411      -16.213       15.658       19.159       13.133      245.187      367.074      172.464        0.409        0.039       84.417       12.289        0.021      331.921        0.246      872.508
12/15/2013  18:27:00      -97.777      -26.188      -17.033       15.614       20.010       15.789      243.792      400.393      249.287        0.571        0.045      101.223        8.453        0.007      331.918        0.244      872.512
12/15/2013  18:28:00     -102.916       -5.155      -17.951       19.736       17.347       12.368      389.528      300.922      152.956        0.589        0.042      103.046        8.132        0.006      331.846        0.125      872.531
12/15/2013  18:29:00     -109.539       -5.404      -17.938       23.850       16.607       15.246      568.816      275.804      232.440        0.671        0.054      109.672       12.904        0.014      331.813        0.070      872.555
12/15/2013  18:30:00      -97.625      -24.049      -16.252       25.327       25.703       15.450      641.470      660.624      238.692        0.596        0.077      100.543       16.023        0.025      331.871        0.166      872.572
12/15/2013  18:31:00     -100.304      -19.329      -16.909       19.733       30.580       20.293      389.382      935.108      411.825        0.623        0.087      102.150       18.223        0.032      331.837        0.110      872.583
12/15/2013  18:32:00     -104.013       -9.815      -11.887       31.156       29.325       15.631      970.672      859.969      244.335        0.657        0.104      104.476        9.814        0.009      331.848        0.128      872.593
12/15/2013  18:33:00      -89.345      -30.451       -9.697       30.585       26.996       20.464      935.437      728.786      418.791        0.554        0.104       94.392       16.829        0.032      331.835        0.107      872.596
12/15/2013  18:34:00     -122.337      -21.230      -16.041       35.373       21.578       16.223     1251.235      465.614      263.200        0.883        0.099      124.166       15.481        0.016      331.855        0.140      872.599
12/15/2013  18:35:00     -142.229      -15.563      -16.633       32.373       20.844       15.291     1048.016      434.469      233.806        1.123        0.086      143.078        7.983        0.003      331.822        0.085      872.595
12/15/2013  18:36:00     -119.484      -36.149      -13.061       35.809       29.808       18.994     1282.306      888.543      360.765        0.914        0.127      124.833       14.892        0.014      331.784        0.023      872.583
12/15/2013  18:37:00     -132.509      -26.556      -17.719       24.114       24.002       18.906      581.473      576.113      357.441        1.005        0.076      135.144       11.150        0.007      331.775        0.008      872.585
12/15/2013  18:38:00     -111.233      -20.666       -9.220       41.729       30.088       20.291     1741.327      905.287      411.726        0.797        0.153      113.136       15.068        0.018      331.764       -0.010      872.587
12/15/2013  18:39:00     -153.550      -19.826      -17.399       31.161       20.679       18.978      971.000      427.602      360.170        1.302        0.088      154.825       13.568        0.008      331.795        0.042      872.575
12/15/2013  18:40:00      -97.781      -35.546      -13.649       47.989       23.051       19.204     2302.938      531.369      368.784        0.711        0.160      104.041       20.404        0.038      331.754       -0.027      872.583
12/15/2013  18:41:00     -109.103      -26.604       -8.235       35.209       31.477       22.032     1239.664      990.824      485.405        0.770        0.136      112.300       15.461        0.019      331.769       -0.002      872.582
12/15/2013  18:42:00     -102.134      -41.750      -11.937       22.565       30.621       16.158      509.169      937.639      261.081        0.701        0.085      110.338       12.705        0.013      331.808        0.061      872.589
12/15/2013  18:43:00     -124.719      -37.259      -16.487       36.395       23.232       17.071     1324.568      539.739      291.430        0.968        0.108      130.166       14.137        0.012      331.791        0.033      872.608
12/15/2013  18:44:00     -114.865      -34.773      -12.675       34.085       23.107       20.175     1161.807      533.934      407.024        0.833        0.105      120.013       15.826        0.017      331.693       -0.126      872.617
12/15/2013  18:45:00      -69.154      -31.630      -17.284       63.661       29.483       21.432     4052.665      869.242      459.340        0.573        0.269       76.045       25.998        0.117      331.754       -0.024      872.619
12/15/2013  18:46:00      -97.178      -26.085       -5.353       50.684       33.689       25.715     2568.886     1134.937      661.276        0.726        0.218      100.618       27.359        0.074      331.688       -0.136      872.631
12/15/2013  18:47:00     -114.964      -19.633      -15.857       30.843       23.302       20.187      951.265      542.978      407.498        0.788        0.095      116.628       12.482        0.011      331.765       -0.009      872.650
12/15/2013  18:48:00     -107.853      -32.075      -16.124       23.673       26.935       15.553      560.415      725.468      241.884        0.722        0.076      112.521       11.552        0.011      331.796        0.042      872.662
12/15/2013  18:49:00     -107.351      -21.080      -17.815       32.158       28.502       17.204     1034.136      812.378      295.977        0.721        0.107      109.401       15.278        0.020      331.752       -0.028      872.682
12/15/2013  18:50:00      -80.923      -17.322      -19.301       17.878       31.827       19.423      319.632     1012.960      377.256        0.447        0.085       82.756        7.789        0.009      331.790        0.034      872.695
12/15/2013  18:51:00      -95.319      -28.771      -23.755       24.819       24.083       18.195      616.005      580.004      331.049        0.600        0.076       99.567        9.771        0.010      331.832        0.101      872.694
12/15/2013  18:52:00      -65.676      -24.611        1.946       33.977       22.792       16.797     1154.428      519.493      282.141        0.344        0.098       70.136        7.972        0.013      331.848        0.127      872.692
12/15/2013  18:53:00      -70.901      -51.182       -6.665       39.975       28.986       22.167     1597.989      840.182      491.394        0.531        0.146       87.445       23.878        0.075      331.747       -0.037      872.692
12/15/2013  18:54:00     -118.213      -62.671      -11.485       22.683       19.430       14.319      514.532      377.525      205.036        0.957        0.055      133.798        9.069        0.005      331.742       -0.045      872.693
12/15/2013  18:55:00     -134.604      -42.277      -13.087       24.809       27.645       15.457      615.481      764.230      238.913        1.085        0.081      141.087        5.533        0.002      331.732       -0.062      872.697
12/15/2013  18:56:00     -132.180      -42.730      -12.467       20.666       21.709       17.318      427.064      471.288      299.907        1.033        0.060      138.915        9.035        0.004      331.812        0.068      872.711
12/15/2013  18:57:00     -110.350      -24.888       -8.605       30.012       28.107       18.146      900.709      790.013      329.278        0.744        0.101      113.121       15.764        0.019      331.827        0.092      872.706
12/15/2013  18:58:00     -121.692      -46.310       -3.990       20.182       23.174       13.919      407.317      537.050      193.751        0.905        0.057      130.206       11.289        0.008      331.852        0.135      872.707
12/15/2013  18:59:00     -113.242      -31.426       -3.695       27.796       29.994       17.874      772.595      899.652      319.496        0.791        0.100      117.521       19.611        0.028      331.849        0.129      872.715
12/15/2013  19:00:00     -141.372      -37.080       -8.722       20.945       19.932       13.320      438.704      397.300      177.418        1.122        0.051      146.154        7.587        0.003      331.822        0.084      872.726
12/15/2013  19:01:00     -146.765      -35.234      -11.623       13.430       16.241        9.426      180.376      263.771       88.851        1.172        0.027      150.935        4.065        0.001      331.824        0.088      872.735
12/15/2013  19:02:00     -151.180      -47.757      -15.356       11.628       15.605       11.142      135.203      243.520      124.133        1.294        0.025      158.544        7.916        0.002      331.783        0.019      872.748
12/15/2013  19:03:00     -160.459      -52.071       -5.355       16.184       18.306       10.848      261.918      335.114      117.682        1.460        0.036      168.697       10.382        0.004      331.818        0.078      872.763
12/15/2013  19:04:00     -157.891      -51.632       -6.526       19.239       21.087       13.260      370.121      444.669      175.819        1.431        0.050      166.118        7.505        0.002      331.777        0.011      872.766
12/15/2013  19:05:00     -162.708      -50.517       -4.496       24.906       19.444       16.404      620.296      378.053      269.091        1.516        0.063      170.370       13.916        0.007      331.751       -0.032      872.771
12/15/2013  19:06:00     -156.404      -54.216      -12.192       16.666       14.754        8.657      277.753      217.690       74.949        1.406        0.029      165.535        3.382        0.000      331.803        0.052      872.784
12/15/2013  19:07:00     -124.789      -63.851      -13.411       18.470       17.807       17.160      341.157      317.103      294.470        1.039        0.048      140.176       11.779        0.007      331.781        0.017      872.807
12/15/2013  19:08:00     -126.556      -58.312      -14.554       15.176       16.422       12.493      230.302      269.675      156.079        1.014        0.033      139.344        9.322        0.004      331.759       -0.020      872.833
12/15/2013  19:09:00     -129.180      -42.347      -15.905       18.877       21.718       10.240      356.334      471.687      104.850        0.983        0.047      135.944        4.302        0.001      331.771        0.003      872.840
12/15/2013  19:10:00     -141.577      -46.374      -12.591       16.124       14.474       10.539      259.971      209.507      111.061        1.147        0.029      148.978        7.336        0.002      331.750       -0.031      872.839
12/15/2013  19:11:00     -165.613      -26.723      -15.942       23.724       25.248       16.431      562.836      637.456      269.993        1.493        0.074      167.755       12.467        0.006      331.683       -0.144      872.843
12/15/2013  19:12:00     -139.076      -44.162       -9.827       32.642       24.883       18.482     1065.472      619.154      341.572        1.171        0.101      145.920       19.621        0.018      331.690       -0.132      872.848
12/15/2013  19:13:00     -147.897      -55.534      -15.933       26.823       20.666       16.438      719.452      427.094      270.216        1.331        0.071      157.980       13.528        0.007      331.636       -0.221      872.840
12/15/2013  19:14:00     -120.584      -47.995      -11.283       33.870       27.746       19.644     1147.153      769.817      385.894        0.964        0.115      129.785       18.789        0.021      331.607       -0.269      872.827
12/15/2013  19:15:00     -116.286      -42.010      -18.487       29.005       25.502       12.527      841.283      650.345      156.935        0.864        0.082      123.642       10.134        0.007      331.553       -0.358      872.816
12/15/2013  19:16:00      -66.477      -66.284       -9.193       30.613       32.368       22.630      937.160     1047.677      512.127        0.570        0.125       93.877       19.504        0.043      331.600       -0.280      872.814
12/15/2013  19:17:00      -97.944      -53.943      -23.168       24.805       25.239       17.033      615.280      636.985      290.108        0.729        0.077      111.816       13.958        0.016      331.549       -0.363      872.813
12/15/2013  19:18:00      -94.401      -18.093       -5.118       42.178       28.962       26.377     1779.000      838.779      695.726        0.629        0.166       96.119       25.714        0.072      331.578       -0.317      872.824
12/15/2013  19:19:00     -105.100      -27.093      -20.782       26.142       20.662       16.703      683.397      426.908      279.004        0.680        0.069      108.536        9.489        0.008      331.484       -0.471      872.827
12/15/2013  19:20:00     -110.570      -19.202      -17.205       24.282       26.753       15.115      589.618      715.741      228.476        0.721        0.077      112.225        9.219        0.007      331.461       -0.509      872.832
12/15/2013  19:21:00     -109.424       -9.851      -13.505       23.046       27.122       18.105      531.130      735.604      327.802        0.692        0.080      109.866       14.284        0.017      331.531       -0.395      872.839
12/15/2013  19:22:00      -85.327      -31.048      -16.107       38.798       40.800       26.246     1505.319     1664.656      688.831        0.618        0.193       90.800       11.674        0.017      331.458       -0.515      872.856
12/15/2013  19:23:00      -99.232      -49.049      -17.475       26.411       24.327       15.820      697.550      591.796      250.265        0.705        0.077      110.692        2.262        0.000      331.479       -0.479      872.854
12/15/2013  19:24:00      -69.492      -30.385      -19.960       36.453       30.529       19.828     1328.812      931.995      393.141        0.440        0.133       75.845       11.554        0.023      331.503       -0.441      872.843
12/15/2013  19:25:00      -59.779      -26.157       -4.514       41.121       30.328       24.807     1690.963      919.786      615.412        0.375        0.161       65.251       21.397        0.108      331.464       -0.503      872.832
12/15/2013  19:26:00      -65.961      -39.270       -7.960       33.585       31.402       21.198     1127.925      986.116      449.359        0.426        0.128       76.765       17.830        0.054      331.454       -0.521      872.835
12/15/2013  19:27:00     -100.322      -39.707      -16.200       28.463       28.764       16.843      810.168      827.346      283.694        0.691        0.096      107.895       12.810        0.014      331.413       -0.587      872.847
12/15/2013  19:28:00     -105.359      -44.185       -6.960       22.964       22.165       19.390      527.350      491.282      375.986        0.725        0.070      114.249       10.619        0.009      331.363       -0.671      872.854
12/15/2013  19:29:00      -94.129      -46.935      -12.365       35.472       28.461       16.007     1258.245      810.051      256.209        0.677        0.116      105.182       15.816        0.023      331.404       -0.603      872.855
12/15/2013  19:30:00      -99.650      -54.234      -23.073       34.354       24.914       16.874     1180.218      620.686      284.736        0.774        0.104      113.453       14.657        0.017      331.456       -0.518      872.860
12/15/2013  19:31:00      -95.290      -46.532      -22.771       19.791       23.338       20.970      391.695      544.667      439.748        0.657        0.069      106.044        7.157        0.005      331.451       -0.525      872.875
12/15/2013  19:32:00     -100.549      -34.007      -15.566       24.651       26.079       22.819      607.655      680.121      520.711        0.666        0.090      106.144       11.185        0.011      331.473       -0.489      872.881
12/15/2013  19:33:00      -93.796      -21.380      -17.178       23.642       25.253       14.053      558.950      637.735      197.491        0.547        0.070       96.202        7.348        0.006      331.486       -0.468      872.890
12/15/2013  19:34:00      -90.868       -7.129      -18.537       18.944       20.569       14.555      358.876      423.092      211.849        0.482        0.050       91.148        9.255        0.010      331.334       -0.718      872.909
12/15/2013  19:35:00     -121.275       -2.636      -17.882       32.394       23.180       20.393     1049.391      537.325      415.894        0.852        0.100      121.304       10.249        0.007      331.262       -0.836      872.930
12/15/2013  19:36:00     -179.801       -3.874      -20.351       22.916       23.519       18.924      525.131      553.134      358.116        1.710        0.072      179.843        9.719        0.003      331.227       -0.893      872.925
12/15/2013  19:37:00     -136.418      -15.235      -11.666       42.520       27.634       23.071     1807.944      763.658      532.276        1.104        0.155      137.266       22.248        0.026      331.217       -0.909      872.911
12/15/2013  19:38:00     -108.892      -35.467      -11.331       32.897       29.944       22.405     1082.197      896.664      501.978        0.786        0.124      114.522       14.195        0.015      331.262       -0.834      872.897
12/15/2013  19:39:00     -117.370       -8.853      -15.725       31.795       18.559       16.086     1010.901      344.452      258.765        0.786        0.081      117.703       10.912        0.009      331.275       -0.814      872.885
12/15/2013  19:40:00      -89.567       -5.004      -20.730       17.533       24.060       16.337      307.405      578.877      266.899        0.481        0.058       89.707       10.206        0.013      331.332       -0.720      872.860
12/15/2013  19:41:00      -76.440      -38.590      -12.990       38.586       27.880       22.301     1488.897      777.300      497.334        0.513        0.138       85.629       19.093        0.050      331.429       -0.562      872.837
12/15/2013  19:42:00      -98.994      -35.264      -15.337       23.751       20.446       16.562      564.100      418.043      274.297        0.627        0.063      105.087        9.225        0.008      331.279       -0.808      872.838
12/15/2013  19:43:00     -108.344      -24.383      -11.450       23.960       23.340       20.023      574.096      544.733      400.922        0.699        0.076      111.054       17.513        0.025      331.227       -0.894      872.838
12/15/2013  19:44:00     -131.585      -12.630      -17.649       31.150       17.913       13.701      970.320      320.886      187.711        0.963        0.074      132.190       12.140        0.008      331.212       -0.917      872.837
12/15/2013  19:45:00     -119.681      -27.471      -21.454       27.107       26.502       16.447      734.788      702.357      270.501        0.862        0.085      122.793       12.817        0.011      331.173       -0.983      872.836
12/15/2013  19:46:00     -103.892      -13.592      -15.770       24.350       29.792       25.405      592.914      887.574      645.427        0.668        0.106      104.777       11.989        0.013      331.205       -0.929      872.833
12/15/2013  19:47:00      -96.087      -23.363      -11.680       44.321       23.405       21.140     1964.327      547.809      446.906        0.644        0.148       98.886       23.900        0.058      331.175       -0.979      872.827
12/15/2013  19:48:00     -132.410      -17.705      -19.783       25.410       28.054       17.197      645.691      787.051      295.736        0.998        0.086      133.588        4.591        0.001      331.154       -1.014      872.818
12/15/2013  19:49:00      -97.274      -21.371      -11.935       24.949       27.461       20.974      622.453      754.111      439.923        0.594        0.091       99.594       13.389        0.018      331.178       -0.975      872.813
12/15/2013  19:50:00     -109.155      -17.314      -21.029       17.028       22.510       13.476      289.941      506.695      181.596        0.682        0.049      110.520       10.930        0.010      331.168       -0.990      872.825
12/15/2013  19:51:00     -103.947       -3.444      -16.396       15.160       13.013       10.911      229.820      169.327      119.046        0.580        0.026      104.004        3.217        0.001      331.186       -0.961      872.837
12/15/2013  19:52:00      -75.112       -6.490      -11.990       18.536       11.749       12.242      343.565      138.031      149.876        0.323        0.032       75.392       11.901        0.025      331.220       -0.904      872.848
12/15/2013  19:53:00      -58.359       -9.361      -10.832       12.696       10.592       10.806      161.184      112.192      116.764        0.200        0.020       59.105        6.757        0.013      331.246       -0.861      872.858
12/15/2013  19:54:00      -46.015      -19.950       -7.225        9.667        9.959        7.283       93.459       99.181       53.039        0.141        0.012       50.154        2.967        0.003      331.265       -0.831      872.877
12/15/2013  19:55:00      -34.884      -28.168      -10.816       11.325        9.547        8.394      128.259       91.148       70.466        0.121        0.014       44.837        1.403        0.001      331.313       -0.753      872.884
12/15/2013  19:56:00      -36.047      -22.782      -10.852       13.378       14.606       11.465      178.973      213.328      131.442        0.123        0.026       42.642        8.650        0.041      331.429       -0.561      872.880
12/15/2013  19:57:00      -18.004      -19.826       -5.366       16.418        9.670        8.751      269.546       93.517       76.572        0.059        0.022       26.781        7.108        0.070      331.595       -0.288      872.878
12/15/2013  19:58:00       -7.556        0.764        5.475       10.439       11.583        9.238      108.982      134.167       85.334        0.021        0.016        7.594        3.426        0.204      331.539       -0.380      872.886
12/15/2013  19:59:00       -1.713       42.416       -5.994       17.510       25.957       10.804      306.605      673.783      116.733        0.147        0.055       42.450       11.841        0.078      331.814        0.072      872.888
12/15/2013  20:00:00      -17.028       49.966       -7.252       22.565       27.939       14.936      509.186      780.615      223.086        0.218        0.076       52.787       11.067        0.044      331.847        0.126      872.879
12/15/2013  20:01:00      -16.700        0.669       -4.218       16.923       13.534        8.738      286.381      183.182       76.361        0.042        0.027       16.713        5.400        0.104      331.921        0.247      872.883
12/15/2013  20:02:00      -19.034       21.755       -4.626       29.463       26.706       17.723      868.067      713.230      314.097        0.138        0.095       28.906       16.053        0.308      331.853        0.136      872.897
12/15/2013  20:03:00       -1.501       55.324       -0.644       17.617       15.093       12.103      310.366      227.798      146.488        0.187        0.034       55.344       11.890        0.046      331.794        0.039      872.914
12/15/2013  20:04:00      -10.668       34.162        2.470       15.665       20.410       15.049      245.400      416.550      226.466        0.109        0.044       35.789       16.204        0.205      331.743       -0.044      872.925
12/15/2013  20:05:00       11.196       44.176       -1.983       13.604       12.558        7.851      185.079      157.710       61.632        0.124        0.020       45.573        8.198        0.032      331.948        0.292      872.930
12/15/2013  20:06:00       17.147       33.199        0.135       12.264       11.672        7.763      150.396      136.240       60.262        0.087        0.017       37.366        7.510        0.040      331.888        0.195      872.933
12/15/2013  20:07:00        8.922       28.097        0.357       13.626       22.099        9.162      185.662      488.387       83.950        0.081        0.038       29.480       12.391        0.177      331.850        0.129      872.933
12/15/2013  20:08:00       11.889       35.082       -0.537       12.179       19.133       11.354      148.333      366.054      128.903        0.101        0.032       37.042       10.231        0.076      331.847        0.126      872.929
12/15/2013  20:09:00       18.063       18.825        2.943       17.079       14.058       11.414      291.682      197.636      130.287        0.065        0.031       26.090       10.134        0.151      331.833        0.103      872.924
12/15/2013  20:10:00        6.694       26.941       -3.062        8.892       13.189        6.960       79.066      173.960       48.444        0.054        0.015       27.760        6.583        0.056      331.828        0.094      872.927
12/15/2013  20:11:00       -1.064        7.603        4.821       13.894        9.123        6.178      193.038       83.230       38.169        0.020        0.016        7.677        5.948        0.600      331.778        0.011      872.934
12/15/2013  20:12:00      -39.764      -10.512       -7.032        8.497       10.202        7.172       72.201      104.085       51.434        0.098        0.011       41.130        2.463        0.004      331.299       -0.775      872.930
12/15/2013  20:13:00      -50.000      -26.095       -4.377        9.572       17.951        7.893       91.618      322.251       62.292        0.184        0.024       56.400        4.977        0.008      331.254       -0.850      872.924
12/15/2013  20:14:00      -59.727      -29.147      -10.164       10.724       16.620        8.706      114.994      276.214       75.791        0.249        0.023       66.459        6.953        0.011      331.193       -0.949      872.923
12/15/2013  20:15:00      -65.703      -16.948       -9.389       10.663        9.487        7.268      113.708       89.996       52.825        0.247        0.013       67.853        5.106        0.006      331.112       -1.084      872.916
12/15/2013  20:16:00      -73.456      -10.379      -10.140       16.190       14.960       12.515      262.128      223.813      156.619        0.312        0.032       74.186       10.808        0.021      331.064       -1.162      872.918
12/15/2013  20:17:00      -80.499       -3.344      -13.061       21.125       11.347       11.074      446.268      128.746      122.635        0.368        0.035       80.568        7.022        0.008      331.047       -1.191      872.915
12/15/2013  20:18:00      -86.937       -5.975      -17.357       15.016       17.356       13.105      225.478      301.219      171.731        0.430        0.035       87.142       10.505        0.015      331.076       -1.143      872.918
12/15/2013  20:19:00      -80.643      -12.634      -10.344       12.935       12.557       10.706      167.310      157.682      114.627        0.360        0.022       81.626        7.639        0.009      331.052       -1.184      872.925
12/15/2013  20:20:00      -79.384      -18.810      -12.587       15.339       11.399        8.143      235.270      129.944       66.310        0.362        0.022       81.582        6.122        0.006      331.070       -1.153      872.929
12/15/2013  20:21:00      -92.896      -13.133      -11.319       11.715       13.134       10.611      137.245      172.494      112.600        0.468        0.021       93.819        5.282        0.003      330.996       -1.273      872.938
12/15/2013  20:22:00     -114.339      -15.210      -16.573       21.157       13.836       12.687      447.627      191.433      160.953        0.719        0.040      115.346        7.844        0.005      331.000       -1.268      872.942
12/15/2013  20:23:00     -103.206      -23.532      -20.584       13.205       17.754       11.495      174.365      315.189      132.130        0.613        0.031      105.855       10.504        0.010      330.932       -1.378      872.949
12/15/2013  20:24:00      -93.910      -23.827      -10.347       18.025       18.515       14.071      324.906      342.806      197.981        0.518        0.043       96.885       10.840        0.013      330.958       -1.335      872.963
12/15/2013  20:25:00      -91.892      -16.913       -9.370       23.734       22.435       16.237      563.313      503.326      263.651        0.507        0.067       93.436       13.354        0.020      330.976       -1.306      872.962
12/15/2013  20:26:00      -76.737      -22.855       -1.114       26.472       22.065       21.211      700.771      486.879      449.896        0.402        0.082       80.068       19.656        0.060      330.946       -1.356      872.968
12/15/2013  20:27:00      -83.138      -27.121      -13.436       15.508       16.700       11.530      240.489      278.878      132.936        0.424        0.033       87.450        6.473        0.005      331.034       -1.211      872.966
12/15/2013  20:28:00      -70.805      -22.203      -11.378       16.046       18.980       16.375      257.466      360.234      268.134        0.326        0.044       74.204       13.604        0.034      331.078       -1.138      872.971
12/15/2013  20:29:00      -73.321      -29.236      -14.083       12.205       13.310       11.280      148.969      177.144      127.238        0.344        0.023       78.935        8.140        0.011      331.038       -1.206      872.966
12/15/2013  20:30:00      -68.739      -32.163      -16.891       10.519       11.844       12.391      110.657      140.289      153.536        0.322        0.020       75.892        6.867        0.008      331.076       -1.143      872.974
12/15/2013  20:31:00      -67.013      -37.265      -14.730       19.339       16.353       12.525      374.010      267.424      156.873        0.345        0.040       76.677        9.434        0.015      331.100       -1.103      872.988
12/15/2013  20:32:00      -88.773      -22.228      -17.786       21.504       19.442       11.812      462.407      377.979      139.518        0.484        0.049       91.514        4.822        0.003      331.060       -1.168      872.994
12/15/2013  20:33:00     -107.394      -14.896      -18.093       18.460       15.418       13.634      340.767      237.707      185.896        0.642        0.038      108.422        9.835        0.008      331.035       -1.209      872.996
12/15/2013  20:34:00      -94.341       -5.953      -14.312       16.699       11.642       14.126      278.854      135.548      199.530        0.488        0.031       94.529        4.354        0.002      331.006       -1.258      873.000
12/15/2013  20:35:00      -79.453      -12.531      -14.565       12.939        9.843       10.364      167.425       96.876      107.406        0.353        0.019       80.436        6.586        0.007      331.127       -1.058      873.009
12/15/2013  20:36:00      -81.308      -16.898      -10.819       16.793       13.923        9.934      282.014      193.854       98.692        0.379        0.029       83.045        6.031        0.005      331.135       -1.046      873.027
12/15/2013  20:37:00      -71.443      -18.863      -12.503       13.209        9.169        7.972      174.473       84.077       63.549        0.297        0.016       73.891        4.403        0.004      331.206       -0.927      873.036
12/15/2013  20:38:00      -58.860      -29.817      -13.314       12.402        9.763        7.676      153.805       95.324       58.925        0.242        0.015       65.981        3.691        0.003      331.189       -0.956      873.040
12/15/2013  20:39:00      -58.764      -17.022       -9.521       12.550       15.570        9.950      157.500      242.433       98.999        0.217        0.025       61.180        8.277        0.018      331.289       -0.791      873.047
12/15/2013  20:40:00      -53.560       -8.581      -14.147       15.611        9.880        7.812      243.688       97.620       61.026        0.177        0.020       54.243        2.109        0.002      331.518       -0.414      873.040
12/15/2013  20:41:00      -57.311      -17.657      -10.689       15.744       13.821       11.155      247.864      191.020      124.437        0.214        0.028       59.970        7.172        0.014      331.305       -0.764      873.042
12/15/2013  20:42:00      -53.952      -18.241      -10.112       10.358       14.410        9.117      107.293      207.646       83.124        0.187        0.020       56.952        4.061        0.005      331.324       -0.734      873.044
12/15/2013  20:43:00      -70.686       -9.727      -13.540       12.233        9.669       12.962      149.655       93.498      168.008        0.284        0.021       71.353       10.035        0.020      331.262       -0.837      873.052
12/15/2013  20:44:00      -68.783      -22.470      -11.740       18.579       12.732       10.665      345.193      162.092      113.753        0.300        0.031       72.360        7.674        0.011      331.223       -0.900      873.074
12/15/2013  20:45:00      -96.929       -9.445      -13.388       17.864       14.364       11.553      319.115      206.329      133.472        0.516        0.033       97.388        5.198        0.003      331.172       -0.983      873.071
12/15/2013  20:46:00     -114.746       -5.860      -16.659       18.590       14.520       13.394      345.597      210.833      179.406        0.711        0.037      114.896        8.457        0.005      331.159       -1.005      873.076
12/15/2013  20:47:00      -98.998      -10.116       -6.857       24.655       15.916       15.753      607.867      253.333      248.158        0.553        0.055       99.514       15.251        0.023      331.193       -0.950      873.079
12/15/2013  20:48:00      -93.184       -5.675      -18.034       26.434       11.459       11.268      698.773      131.311      126.965        0.500        0.048       93.357        4.825        0.003      331.210       -0.922      873.085
12/15/2013  20:49:00      -98.514       -8.940      -14.006       21.010       14.908       11.270      441.437      222.238      127.018        0.539        0.040       98.919        9.239        0.009      331.245       -0.862      873.094
12/15/2013  20:50:00     -113.972       -7.429      -17.031       19.542       13.464       10.132      381.893      181.288      102.653        0.700        0.033      114.214        6.559        0.003      331.216       -0.911      873.105
12/15/2013  20:51:00      -68.523      -31.318      -10.147       23.403       18.459       12.808      547.713      340.750      164.044        0.342        0.053       75.341        3.823        0.003      331.251       -0.854      873.100
12/15/2013  20:52:00      -85.289      -41.391      -14.474       18.094       14.939       12.613      327.394      223.184      159.094        0.495        0.035       94.803        8.957        0.009      331.230       -0.888      873.088
12/15/2013  20:53:00      -87.646      -44.183      -13.958       11.924       19.244       10.283      142.173      370.319      105.735        0.522        0.031       98.153        4.007        0.002      331.231       -0.885      873.073
12/15/2013  20:54:00      -81.584      -40.439      -14.804       17.301       18.997       13.266      299.308      360.877      175.981        0.467        0.042       91.057        7.712        0.007      331.231       -0.885      873.062
12/15/2013  20:55:00      -86.409      -47.716       -8.274       23.961       26.375       13.105      574.131      695.645      171.737        0.563        0.072       98.708       11.282        0.013      331.188       -0.958      873.058
12/15/2013  20:56:00      -74.415      -39.925       -2.575       20.566       24.883       16.078      422.944      619.175      258.492        0.422        0.065       84.449        4.119        0.002      331.157       -1.009      873.069
12/15/2013  20:57:00      -77.220      -15.635       -6.230       21.370       20.244       12.243      456.673      409.800      149.898        0.363        0.051       78.787        9.072        0.013      331.108       -1.090      873.075
12/15/2013  20:58:00     -114.115      -21.646      -16.727       14.747       18.648       11.221      217.472      347.730      125.903        0.723        0.035      116.150        7.238        0.004      331.120       -1.069      873.078
12/15/2013  20:59:00      -92.126      -28.068       -7.760       29.219       24.036       17.127      853.721      577.748      293.342        0.553        0.086       96.307       14.699        0.023      331.055       -1.177      873.072
12/15/2013  21:00:00      -95.489       -9.581       -6.141       29.479       30.621       21.184      869.022      937.633      448.768        0.575        0.113       95.969       19.788        0.043      331.021       -1.233      873.071
12/15/2013  21:01:00     -108.888      -14.760        0.075       44.354       27.554       25.695     1967.261      759.201      660.228        0.773        0.169      109.883       25.833        0.055      330.976       -1.306      873.066
12/15/2013  21:02:00      -97.376      -20.164       -3.196       34.564       33.776       18.500     1194.645     1140.852      342.232        0.629        0.134       99.442       16.174        0.026      330.974       -1.309      873.067
12/15/2013  21:03:00      -63.845      -19.556       -0.223       30.242       25.352       16.193      914.576      642.744      262.205        0.314        0.091       66.773       11.921        0.032      330.912       -1.410      873.066
12/15/2013  21:04:00     -119.279      -18.413       -2.064       42.515       32.497       21.732     1807.548     1056.058      472.287        0.895        0.167      120.692       22.021        0.033      330.916       -1.405      873.062
12/15/2013  21:05:00     -103.808      -17.362      -15.645       30.712       19.437       17.675      943.250      377.811      312.403        0.648        0.082      105.250       10.534        0.010      330.968       -1.318      873.051
12/15/2013  21:06:00      -84.846      -21.562      -16.732       18.203       27.900       16.296      331.346      778.383      265.556        0.466        0.069       87.543       10.271        0.014      330.987       -1.289      873.043
12/15/2013  21:07:00      -93.115      -13.980       -7.112       18.952       21.712       20.775      359.197      471.414      431.605        0.509        0.063       94.159       14.266        0.023      331.018       -1.238      873.030
12/15/2013  21:08:00      -85.493      -24.306      -16.055       27.340       20.728       19.056      747.451      429.646      363.143        0.485        0.077       88.881       11.816        0.018      330.988       -1.287      873.018
12/15/2013  21:09:00      -91.797      -13.471       -9.868       16.528       19.835       11.408      273.176      393.428      130.139        0.475        0.040       92.780        8.186        0.008      330.964       -1.326      873.004
12/15/2013  21:10:00      -87.153      -13.753      -17.305       15.197       17.710       12.071      230.937      313.630      145.700        0.439        0.035       88.231        9.064        0.011      330.979       -1.302      873.006
12/15/2013  21:11:00      -84.776      -12.802      -13.375       14.230       18.810       12.440      202.503      353.809      154.747        0.412        0.036       85.737       10.108        0.014      331.000       -1.267      873.017
12/15/2013  21:12:00     -111.146       -2.512      -13.317       16.764       20.696       15.108      281.016      428.321      228.249        0.674        0.047      111.175        6.477        0.003      330.914       -1.408      873.034
12/15/2013  21:13:00     -121.617      -15.470      -14.843       23.810       14.362       14.317      566.920      206.254      204.975        0.811        0.049      122.596        9.836        0.006      330.872       -1.477      873.048
12/15/2013  21:14:00     -109.044      -17.053       -9.572       26.403       20.777       13.083      697.107      431.666      171.174        0.679        0.065      110.370        9.420        0.007      330.868       -1.484      873.064
12/15/2013  21:15:00     -111.210       -9.149      -13.356       24.708       17.822       15.809      610.486      317.612      249.919        0.690        0.059      111.585       11.015        0.010      330.888       -1.452      873.069
12/15/2013  21:16:00     -107.285      -13.439      -10.915       23.663       18.225       11.928      559.926      332.137      142.269        0.642        0.052      108.124        7.249        0.004      330.869       -1.481      873.069
12/15/2013  21:17:00      -98.230      -25.004       -8.130       21.395       23.130       12.427      457.746      535.004      154.441        0.574        0.057      101.362        5.780        0.003      330.884       -1.456      873.056
12/15/2013  21:18:00     -110.861      -22.387      -19.324       22.307       22.158       15.298      497.622      490.973      234.024        0.719        0.061      113.099        5.228        0.002      330.863       -1.492      873.049
12/15/2013  21:19:00     -127.836      -17.490      -15.503       17.525       19.294       16.700      307.115      372.255      278.890        0.892        0.048      129.027        5.652        0.002      330.798       -1.598      873.039
12/15/2013  21:20:00     -133.969      -13.921      -15.207       19.977       14.816       14.089      399.090      219.520      198.496        0.959        0.041      134.690        8.805        0.004      330.799       -1.596      873.022
12/15/2013  21:21:00      -97.993      -29.354      -11.469       21.798       20.299       12.476      475.137      412.064      155.642        0.582        0.052      102.295       10.613        0.011      330.838       -1.532      873.010
12/15/2013  21:22:00     -105.436      -26.381      -16.448       26.496       22.967       17.073      702.038      527.500      291.472        0.680        0.076      108.687       13.238        0.015      330.822       -1.560      873.004
12/15/2013  21:23:00     -114.442      -17.848       -5.532       21.947       27.215       17.387      481.659      740.650      302.300        0.749        0.076      115.825       15.626        0.018      330.805       -1.587      872.998
12/15/2013  21:24:00     -108.162      -20.955      -18.827       25.733       21.445       16.393      662.195      459.892      268.744        0.694        0.070      110.174        4.927        0.002      330.800       -1.596      872.993
12/15/2013  21:25:00     -119.296      -34.988      -14.596       27.131       24.400       15.896      736.102      595.339      252.679        0.863        0.079      124.321       14.919        0.014      330.806       -1.585      873.004
12/15/2013  21:26:00      -95.877      -27.344       -8.905       25.263       19.678       13.345      638.237      387.229      178.082        0.561        0.060       99.700       10.842        0.012      330.830       -1.546      873.007
12/15/2013  21:27:00      -95.360      -18.934      -11.663       19.272       21.639       12.392      371.427      468.245      153.573        0.529        0.050       97.221        9.061        0.009      330.829       -1.547      873.021
12/15/2013  21:28:00      -60.699      -24.685      -14.327       20.626       15.646       15.483      425.452      244.793      239.738        0.270        0.045       65.527        7.617        0.014      330.905       -1.421      873.034
12/15/2013  21:29:00      -64.524      -29.104      -11.477       16.366       21.860       15.079      267.840      477.860      227.389        0.306        0.049       70.784       11.370        0.026      330.900       -1.431      873.047
12/15/2013  21:30:00      -57.566      -13.665       -7.070       15.576       16.760       11.279      242.612      280.904      127.207        0.210        0.033       59.166        4.222        0.005      330.911       -1.412      873.055
12/15/2013  21:31:00      -69.445      -14.381      -13.062       12.352       15.688       11.587      152.562      246.112      134.248        0.287        0.027       70.918        5.230        0.005      330.926       -1.389      873.069
12/15/2013  21:32:00      -75.741       -7.893      -13.062       13.194       15.274       13.411      174.073      233.304      179.850        0.328        0.029       76.151        8.270        0.012      330.900       -1.432      873.079
12/15/2013  21:33:00     -114.199       -9.542      -10.977       24.734       16.614       13.409      611.749      276.029      179.805        0.716        0.053      114.597        8.454        0.005      330.833       -1.540      873.095
12/15/2013  21:34:00     -109.500      -20.573      -14.028       19.309       17.161       15.883      372.850      294.514      252.258        0.676        0.046      111.416       10.084        0.008      330.866       -1.485      873.103
12/15/2013  21:35:00      -89.876      -31.236       -5.365       25.794       20.002       16.235      665.305      400.088      263.565        0.521        0.066       95.149       13.774        0.021      330.862       -1.493      873.108
12/15/2013  21:36:00      -78.326      -23.255       -6.596       24.719       22.808       14.006      611.008      520.197      196.178        0.402        0.066       81.705       10.196        0.016      330.862       -1.495      873.120
12/15/2013  21:37:00      -88.477      -48.964      -10.673       17.692       17.894       10.251      313.007      320.193      105.089        0.554        0.037      101.122        6.678        0.004      330.842       -1.525      873.151
12/15/2013  21:38:00     -105.020      -55.600       -5.494       18.398       24.189       17.204      338.476      585.126      295.978        0.768        0.061      118.830        9.502        0.006      330.811       -1.578      873.171
12/15/2013  21:39:00      -85.153      -33.930        0.370       26.361       21.065       16.731      694.890      443.742      279.916        0.491        0.071       91.664       15.897        0.030      330.858       -1.500      873.193
12/15/2013  21:40:00     -103.470      -37.105       -8.152       21.100       24.653       14.442      445.194      607.785      208.580        0.671        0.063      109.922       13.032        0.014      330.866       -1.485      873.207
12/15/2013  21:41:00      -90.614      -18.723       -7.278       20.570       21.692       13.067      423.115      470.563      170.756        0.484        0.053       92.528       11.694        0.016      330.865       -1.489      873.219
12/15/2013  21:42:00      -89.506      -23.298      -10.607       15.640       17.887       12.398      244.607      319.954      153.716        0.469        0.036       92.488        7.626        0.007      330.860       -1.497      873.219
12/15/2013  21:43:00      -97.792      -29.859       -7.823       17.371       21.335       13.040      301.749      455.194      170.041        0.572        0.046      102.249        9.421        0.008      330.854       -1.506      873.207
12/15/2013  21:44:00      -94.980      -15.075       -7.557       25.970       16.324       12.156      674.451      266.480      147.779        0.520        0.054       96.169       13.441        0.020      330.891       -1.445      873.200
12/15/2013  21:45:00      -73.695      -15.715        2.220       31.768       20.747       12.949     1009.218      430.434      167.665        0.364        0.080       75.352       15.229        0.041      330.883       -1.459      873.195
12/15/2013  21:46:00      -97.659      -17.239       -5.958       22.707       20.085       12.017      515.625      403.393      144.399        0.547        0.053       99.169       11.444        0.013      330.879       -1.464      873.197
12/15/2013  21:47:00     -118.516      -16.804      -11.064       14.488       13.182        8.497      209.891      173.762       72.204        0.745        0.023      119.701        5.720        0.002      330.873       -1.475      873.202
12/15/2013  21:48:00     -118.271      -18.337      -11.994       10.816       18.234       11.877      116.986      332.490      141.053        0.753        0.030      119.684        5.703        0.002      330.841       -1.528      873.206
12/15/2013  21:49:00     -111.705      -31.978      -14.254       15.631       26.239       15.256      244.328      688.509      232.730        0.743        0.058      116.192        8.469        0.005      330.815       -1.570      873.216
12/15/2013  21:50:00      -91.011      -60.202       -4.679       20.082       20.564       15.379      403.300      422.862      236.513        0.650        0.053      109.120       12.723        0.014      330.790       -1.612      873.224
12/15/2013  21:51:00     -101.659      -63.540      -11.266       12.113       14.651       14.426      146.733      214.659      208.111        0.753        0.028      119.883        6.423        0.003      330.744       -1.686      873.235
12/15/2013  21:52:00     -114.318      -61.702       -8.571       14.689       14.304       12.782      215.765      204.615      163.375        0.877        0.029      129.907        8.616        0.004      330.765       -1.653      873.243
12/15/2013  21:53:00     -104.661      -58.703       -9.140       14.645       17.209       15.633      214.471      296.142      244.403        0.762        0.038      120.000        7.845        0.004      330.770       -1.646      873.252
12/15/2013  21:54:00     -111.711      -34.917       -7.844       15.850       14.505       11.965      251.238      210.395      143.159        0.718        0.030      117.041        8.127        0.005      330.778       -1.631      873.263
12/15/2013  21:55:00     -102.050      -29.587       -6.884       21.454       19.067       12.637      460.280      363.547      159.695        0.616        0.049      106.253       10.432        0.010      330.809       -1.580      873.267
12/15/2013  21:56:00      -92.386      -23.960       -4.201       26.194       20.141       12.887      686.103      405.655      166.063        0.519        0.063       95.442       13.037        0.019      330.758       -1.664      873.275
12/15/2013  21:57:00      -89.741      -34.731       -5.771       21.865       26.075       15.430      478.089      679.914      238.087        0.534        0.070       96.228       12.452        0.017      330.723       -1.722      873.291
12/15/2013  21:58:00     -105.655      -47.108      -10.697       12.134       15.623       10.683      147.237      244.084      114.121        0.700        0.025      115.681        7.561        0.004      330.732       -1.708      873.293
12/15/2013  21:59:00     -106.768      -42.960       -8.792       14.637       17.655       12.813      214.242      311.696      164.172        0.701        0.035      115.087        6.771        0.003      330.731       -1.709      873.298
12/15/2013  22:00:00     -103.504      -41.816       -2.453       26.277       17.710       14.995      690.472      313.639      224.861        0.685        0.061      111.632       15.091        0.018      330.714       -1.736      873.306
12/15/2013  22:01:00     -105.816      -52.229       -9.309       17.052       24.996       13.212      290.774      624.815      174.554        0.755        0.055      118.004       10.025        0.007      330.680       -1.792      873.311
12/15/2013  22:02:00     -121.360      -40.600      -11.563       14.289       16.495       12.100      204.175      272.085      146.410        0.857        0.031      127.971        8.487        0.004      330.687       -1.781      873.321
12/15/2013  22:03:00     -105.398      -41.654       -7.757       22.042       24.361       14.424      485.859      593.481      208.043        0.710        0.064      113.331       13.610        0.014      330.729       -1.711      873.333
12/15/2013  22:04:00     -100.396      -45.858       -8.438       21.987       16.707       14.806      483.409      279.124      219.215        0.662        0.049      110.374        9.280        0.007      330.698       -1.762      873.340
12/15/2013  22:05:00     -103.763      -36.784      -14.415       18.032       19.959       16.156      325.168      398.372      261.001        0.666        0.049      110.090       11.319        0.011      330.658       -1.828      873.349
12/15/2013  22:06:00      -85.478      -26.126       -7.066       19.159       20.020       10.773      367.061      400.784      116.068        0.446        0.044       89.381        8.777        0.010      330.619       -1.891      873.355
12/15/2013  22:07:00      -93.070      -44.546      -13.846       16.448       13.666       10.395      270.534      186.762      108.065        0.570        0.028      103.182        8.059        0.006      330.602       -1.920      873.366
12/15/2013  22:08:00      -91.985      -46.553       -6.551       13.157       12.621        9.125      173.100      159.297       83.257        0.554        0.021      103.095        6.348        0.004      330.626       -1.880      873.371
12/15/2013  22:09:00     -100.160      -43.067       -7.116       18.428       15.344        9.304      339.598      235.435       86.570        0.630        0.033      109.026        7.309        0.004      330.617       -1.894      873.377
12/15/2013  22:10:00     -106.192      -40.187      -10.835       12.748       12.875       10.512      162.517      165.758      110.502        0.672        0.022      113.542        4.328        0.001      330.609       -1.907      873.376
12/15/2013  22:11:00     -109.981      -41.604      -14.250       19.452       14.371       10.782      378.368      206.531      116.251        0.737        0.035      117.587        2.038        0.000      330.661       -1.822      873.371
12/15/2013  22:12:00      -83.812      -24.453       -3.155       19.958       16.835        9.734      398.331      283.434       94.745        0.420        0.039       87.306        6.854        0.006      330.622       -1.887      873.370
12/15/2013  22:13:00      -96.792      -19.842       -8.509       24.551       13.333       14.083      602.764      177.772      198.317        0.541        0.049       98.805       12.600        0.016      330.656       -1.830      873.368
12/15/2013  22:14:00     -103.090      -27.428       -9.500       17.172       21.689       11.170      294.882      470.420      124.778        0.618        0.045      106.677        7.435        0.005      330.677       -1.797      873.372
12/15/2013  22:15:00     -100.859      -47.739      -10.711       16.614       20.762       12.473      276.008      431.064      155.583        0.671        0.043      111.587        7.371        0.004      330.704       -1.752      873.376
12/15/2013  22:16:00     -108.636      -30.135      -10.171       28.506       30.994       15.730      812.584      960.613      247.430        0.742        0.101      112.738       13.788        0.015      330.617       -1.897      873.384
12/15/2013  22:17:00     -123.183      -37.048       -9.986       35.456       22.723       19.389     1257.136      516.349      375.944        0.940        0.107      128.633       18.856        0.021      330.543       -2.017      873.391
12/15/2013  22:18:00     -105.688      -13.692       -4.332       41.935       24.426       21.442     1758.524      596.626      459.756        0.709        0.141      106.571       17.941        0.028      330.444       -2.180      873.401
12/15/2013  22:19:00      -98.152       -1.554      -15.803       35.251       19.409       20.398     1242.602      376.706      416.085        0.596        0.102       98.164       13.396        0.019      330.434       -2.195      873.404
12/15/2013  22:20:00      -97.162      -14.255      -11.251       21.155       20.454       14.555      447.526      418.368      211.837        0.542        0.054       98.202       11.304        0.013      330.463       -2.149      873.413
12/15/2013  22:21:00     -103.953       -8.738       -7.384       21.797       15.589       16.864      475.106      243.010      284.393        0.597        0.050      104.319       11.818        0.013      330.414       -2.229      873.430
12/15/2013  22:22:00     -113.249      -13.514      -17.538       19.343       13.041       10.553      374.145      170.069      111.361        0.699        0.033      114.053        6.889        0.004      330.436       -2.192      873.448
12/15/2013  22:23:00     -111.032      -13.471      -15.468       19.408       18.425       11.799      376.669      339.482      139.220        0.680        0.043      111.846        7.482        0.004      330.487       -2.110      873.459
12/15/2013  22:24:00     -128.639      -19.281      -18.676       22.004       12.698       11.648      484.182      161.245      135.684        0.902        0.039      130.076        7.868        0.004      330.435       -2.193      873.464
12/15/2013  22:25:00     -139.349        0.302      -17.056       20.847       15.473       15.997      434.602      239.418      255.896        1.032        0.046      139.349        9.077        0.004      330.434       -2.196      873.470
12/15/2013  22:26:00      -98.260      -17.412      -15.592       25.214       20.460       17.905      635.737      418.601      320.576        0.579        0.069       99.790        6.426        0.004      330.428       -2.207      873.477
12/15/2013  22:27:00      -95.548      -36.175       -9.125       19.987       20.703       19.980      399.481      428.634      399.220        0.587        0.061      102.167       14.440        0.020      330.469       -2.139      873.490
12/15/2013  22:28:00     -103.409        2.153      -10.521       28.706       21.160       23.583      824.023      447.763      556.179        0.632        0.091      103.432       16.447        0.025      330.460       -2.153      873.504
12/15/2013  22:29:00      -88.107      -25.758      -12.809       24.154       20.260       16.856      583.435      410.485      284.140        0.493        0.064       91.795       13.465        0.022      330.545       -2.013      873.519
12/15/2013  22:30:00      -93.805      -23.957       -7.294       19.980       22.682       12.313      399.213      514.489      151.602        0.525        0.053       96.816        8.054        0.007      330.552       -2.003      873.530
12/15/2013  22:31:00      -86.894      -13.579       -9.473       25.371       18.358       14.878      643.697      337.012      221.343        0.451        0.060       87.949       14.884        0.029      330.573       -1.968      873.544
12/15/2013  22:32:00     -109.858       -3.605      -16.622       27.729       14.565       17.214      768.885      212.148      296.312        0.682        0.064      109.917       15.255        0.019      330.577       -1.961      873.548
12/15/2013  22:33:00      -86.326       -7.519      -11.960       35.758       20.111       15.617     1278.613      404.444      243.889        0.479        0.096       86.653       15.055        0.030      330.497       -2.094      873.556
12/15/2013  22:34:00     -103.981      -19.874       -6.974       30.409       21.544       14.190      924.687      464.150      201.367        0.642        0.080      105.864       14.342        0.018      330.447       -2.175      873.555
12/15/2013  22:35:00     -128.054       -4.142       -4.662       42.156       37.385       24.464     1777.118     1397.610      598.501        1.010        0.189      128.121       23.027        0.032      330.490       -2.104      873.546
12/15/2013  22:36:00     -111.072      -36.904       -8.485       42.760       31.452       21.197     1828.446      989.238      449.331        0.852        0.163      117.043       20.263        0.030      330.503       -2.082      873.539
12/15/2013  22:37:00     -105.468      -34.977       -5.961       31.067       28.774       19.265      965.184      827.946      371.138        0.727        0.108      111.117       13.422        0.015      330.438       -2.189      873.532
12/15/2013  22:38:00      -96.667      -18.747        0.578       46.430       32.116       22.789     2155.774     1031.460      519.357        0.670        0.185       98.468       22.374        0.052      330.415       -2.228      873.537
12/15/2013  22:39:00     -142.064       12.231      -13.457       52.009       34.756       29.824     2704.888     1207.952      889.495        1.266        0.240      142.589       27.287        0.037      330.351       -2.332      873.546
12/15/2013  22:40:00     -103.202      -12.289       -5.728       41.367       34.758       27.096     1711.196     1208.106      734.181        0.724        0.183      103.931       18.274        0.031      330.312       -2.396      873.545
12/15/2013  22:41:00     -134.104      -36.578       -8.246       38.535       37.821       15.697     1484.965     1430.398      246.405        1.128        0.158      139.003       15.182        0.012      330.312       -2.395      873.548
12/15/2013  22:42:00      -80.913      -28.100       -2.644       48.137       35.181       20.660     2317.191     1237.690      426.844        0.566        0.199       85.654       14.474        0.029      330.343       -2.344      873.538
12/15/2013  22:43:00      -44.185      -10.726       -6.753       32.188       23.838       16.246     1036.098      568.233      263.941        0.199        0.093       45.468        7.147        0.025      330.395       -2.260      873.533
12/15/2013  22:44:00      -75.463        6.038      -10.524       22.583       20.853       12.594      510.004      434.852      158.617        0.347        0.055       75.704        8.728        0.013      330.428       -2.205      873.530
12/15/2013  22:45:00      -79.890        5.302      -14.123       22.111       20.309       10.192      488.895      412.439      103.871        0.381        0.050       80.066        7.518        0.009      330.411       -2.234      873.534
12/15/2013  22:46:00     -104.824      -14.012      -13.440       19.649       15.795       10.192      386.077      249.468      103.868        0.605        0.037      105.756        7.056        0.004      330.393       -2.262      873.540
12/15/2013  22:47:00      -93.070      -25.397       -8.105       28.146       20.433       16.334      792.220      417.523      266.789        0.542        0.074       96.473       13.560        0.020      330.406       -2.242      873.530
12/15/2013  22:48:00     -102.901      -22.766       -8.473       23.213       19.805       13.330      538.862      392.250      177.697        0.614        0.055      105.389        9.102        0.007      330.410       -2.236      873.516
12/15/2013  22:49:00      -93.183      -39.555       -7.437       19.658       20.265       14.551      386.456      410.670      211.739        0.566        0.050      101.230        9.824        0.009      330.446       -2.175      873.504
12/15/2013  22:50:00      -92.327      -15.707       -6.079       17.316       26.223       12.602      299.860      687.653      158.799        0.498        0.057       93.653        8.224        0.008      330.481       -2.119      873.504
12/15/2013  22:51:00     -103.923       -3.563      -15.154       15.506       14.558       10.400      240.423      211.932      108.157        0.580        0.028      103.984        9.485        0.008      330.504       -2.081      873.523
12/15/2013  22:52:00     -119.135       -9.138      -17.176       14.231       13.503       13.597      202.530      182.328      184.892        0.757        0.028      119.485        4.966        0.002      330.426       -2.210      873.531
12/15/2013  22:53:00     -117.219        4.986       -4.798       33.498       22.837       21.606     1122.098      521.539      466.799        0.795        0.106      117.325       19.989        0.029      330.347       -2.339      873.531
12/15/2013  22:54:00     -108.882      -35.522      -11.598       39.582       37.577       21.582     1566.730     1412.010      465.777        0.835        0.172      114.530       18.102        0.025      330.395       -2.260      873.527
12/15/2013  22:55:00      -83.665      -18.196       -7.268       49.826       29.762       17.071     2482.622      885.805      291.405        0.552        0.183       85.621       23.350        0.074      330.373       -2.297      873.522
12/15/2013  22:56:00     -110.105      -17.160      -12.362       34.232       26.843       19.384     1171.801      720.534      375.740        0.742        0.113      111.434       15.263        0.019      330.327       -2.371      873.512
12/15/2013  22:57:00     -125.879       -7.277      -12.651       37.774       29.435       16.618     1426.892      866.443      276.163        0.931        0.128      126.089       14.277        0.013      330.283       -2.442      873.508
12/15/2013  22:58:00     -128.430      -12.384      -16.116       22.420       18.995       16.111      502.670      360.806      259.552        0.901        0.056      129.026       10.997        0.007      330.226       -2.536      873.507
12/15/2013  22:59:00     -144.951      -17.860      -15.374       28.881       21.447       18.570      834.105      459.972      344.861        1.160        0.082      146.047       17.295        0.014      330.219       -2.548      873.507
12/15/2013  23:00:00     -115.056      -21.056      -10.808       46.344       27.706       21.534     2147.729      767.609      463.719        0.859        0.169      116.967       21.430        0.034      330.181       -2.611      873.502
12/15/2013  23:01:00     -123.824      -19.494       -4.846       33.107       25.700       21.784     1096.068      660.470      474.563        0.898        0.112      125.349       18.601        0.022      330.158       -2.649      873.507
12/15/2013  23:02:00     -136.055       -9.224       -5.812       35.713       31.580       23.762     1275.405      997.290      564.620        1.073        0.142      136.367       21.698        0.025      330.208       -2.566      873.521
12/15/2013  23:03:00     -138.370       -0.022      -12.162       55.695       37.853       23.563     3101.907     1432.830      555.224        1.219        0.254      138.370       26.829        0.038      330.187       -2.601      873.533
12/15/2013  23:04:00     -129.868        2.321       -7.489       63.315       43.921       27.788     4008.805     1929.057      772.164        1.182        0.336      129.889       31.432        0.059      330.159       -2.649      873.551
12/15/2013  23:05:00     -154.664        9.536      -12.839       38.120       38.613       30.389     1453.152     1490.996      923.465        1.402        0.193      154.958       24.312        0.025      330.085       -2.769      873.552
12/15/2013  23:06:00     -145.239       -6.970      -15.182       34.370       39.585       20.337     1181.308     1566.948      413.575        1.227        0.158      145.406       18.162        0.016      330.207       -2.568      873.539
12/15/2013  23:07:00     -103.211      -10.734       -9.475       30.287       34.146       22.788      917.274     1165.958      519.291        0.673        0.130      103.767       16.561        0.025      330.120       -2.711      873.527
12/15/2013  23:08:00      -94.261      -15.994       -7.369       50.200       37.323       20.464     2520.031     1393.040      418.790        0.676        0.217       95.608       22.144        0.054      330.139       -2.680      873.512
12/15/2013  23:09:00     -119.917       -2.672      -11.906       42.961       29.770       26.131     1845.647      886.277      682.833        0.897        0.171      119.947       24.535        0.042      330.164       -2.640      873.495
12/15/2013  23:10:00      -94.597      -27.770       -3.537       27.091       37.236       20.009      733.917     1386.532      400.353        0.613        0.126       98.589       17.714        0.032      330.194       -2.589      873.491
12/15/2013  23:11:00      -40.038      -29.476        6.426       40.851       38.421       24.820     1668.815     1476.204      616.022        0.314        0.188       49.717       10.981        0.049      330.164       -2.640      873.493
12/15/2013  23:12:00      -83.662      -32.841       -0.623       38.429       30.567       17.611     1476.780      934.333      310.164        0.540        0.136       89.877       11.820        0.017      330.176       -2.620      873.492
12/15/2013  23:13:00      -44.267      -18.479        4.395       46.992       26.376       15.203     2208.210      695.693      231.142        0.273        0.157       47.969       16.599        0.120      330.225       -2.538      873.502
12/15/2013  23:14:00      -87.061      -18.253       -4.493       27.037       24.082       17.944      730.996      579.944      321.978        0.478        0.082       88.953       12.769        0.021      330.179       -2.614      873.510
12/15/2013  23:15:00      -60.236       -5.153       -0.132       31.155       20.202       15.576      970.660      408.123      242.623        0.264        0.081       60.456       11.140        0.034      330.214       -2.556      873.525
12/15/2013  23:16:00      -81.691       10.177       -4.392       27.869       19.050       15.110      776.690      362.884      228.326        0.408        0.068       82.323        5.863        0.005      330.236       -2.519      873.526
12/15/2013  23:17:00      -72.610      -14.562       -7.927       16.732       13.294       12.441      279.961      176.723      154.786        0.308        0.031       74.055        7.095        0.009      330.302       -2.412      873.519
12/15/2013  23:18:00      -81.514       -6.343       -7.724       18.744       13.384       10.148      351.348      179.144      102.980        0.369        0.032       81.761        5.290        0.004      330.399       -2.254      873.508
12/15/2013  23:19:00      -71.878       -7.040       -9.521       16.015       13.567       10.743      256.487      184.068      115.421        0.293        0.028       72.222        6.847        0.009      330.372       -2.298      873.501
12/15/2013  23:20:00      -55.482      -13.004       -2.805       13.579       25.943       14.646      184.394      673.061      214.494        0.216        0.054       56.985        4.065        0.005      330.324       -2.376      873.502
12/15/2013  23:21:00      -27.059       13.914       -2.515       12.542       11.797        7.264      157.296      139.167       52.764        0.064        0.017       30.427        4.086        0.018      330.317       -2.387      873.515
12/15/2013  23:22:00        9.968       19.672        5.448       13.170       13.874        6.856      173.456      192.495       47.008        0.046        0.021       22.053        8.268        0.141      330.377       -2.289      873.536
12/15/2013  23:23:00       33.975       39.117        4.712        9.589       14.994       12.424       91.947      224.826      154.368        0.159        0.024       51.812       10.711        0.043      330.261       -2.479      873.553
12/15/2013  23:24:00       39.356       44.386       -5.497        6.538        9.441        4.766       42.748       89.127       22.719        0.185        0.008       59.321        4.374        0.005      330.171       -2.628      873.564
12/15/2013  23:25:00       30.218       19.059       -3.653       10.229        8.081        9.131      104.639       65.302       83.369        0.077        0.013       35.726        4.124        0.013      330.176       -2.619      873.573
12/15/2013  23:26:00       21.953       19.762       -1.856        5.891       11.208       11.916       34.708      125.618      141.987        0.059        0.015       29.538        4.238        0.021      330.184       -2.605      873.597
12/15/2013  23:27:00       21.384       26.604       -1.901        6.110        7.297        6.843       37.338       53.239       46.828        0.065        0.007       34.133        2.827        0.007      330.188       -2.599      873.626
12/15/2013  23:28:00       15.521       33.671       -1.868        5.395        6.019        6.007       29.106       36.227       36.087        0.074        0.005       37.076        3.722        0.010      330.157       -2.650      873.654
12/15/2013  23:29:00       21.133       25.961        2.518       14.121       14.974       10.760      199.401      224.226      115.770        0.083        0.027       33.475       10.941        0.107      330.137       -2.684      873.681
12/15/2013  23:30:00       24.979       27.256        3.639       13.784       18.956       16.178      190.000      359.315      261.714        0.110        0.041       36.971       14.094        0.145      330.132       -2.693      873.691
12/15/2013  23:31:00       30.392       25.571       -4.093       12.727       13.401        9.012      161.971      179.591       81.219        0.101        0.021       39.718        7.394        0.035      330.099       -2.748      873.692
12/15/2013  23:32:00       15.030       23.094       -3.271       11.894       13.901        9.586      141.458      193.228       91.892        0.060        0.021       27.554       10.988        0.159      330.132       -2.690      873.685
12/15/2013  23:33:00       19.492       22.629       -3.932        9.874       14.844        7.756       97.490      220.345       60.150        0.064        0.019       29.867        6.688        0.050      330.181       -2.611      873.687
12/15/2013  23:34:00       24.447       21.289       -1.007       12.122       11.383       11.068      146.954      129.581      122.504        0.073        0.020       32.417        9.798        0.091      330.271       -2.463      873.693
12/15/2013  23:35:00       28.889       20.093       -2.612       10.768       10.298        7.556      115.956      106.040       57.096        0.076        0.014       35.189        6.837        0.038      330.264       -2.473      873.700
12/15/2013  23:36:00       23.837       17.194       -1.709        8.954        6.449        6.650       80.179       41.587       44.225        0.052        0.008       29.391        4.273        0.021      330.241       -2.513      873.703
12/15/2013  23:37:00       16.353       12.950       -1.926        4.308        6.876        3.672       18.561       47.273       13.486        0.026        0.004       20.860        2.873        0.019      330.246       -2.506      873.704
12/15/2013  23:38:00       16.607       16.447       -4.090        7.378        6.967        7.738       54.440       48.533       59.879        0.036        0.008       23.373        5.260        0.051      330.255       -2.489      873.710
12/15/2013  23:39:00       17.200       20.162        1.070        7.017        5.533        4.404       49.235       30.609       19.398        0.040        0.005       26.502        1.092        0.002      330.270       -2.463      873.713
12/15/2013  23:40:00       18.719       19.661        4.501        5.623        5.271        5.854       31.613       27.785       34.273        0.043        0.005       27.147        3.812        0.020      330.278       -2.452      873.712
12/15/2013  23:41:00       25.628       26.541        3.527        5.017        4.942        4.943       25.171       24.426       24.436        0.072        0.004       36.895        2.593        0.005      330.284       -2.439      873.697
12/15/2013  23:42:00       22.094       25.419       -0.047        7.994        9.259        8.416       63.906       85.733       70.824        0.068        0.011       33.679        5.641        0.028      330.281       -2.446      873.684
12/15/2013  23:43:00       19.534       39.990       -6.299        8.826       12.379        7.179       77.893      153.246       51.541        0.115        0.014       44.506        7.377        0.027      330.275       -2.456      873.665
12/15/2013  23:44:00       21.473       37.398       -6.661       10.460       12.678       10.498      109.419      160.729      110.200        0.114        0.019       43.124        9.816        0.052      330.237       -2.517      873.639
12/15/2013  23:45:00       36.421       39.762       -5.950       11.713       10.075       10.162      137.183      101.500      103.263        0.164        0.017       53.921        6.173        0.013      330.248       -2.500      873.612
12/15/2013  23:46:00       29.073       32.734       -1.969       10.812       13.602        9.867      116.889      185.021       97.359        0.116        0.020       43.781        2.615        0.004      330.241       -2.513      873.593
12/15/2013  23:47:00       23.825       20.924        1.324        9.804       13.444       10.661       96.126      180.749      113.660        0.070        0.020       31.709        9.663        0.093      330.246       -2.504      873.571
12/15/2013  23:48:00       11.864       15.015        3.533        8.998       11.640        7.931       80.960      135.488       62.901        0.033        0.014       19.136        8.103        0.179      330.257       -2.485      873.566
12/15/2013  23:49:00        9.982       13.613       -1.021        9.336        8.164        6.263       87.155       66.656       39.231        0.024        0.010       16.880        4.999        0.088      330.247       -2.503      873.558
12/15/2013  23:50:00       16.967        5.643        1.979       13.251        7.204        6.381      175.586       51.903       40.712        0.030        0.013       17.881        6.362        0.127      330.247       -2.503      873.556
12/15/2013  23:51:00        3.773        0.136       -0.764       14.504        4.975        4.278      210.358       24.750       18.301        0.013        0.013        3.775        5.212        1.906      330.263       -2.475      873.565
12/15/2013  23:52:00      -28.722      -11.085       -3.607       12.542       13.086        7.774      157.307      171.256       60.439        0.067        0.019       30.787        9.742        0.100      330.094       -2.754      873.577
12/15/2013  23:53:00      -47.504       -7.922       -4.960        7.754       13.234       10.167       60.130      175.141      103.376        0.134        0.017       48.160        4.155        0.007      329.873       -3.115      873.583
12/15/2013  23:54:00      -41.963       -2.389       -4.237       10.921        6.906        5.577      119.276       47.696       31.098        0.099        0.010       42.031        2.202        0.003      329.875       -3.111      873.588
12/15/2013  23:55:00      -42.213      -11.498      -10.627        9.946        7.900        6.074       98.915       62.411       36.898        0.111        0.010       43.751        2.115        0.002      329.969       -2.957      873.582
12/15/2013  23:56:00      -36.962       -9.175       -9.157        6.894        7.568        5.601       47.534       57.279       31.370        0.084        0.007       38.084        3.799        0.010      329.938       -3.011      873.581
12/15/2013  23:57:00      -38.263       -4.563       -5.581        4.684        5.309        4.745       21.939       28.184       22.519        0.079        0.004       38.534        2.224        0.003      329.924       -3.031      873.587
12/15/2013  23:58:00      -43.274       -6.020       -2.793        8.088        6.250        5.927       65.409       39.064       35.129        0.103        0.007       43.690        2.347        0.003      329.915       -3.046      873.599
12/15/2013  23:59:00      -55.463      -20.139       -6.915        8.966        9.445        6.654       80.384       89.215       44.272        0.187        0.011       59.006        3.244        0.003      329.894       -3.081      873.606
